[[{"header":{"parameterUnit":"m.s-1","parameterCategory":1,"la1":30.6,"la2":29.2853,"lo1":-89.7004,"lo2":-87.6739,"dy":0.0162,"dx":0.0183,"nx":112,"ny":82,"refTime":"2024-03-21T18:00:00:Z","depth":0,"parameterNumber":2,"parameterNumberName":"U-component_of_WINDS"},"data":[0.0,0.0,0.0,0.0,0.0,0.0,0.0,0.0,0.0,0.0,0.0,0.0,0.0,0.0,0.0,0.0,0.0,0.0,0.0,0.0,0.0,0.0,0.0,0.0,0.0,0.0,0.0,0.0,0.0,0.0,0.0,0.0,0.0,0.0,0.0,0.0,0.0,0.0,0.0,0.0,0.0,0.0,0.0,0.0,0.0,0.0,0.0,0.0,0.0,0.0,0.0,0.0,0.0,0.0,0.0,0.0,0.0,0.0,0.0,0.0,0.0,0.0,0.0,0.0,0.0,0.0,0.0,0.0,0.0,0.0,0.0,0.0,0.0,0.0,0.0,0.0,0.0,0.0,0.0,0.0,0.0,0.0,0.0,0.0,0.0,0.0,0.0,0.0,0.0,0.0,3.8197,3.9082,3.9235,3.9284,3.9284,3.8555,3.7752,3.6934,0.0,0.0,0.0,0.0,0.0,0.0,0.0,0.0,0.0,0.0,0.0,0.0,0.0,0.0,0.0,0.0,0.0,0.0,0.0,0.0,0.0,0.0,0.0,0.0,0.0,0.0,0.0,0.0,0.0,0.0,0.0,0.0,0.0,0.0,0.0,0.0,0.0,0.0,0.0,0.0,0.0,0.0,0.0,0.0,0.0,0.0,0.0,0.0,0.0,0.0,0.0,0.0,0.0,0.0,0.0,0.0,0.0,0.0,0.0,0.0,0.0,0.0,0.0,0.0,0.0,0.0,0.0,0.0,0.0,0.0,0.0,0.0,0.0,0.0,0.0,0.0,0.0,0.0,0.0,0.0,0.0,0.0,0.0,0.0,0.0,0.0,0.0,0.0,0.0,0.0,0.0,0.0,0.0,0.0,0.0,0.0,0.0,0.0,0.0,0.0,0.0,0.0,0.0,0.0,3.898,3.9823,4.0008,4.0015,4.0015,3.9338,3.8569,3.7789,0.0,0.0,0.0,0.0,0.0,0.0,0.0,0.0,0.0,0.0,0.0,0.0,0.0,0.0,0.0,0.0,0.0,0.0,0.0,0.0,0.0,0.0,0.0,0.0,0.0,0.0,0.0,0.0,0.0,0.0,0.0,0.0,0.0,0.0,0.0,0.0,0.0,0.0,0.0,0.0,0.0,0.0,0.0,0.0,0.0,0.0,0.0,0.0,0.0,0.0,0.0,0.0,0.0,0.0,0.0,0.0,0.0,0.0,0.0,0.0,0.0,0.0,0.0,0.0,0.0,0.0,0.0,0.0,0.0,0.0,0.0,0.0,0.0,0.0,0.0,0.0,0.0,0.0,0.0,0.0,0.0,0.0,0.0,0.0,0.0,0.0,0.0,0.0,0.0,0.0,0.0,0.0,0.0,0.0,0.0,0.0,0.0,0.0,0.0,0.0,0.0,0.0,0.0,3.9192,3.9783,4.0595,4.0768,4.0644,4.0215,3.9881,3.9182,3.7968,3.6812,0.0,0.0,0.0,0.0,0.0,0.0,0.0,0.0,0.0,0.0,0.0,0.0,0.0,0.0,0.0,0.0,0.0,0.0,0.0,0.0,0.0,0.0,0.0,0.0,0.0,0.0,0.0,0.0,0.0,0.0,0.0,0.0,0.0,0.0,0.0,0.0,0.0,0.0,0.0,0.0,0.0,0.0,0.0,0.0,0.0,0.0,0.0,0.0,0.0,0.0,0.0,0.0,0.0,0.0,0.0,0.0,0.0,0.0,0.0,0.0,0.0,0.0,0.0,0.0,0.0,0.0,0.0,0.0,0.0,0.0,0.0,0.0,0.0,0.0,0.0,0.0,0.0,0.0,0.0,0.0,0.0,0.0,0.0,0.0,0.0,0.0,0.0,0.0,0.0,0.0,0.0,0.0,0.0,0.0,0.0,0.0,0.0,0.0,0.0,0.0,0.0,0.0,4.0286,4.0796,4.1392,4.153,4.1335,4.0777,4.04,3.9667,3.8535,3.731,0.0,0.0,0.0,0.0,0.0,0.0,0.0,0.0,0.0,0.0,0.0,0.0,0.0,0.0,0.0,0.0,0.0,0.0,0.0,0.0,0.0,0.0,0.0,0.0,0.0,0.0,0.0,0.0,0.0,0.0,0.0,0.0,0.0,0.0,0.0,0.0,0.0,0.0,0.0,0.0,0.0,0.0,0.0,0.0,0.0,0.0,0.0,0.0,0.0,0.0,0.0,0.0,0.0,0.0,0.0,0.0,0.0,0.0,0.0,0.0,0.0,0.0,0.0,0.0,0.0,0.0,0.0,0.0,0.0,0.0,0.0,0.0,0.0,0.0,0.0,0.0,0.0,0.0,0.0,0.0,0.0,0.0,0.0,0.0,0.0,0.0,0.0,0.0,0.0,0.0,0.0,0.0,0.0,0.0,0.0,0.0,0.0,0.0,0.0,0.0,0.0,0.0,4.123,4.2148,4.2221,4.2288,4.2292,4.2263,4.0914,4.0074,4.0037,3.7889,0.0,0.0,0.0,0.0,0.0,0.0,0.0,0.0,0.0,0.0,0.0,0.0,0.0,0.0,0.0,0.0,0.0,0.0,0.0,0.0,0.0,0.0,0.0,0.0,0.0,0.0,0.0,0.0,0.0,0.0,0.0,0.0,0.0,0.0,0.0,0.0,0.0,0.0,0.0,0.0,0.0,0.0,0.0,0.0,0.0,0.0,0.0,0.0,0.0,0.0,0.0,0.0,0.0,0.0,0.0,0.0,0.0,0.0,0.0,0.0,0.0,0.0,0.0,0.0,0.0,0.0,0.0,0.0,0.0,0.0,0.0,0.0,0.0,0.0,0.0,0.0,0.0,0.0,0.0,0.0,0.0,0.0,0.0,0.0,0.0,0.0,0.0,0.0,0.0,0.0,0.0,0.0,0.0,0.0,0.0,0.0,0.0,0.0,0.0,0.0,0.0,0.0,4.1625,4.2506,0.0,4.3091,4.2896,4.2431,4.1404,4.0582,4.0185,0.0,0.0,0.0,0.0,0.0,0.0,0.0,0.0,0.0,0.0,0.0,0.0,0.0,0.0,0.0,0.0,0.0,0.0,0.0,0.0,0.0,0.0,0.0,0.0,0.0,0.0,0.0,0.0,0.0,0.0,0.0,0.0,0.0,0.0,0.0,0.0,0.0,0.0,0.0,0.0,0.0,0.0,0.0,0.0,0.0,0.0,0.0,0.0,0.0,0.0,0.0,0.0,0.0,0.0,0.0,0.0,0.0,0.0,0.0,0.0,0.0,0.0,0.0,0.0,0.0,0.0,0.0,0.0,0.0,0.0,0.0,0.0,0.0,0.0,0.0,0.0,0.0,0.0,0.0,0.0,0.0,0.0,0.0,0.0,0.0,0.0,0.0,0.0,0.0,0.0,0.0,0.0,0.0,0.0,0.0,0.0,0.0,0.0,0.0,0.0,0.0,0.0,4.1339,4.2162,4.2884,0.0,4.3506,4.3303,4.2802,4.2002,4.1232,4.0508,0.0,0.0,0.0,0.0,0.0,0.0,0.0,0.0,0.0,0.0,0.0,0.0,0.0,0.0,0.0,0.0,0.0,0.0,0.0,0.0,0.0,0.0,0.0,0.0,0.0,0.0,0.0,0.0,0.0,0.0,0.0,0.0,0.0,0.0,0.0,0.0,0.0,0.0,0.0,0.0,0.0,0.0,0.0,0.0,0.0,0.0,0.0,0.0,0.0,0.0,0.0,0.0,0.0,0.0,0.0,0.0,0.0,0.0,0.0,0.0,0.0,0.0,0.0,0.0,0.0,0.0,0.0,0.0,0.0,0.0,0.0,0.0,0.0,0.0,0.0,0.0,0.0,0.0,0.0,0.0,0.0,0.0,0.0,0.0,0.0,0.0,0.0,0.0,0.0,0.0,0.0,0.0,0.0,0.0,0.0,0.0,0.0,0.0,0.0,0.0,0.0,0.0,4.2088,4.2919,4.3438,4.3497,4.3506,4.3506,4.3506,4.2763,4.1989,0.0,0.0,0.0,0.0,0.0,0.0,0.0,0.0,0.0,0.0,0.0,0.0,0.0,0.0,0.0,0.0,0.0,0.0,0.0,0.0,0.0,0.0,0.0,0.0,0.0,0.0,0.0,0.0,0.0,0.0,0.0,0.0,0.0,0.0,0.0,0.0,0.0,0.0,0.0,0.0,0.0,0.0,0.0,0.0,0.0,0.0,0.0,0.0,0.0,0.0,0.0,0.0,0.0,0.0,0.0,0.0,0.0,0.0,0.0,0.0,0.0,0.0,0.0,0.0,0.0,0.0,0.0,0.0,0.0,0.0,0.0,0.0,0.0,0.0,0.0,0.0,0.0,0.0,0.0,0.0,0.0,0.0,0.0,0.0,0.0,0.0,0.0,0.0,0.0,0.0,0.0,0.0,0.0,0.0,0.0,0.0,0.0,0.0,0.0,0.0,0.0,0.0,0.0,4.201,4.3251,4.4163,4.4263,4.4281,4.4299,4.4333,4.3094,4.1964,4.1173,0.0,0.0,0.0,0.0,0.0,0.0,0.0,0.0,0.0,0.0,0.0,0.0,0.0,0.0,0.0,0.0,0.0,0.0,0.0,0.0,0.0,0.0,0.0,0.0,0.0,0.0,0.0,0.0,0.0,0.0,0.0,0.0,0.0,0.0,0.0,0.0,0.0,0.0,0.0,0.0,0.0,0.0,0.0,0.0,0.0,0.0,0.0,0.0,0.0,0.0,0.0,0.0,0.0,0.0,0.0,0.0,0.0,0.0,0.0,0.0,0.0,0.0,0.0,0.0,0.0,0.0,0.0,0.0,0.0,0.0,0.0,0.0,0.0,0.0,0.0,0.0,0.0,0.0,0.0,0.0,0.0,0.0,0.0,0.0,0.0,0.0,0.0,0.0,0.0,0.0,0.0,0.0,0.0,0.0,0.0,0.0,0.0,0.0,0.0,0.0,0.0,0.0,4.286,4.4025,4.4891,4.4994,4.5003,4.4894,4.4674,4.3767,4.2757,4.1654,0.0,0.0,0.0,0.0,0.0,0.0,0.0,0.0,0.0,0.0,0.0,0.0,0.0,0.0,0.0,0.0,0.0,0.0,0.0,0.0,0.0,0.0,0.0,0.0,0.0,0.0,0.0,0.0,0.0,0.0,0.0,0.0,0.0,0.0,0.0,0.0,0.0,0.0,0.0,0.0,0.0,0.0,0.0,0.0,0.0,0.0,0.0,0.0,0.0,0.0,0.0,0.0,0.0,0.0,0.0,0.0,0.0,0.0,0.0,0.0,0.0,0.0,0.0,0.0,0.0,0.0,0.0,0.0,0.0,0.0,0.0,0.0,0.0,0.0,0.0,0.0,0.0,0.0,0.0,0.0,0.0,0.0,0.0,0.0,0.0,0.0,0.0,0.0,0.0,0.0,0.0,0.0,0.0,0.0,0.0,0.0,0.0,0.0,0.0,0.0,0.0,0.0,4.4258,4.5094,4.5632,4.5673,4.5692,4.5439,4.4867,4.4657,4.3961,4.2481,0.0,0.0,0.0,0.0,0.0,0.0,0.0,0.0,0.0,0.0,0.0,0.0,0.0,0.0,0.0,0.0,0.0,0.0,0.0,0.0,0.0,0.0,0.0,0.0,0.0,0.0,0.0,0.0,0.0,0.0,0.0,0.0,0.0,0.0,0.0,0.0,0.0,0.0,0.0,0.0,0.0,0.0,0.0,0.0,0.0,0.0,0.0,0.0,0.0,0.0,0.0,0.0,0.0,0.0,0.0,0.0,0.0,0.0,0.0,0.0,3.5261,0.0,0.0,0.0,0.0,0.0,0.0,0.0,0.0,0.0,0.0,0.0,0.0,0.0,0.0,0.0,0.0,0.0,0.0,0.0,0.0,0.0,0.0,0.0,0.0,0.0,0.0,0.0,0.0,0.0,0.0,0.0,0.0,0.0,0.0,0.0,0.0,0.0,0.0,0.0,0.0,0.0,4.4986,4.5774,4.6321,4.6458,4.6478,4.6445,4.6324,4.5166,4.4063,4.3129,4.1728,0.0,0.0,0.0,0.0,0.0,0.0,0.0,0.0,0.0,0.0,0.0,0.0,0.0,0.0,0.0,0.0,0.0,0.0,0.0,0.0,0.0,0.0,0.0,0.0,0.0,0.0,0.0,0.0,0.0,0.0,0.0,0.0,0.0,0.0,0.0,0.0,0.0,0.0,0.0,0.0,0.0,0.0,0.0,0.0,0.0,0.0,0.0,0.0,0.0,0.0,0.0,0.0,0.0,0.0,0.0,0.0,0.0,0.0,0.0,0.0,3.6673,0.0,0.0,0.0,0.0,0.0,0.0,0.0,0.0,0.0,0.0,0.0,0.0,0.0,0.0,0.0,0.0,0.0,0.0,0.0,0.0,0.0,0.0,0.0,0.0,0.0,0.0,0.0,0.0,0.0,0.0,0.0,0.0,0.0,0.0,0.0,0.0,0.0,0.0,0.0,0.0,4.5735,4.6535,4.7094,4.7156,4.7166,4.7062,4.6772,4.5972,4.5027,4.3908,4.272,0.0,0.0,0.0,0.0,0.0,0.0,0.0,0.0,0.0,0.0,0.0,0.0,0.0,0.0,0.0,0.0,0.0,0.0,0.0,0.0,0.0,0.0,0.0,0.0,0.0,0.0,0.0,0.0,0.0,0.0,0.0,0.0,0.0,0.0,0.0,0.0,0.0,0.0,0.0,0.0,0.0,0.0,0.0,0.0,0.0,0.0,0.0,0.0,0.0,0.0,0.0,0.0,0.0,4.1535,4.1652,4.1726,4.1726,4.182,4.1869,4.0732,3.9613,3.8587,3.874,0.0,0.0,0.0,0.0,0.0,0.0,0.0,0.0,0.0,0.0,0.0,0.0,0.0,0.0,0.0,0.0,0.0,0.0,0.0,0.0,0.0,0.0,0.0,0.0,4.1655,4.1528,0.0,0.0,0.0,0.0,0.0,0.0,0.0,0.0,0.0,0.0,0.0,0.0,4.6657,4.7485,4.8091,4.8091,4.8113,4.7839,4.7134,4.6963,4.6276,4.4881,4.3816,4.2674,0.0,0.0,0.0,0.0,0.0,0.0,0.0,0.0,0.0,0.0,0.0,0.0,0.0,0.0,0.0,0.0,0.0,0.0,0.0,0.0,0.0,0.0,0.0,0.0,0.0,0.0,0.0,0.0,0.0,0.0,0.0,0.0,2.8921,3.0393,0.0,0.0,0.0,0.0,0.0,0.0,0.0,0.0,0.0,0.0,0.0,0.0,0.0,4.1122,4.1305,4.2591,4.3308,4.3437,4.4086,4.4474,4.4654,4.4654,4.4733,4.4829,4.4763,0.0,4.078,4.0803,0.0,0.0,0.0,0.0,0.0,0.0,0.0,0.0,0.0,0.0,0.0,0.0,0.0,0.0,0.0,0.0,0.0,0.0,0.0,0.0,0.0,0.0,4.3744,4.3862,4.3897,4.3895,0.0,4.3494,4.3068,4.3068,4.3568,0.0,0.0,0.0,0.0,0.0,0.0,0.0,4.8122,4.9025,4.9597,4.9597,4.9698,4.9485,4.8688,4.7963,4.7218,4.6458,4.4323,4.3087,4.2993,4.0788,0.0,0.0,0.0,0.0,0.0,0.0,0.0,0.0,0.0,0.0,0.0,0.0,0.0,0.0,0.0,0.0,0.0,0.0,0.0,0.0,0.0,0.0,0.0,0.0,0.0,0.0,0.0,0.0,0.0,2.9207,3.0332,3.1371,3.2295,3.3233,0.0,0.0,0.0,0.0,0.0,0.0,0.0,0.0,0.0,4.2059,4.2866,4.3518,4.3993,4.4674,4.5417,4.634,4.6661,4.7065,4.7546,4.7546,4.7575,4.7646,4.7815,4.7155,4.5864,4.4379,4.3819,4.3845,0.0,0.0,0.0,0.0,4.2155,4.193,4.2007,4.2029,0.0,4.2095,0.0,0.0,0.0,0.0,0.0,0.0,0.0,0.0,0.0,0.0,0.0,4.6153,4.6259,4.6413,4.6885,4.6755,4.6055,0.0,4.4738,4.5438,4.5958,0.0,0.0,0.0,0.0,4.8669,4.9027,4.9477,4.9809,4.9809,4.9911,4.9845,4.9509,4.8804,4.8072,4.7291,4.55,4.4087,4.3205,4.1862,4.0321,0.0,0.0,0.0,0.0,0.0,0.0,0.0,0.0,0.0,0.0,0.0,0.0,0.0,0.0,0.0,0.0,0.0,0.0,0.0,0.0,0.0,0.0,0.0,0.0,0.0,0.0,0.0,0.0,3.088,3.1892,3.2627,3.4052,3.5245,0.0,0.0,0.0,0.0,0.0,0.0,4.2132,4.2739,4.3482,4.4378,4.5042,4.5771,4.6603,4.685,4.7583,4.876,4.8965,4.9354,4.996,4.996,4.9976,4.9987,5.0157,5.0217,5.0007,4.7582,4.6591,4.6561,4.5796,4.5405,4.5199,4.4706,4.4406,4.4244,4.434,4.44,4.4448,4.4554,0.0,4.4683,4.5,0.0,0.0,0.0,0.0,4.6341,4.6918,4.7094,4.7283,4.8072,4.8296,4.8508,4.9298,4.944,4.8725,0.0,4.6171,4.6799,4.7439,0.0,0.0,0.0,0.0,4.9758,4.9758,5.0056,5.0246,5.0246,5.0398,5.0407,5.0224,4.9762,4.9068,4.8087,4.6793,4.5365,4.3786,4.2905,4.1497,3.9492,0.0,0.0,0.0,0.0,0.0,0.0,0.0,0.0,0.0,0.0,0.0,0.0,0.0,0.0,0.0,0.0,0.0,0.0,0.0,0.0,0.0,0.0,0.0,0.0,0.0,0.0,0.0,0.0,0.0,3.485,3.6288,0.0,0.0,0.0,0.0,4.1592,4.2342,4.3427,4.4901,4.5035,4.5704,4.716,4.7365,4.7812,4.8552,4.9448,4.9929,5.0031,5.0726,5.1178,5.1387,5.1387,5.1466,5.1573,5.1623,5.1589,5.1433,4.9452,4.8701,4.8758,4.8044,4.7363,4.6808,4.6752,4.6299,4.5686,4.5699,4.5775,4.5888,4.5888,4.5975,4.6226,4.7024,4.7247,0.0,0.0,4.8345,4.8345,4.838,4.838,4.8604,4.939,4.9613,4.9851,5.0779,5.0982,5.0528,0.0,4.8737,4.881,4.8957,0.0,4.9089,4.9281,4.9947,5.0459,5.0459,5.1212,5.1799,5.1799,5.1922,5.173,5.1079,5.1018,5.0389,4.8945,4.8051,4.6918,4.543,4.3877,4.2723,4.2032,4.1199,0.0,0.0,0.0,0.0,0.0,0.0,0.0,0.0,0.0,0.0,0.0,0.0,0.0,0.0,0.0,0.0,0.0,0.0,0.0,0.0,0.0,0.0,0.0,0.0,0.0,0.0,0.0,0.0,3.6999,3.8432,0.0,4.0319,4.1352,4.2475,4.3708,4.4597,4.5492,4.656,4.7515,4.8284,4.8786,4.9788,5.0441,5.0676,5.148,5.2135,5.2605,5.2994,5.35,5.399,5.4161,5.4245,5.4262,5.4431,5.4481,5.4395,5.3311,5.2077,5.0868,5.0061,4.97,4.9567,4.9181,4.8862,4.8633,4.8728,4.8783,4.8824,4.8824,4.8864,4.8974,4.9232,4.9404,4.9625,5.0395,5.0673,5.0859,5.14,5.1505,5.161,5.187,5.194,5.2024,5.2396,5.2466,5.2304,5.1782,5.1401,5.1179,5.1231,5.1647,5.2041,5.2171,5.2446,5.265,5.2753,5.3054,5.3258,5.3258,5.2969,5.2639,5.2424,5.161,5.0885,5.0353,4.8659,4.7456,4.6954,4.5464,4.4041,4.2796,4.2547,4.1674,0.0,0.0,0.0,0.0,0.0,0.0,0.0,0.0,0.0,0.0,0.0,0.0,0.0,0.0,0.0,0.0,0.0,0.0,0.0,0.0,0.0,0.0,0.0,0.0,0.0,0.0,3.8051,3.9082,4.0511,4.1697,4.2421,4.3485,4.4625,4.5855,4.6697,4.7642,4.8675,4.9626,5.0376,5.0876,5.1912,5.2548,5.2815,5.3603,5.424,5.476,5.512,5.5577,5.6047,5.6174,5.6282,5.6354,5.6478,5.6567,5.6587,5.5944,5.4905,5.3583,5.233,5.1974,5.2092,5.1701,5.143,5.1276,5.1145,5.1118,5.1133,5.1141,5.119,5.119,5.119,5.1241,5.143,5.1953,5.2339,5.2739,5.3279,5.3594,5.3888,5.4192,5.4276,5.4361,5.4665,5.475,5.475,5.475,5.3627,5.2672,5.2726,5.3199,5.3572,5.3695,5.3722,5.3775,5.3909,5.3935,5.3949,5.4001,5.3628,5.3312,5.3112,5.2305,5.1574,5.1115,4.9678,4.8515,4.7725,4.6747,4.55,4.394,4.3524,4.2782,4.1694,0.0,0.0,0.0,0.0,0.0,0.0,0.0,0.0,0.0,0.0,0.0,0.0,0.0,0.0,0.0,0.0,0.0,0.0,0.0,0.0,0.0,0.0,0.0,3.6921,3.8014,3.9523,4.1105,4.2583,4.3827,4.4706,4.6097,4.7256,4.8051,4.8779,4.9806,5.128,5.1364,5.2009,5.3415,5.3681,5.4156,5.487,5.5821,5.6281,5.6281,5.7018,5.7352,5.7352,5.7352,5.7465,5.7652,5.7652,5.7781,5.7915,5.7187,5.7008,5.6981,5.482,5.4098,5.4276,5.4276,5.3941,5.3406,5.2814,5.2631,5.2661,5.2795,5.2839,5.2839,5.2839,5.2839,5.2839,5.2839,5.3361,5.3918,5.3918,5.4474,5.5285,5.6202,5.6423,5.6679,5.7603,5.7774,5.7809,5.7774,5.5367,5.3387,5.3514,5.3542,5.3583,5.3714,5.3727,0.0,5.3904,5.3895,5.3913,5.4059,5.4037,5.3817,5.3207,5.3112,5.2543,5.1236,5.1126,5.0089,4.7895,4.7761,4.7063,4.5586,4.4108,4.3386,4.335,0.0,0.0,0.0,0.0,0.0,0.0,0.0,0.0,0.0,0.0,0.0,0.0,0.0,0.0,0.0,0.0,0.0,0.0,0.0,0.0,0.0,3.8975,3.9943,3.9752,4.0991,4.2264,4.3259,4.4619,4.5815,4.6586,4.7505,4.8605,4.9853,5.0591,5.1379,5.2349,5.3023,5.3841,5.475,5.5502,5.6245,5.6956,5.7778,5.8163,5.8163,5.8519,5.8678,5.8697,5.8833,5.893,5.8988,5.8988,5.907,5.926,5.9058,5.9089,5.9023,5.642,5.5519,5.5636,5.5636,5.565,5.561,5.5452,5.5481,5.5609,5.5676,5.5657,5.5657,5.5657,5.5737,5.5832,5.5832,5.6065,5.6333,5.6333,5.6507,5.6732,5.7004,5.7039,5.7124,5.7381,5.7431,5.7463,5.7573,5.6904,5.639,5.6556,5.6586,5.663,5.6758,5.6329,0.0,5.6191,5.5808,5.5571,5.5577,5.5174,5.4813,5.4651,5.3706,5.2935,5.2579,5.1634,5.0813,5.0198,4.913,4.7886,4.6412,4.5406,4.4918,0.0,0.0,0.0,0.0,0.0,0.0,0.0,0.0,0.0,0.0,0.0,0.0,0.0,0.0,0.0,0.0,0.0,0.0,0.0,0.0,0.0,0.0,4.0492,4.1762,4.3117,4.3601,4.4202,4.5326,4.6436,4.7548,4.8663,4.9416,5.0332,5.1496,5.2511,5.3394,5.4147,5.4984,5.5732,5.6474,5.7021,5.7529,5.7957,5.9114,5.9651,5.9651,6.0506,6.0907,6.0907,6.103,6.1132,0.0,6.1213,6.1167,6.1031,6.0729,6.053,0.0,0.0,0.0,0.0,0.0,5.7688,5.7741,5.7432,5.7192,5.7019,5.7103,5.693,5.6706,5.6789,5.6836,5.6918,5.6918,5.7226,5.7619,5.7931,5.8278,5.8606,5.9001,5.8828,5.8618,5.8718,5.8456,5.828,5.8341,5.8357,0.0,5.8596,5.8164,5.782,5.7912,5.754,5.7334,5.7447,5.7181,5.6858,5.6667,5.6288,5.5837,5.5263,5.445,0.0,0.0,0.0,5.1694,5.1126,4.9967,0.0,0.0,0.0,4.6468,4.6508,0.0,0.0,0.0,4.3286,4.3419,0.0,0.0,0.0,0.0,0.0,0.0,0.0,0.0,0.0,0.0,0.0,0.0,0.0,0.0,0.0,0.0,4.2093,4.3701,4.6211,4.593,4.597,4.7343,4.8126,4.9156,5.0736,5.1553,5.2305,5.3057,5.4365,5.5496,5.6215,0.0,0.0,0.0,0.0,5.8534,5.8698,6.0154,6.0884,6.0917,6.2514,6.3251,6.3251,6.3294,6.3401,6.3572,6.3572,6.3333,6.2853,6.2184,6.1656,6.1169,6.0391,6.0227,6.0328,5.9848,5.9682,5.9597,5.8863,0.0,0.0,5.7912,5.7518,5.7003,5.7188,5.7289,5.7289,5.7322,5.7771,5.8409,5.9064,5.9806,6.0531,6.1345,6.0999,6.0566,6.072,6.0233,5.9798,5.9814,5.9814,5.9881,5.9993,5.8911,5.8039,5.807,5.8,5.7976,5.8114,5.8038,5.7841,5.7433,0.0,0.0,5.5544,5.5299,5.496,5.434,5.3542,5.2543,5.1284,5.043,5.0064,5.0079,4.8762,4.8042,4.8042,4.6762,4.6494,4.716,4.6396,4.6122,0.0,0.0,0.0,0.0,0.0,0.0,0.0,0.0,0.0,0.0,0.0,0.0,0.0,0.0,0.0,4.1805,4.3933,4.576,4.6287,4.8134,4.9437,4.9534,5.0186,5.095,5.1831,5.3078,5.4148,5.4862,5.5706,5.6538,5.7272,5.7602,5.837,5.9696,5.9911,6.0531,6.1677,6.1983,6.2136,6.2169,0.0,0.0,6.299,6.3207,6.3315,6.3358,6.3358,6.3366,6.3424,6.3291,6.325,6.311,6.0941,6.0133,6.0137,6.0039,6.0118,6.0214,6.0078,6.0034,6.0043,6.008,5.9995,5.9929,6.0108,6.0196,0.0,6.0374,6.053,6.0668,6.084,6.0978,6.1116,6.129,6.1239,6.1135,6.117,6.1084,6.1016,6.1172,6.119,6.1294,6.1465,6.0326,5.9456,5.9634,5.9159,5.8773,5.8804,5.833,5.7978,5.7846,5.7517,5.7199,5.6922,5.5873,5.5134,5.5018,5.3813,5.2721,5.1958,5.126,5.0561,4.9945,4.9742,4.9662,4.9651,4.9433,4.9377,4.9496,4.767,4.7475,0.0,0.0,0.0,0.0,0.0,0.0,0.0,0.0,0.0,0.0,0.0,3.9037,4.0054,0.0,4.3121,4.3837,4.5497,4.7066,4.815,4.9585,5.0455,5.0311,5.1231,5.2293,5.3355,5.4127,5.4996,5.609,5.6937,5.7732,5.841,5.9015,5.9827,6.0921,6.1074,6.1444,6.2161,6.2664,6.2895,6.2927,6.3502,6.3801,6.3801,6.4079,6.4189,6.4189,6.4321,6.4199,6.3976,6.3717,6.3657,6.3617,6.2475,6.207,6.2156,6.1902,6.1864,6.1908,6.152,6.1238,6.1027,6.1068,6.0851,6.0582,6.08,6.0855,6.0891,6.0966,6.1056,6.1231,6.1644,6.1838,6.1979,6.2358,6.2151,6.191,6.191,6.1565,6.1307,6.1447,6.1465,6.1518,6.1727,6.1188,6.0679,6.0576,6.0323,6.0001,5.9615,5.9257,5.8948,5.8637,5.8401,5.8161,5.7931,5.6963,5.6062,5.5227,5.4544,5.3862,5.3177,5.2844,5.2366,5.1704,5.1376,5.1047,5.0716,5.0337,5.0576,5.1338,5.0277,4.9836,0.0,0.0,0.0,0.0,0.0,0.0,0.0,3.5529,3.6805,3.776,3.8968,4.0275,4.1788,4.3143,4.4417,4.5664,4.684,4.8193,4.9926,5.075,5.1219,5.1219,5.2269,5.3556,5.4995,5.525,5.5858,5.7223,5.8135,5.892,5.9595,6.0409,6.119,6.1892,6.1947,6.2012,6.2242,6.301,6.3515,6.3645,6.4453,6.4895,6.5059,6.5289,6.537,6.5229,6.5312,6.505,6.4553,6.413,6.3929,6.395,6.4197,6.4409,6.4518,6.389,6.3653,6.3586,6.3004,6.2448,6.196,6.2082,6.1679,6.1261,6.1468,6.1524,6.1524,6.1562,6.1692,6.194,6.2438,6.2742,6.2993,6.3441,6.3133,6.2721,6.2721,6.2186,6.1737,6.1737,6.1737,6.1825,6.1968,6.2021,6.1866,6.1302,6.1363,6.1198,6.0423,6.0317,6.0084,5.9436,5.9256,5.9022,5.8535,5.7911,5.6997,5.574,5.5384,5.496,5.4434,5.4281,5.4002,5.3639,5.3051,5.2473,5.1938,5.1321,5.1695,5.2951,5.3019,5.2431,3.0582,3.1737,3.3031,3.3733,3.4643,3.5561,0.0,3.7141,3.8341,4.026,4.0807,4.1494,4.3461,4.4492,4.5272,4.6034,4.7934,4.939,4.9661,5.1987,5.3693,5.3693,5.4157,5.5027,5.6519,5.7191,5.7862,5.8684,5.942,6.0124,6.0852,6.1026,6.1472,6.2412,6.2412,6.2851,6.3741,6.3885,6.4209,6.4825,6.5151,6.5651,6.6302,6.6517,6.6274,6.5689,6.5294,6.5191,6.5293,6.5216,6.5183,6.5205,6.5503,6.5612,6.5511,6.4564,6.4205,6.4246,6.4295,6.4309,6.4241,6.4262,6.4194,6.4187,6.4373,6.4432,6.4472,6.463,6.4708,6.4606,6.4025,6.4061,6.4042,6.3458,6.3401,6.348,6.348,6.3393,6.3324,6.3324,6.3324,6.3342,6.336,6.3523,6.3272,6.2158,6.1981,6.182,6.1249,6.116,6.0879,6.0068,5.9511,5.9022,5.8535,5.7797,5.7334,5.7311,5.599,5.5169,5.5076,5.4516,5.4164,5.4118,5.4273,5.4289,5.4242,5.4327,5.4472,5.4641,5.4629,5.4592,3.2375,3.3289,3.4334,3.5033,3.5905,3.6768,3.7428,3.864,3.9891,4.073,4.1966,4.3252,4.453,4.5622,4.6713,0.0,4.9133,5.0288,5.1101,5.2656,5.4006,5.4822,5.5417,5.6112,5.7004,5.7715,5.8414,5.9113,5.9952,6.0723,6.1448,6.1621,6.2036,6.2892,6.3309,6.3782,6.4392,6.4787,6.5215,6.5619,6.5739,6.595,6.6266,6.6507,6.6535,6.6406,6.6344,6.6374,6.6456,6.6626,6.643,6.6055,6.6145,6.5924,6.5492,6.4914,6.4715,6.4669,6.4495,6.4409,6.443,6.4573,6.4613,6.4634,6.4681,6.4722,6.4742,6.4822,6.4943,6.4954,6.4648,6.4703,6.4791,6.4463,6.4568,6.4721,6.4721,6.4835,6.4826,6.4324,6.422,6.4083,6.3669,6.3673,6.3594,6.3204,6.2945,6.2557,6.1855,6.1866,6.1652,6.0879,6.025,5.9631,5.8976,5.8781,5.8522,5.8132,5.7162,5.6611,5.6611,5.5866,5.5289,5.4903,5.502,5.4858,5.4489,5.4639,5.4965,5.5448,5.5485,5.6054,3.4488,3.5143,3.5785,3.6269,3.719,3.8053,3.8557,3.9923,4.1177,4.1463,4.293,4.4465,4.5421,4.6509,4.7751,4.9181,5.004,5.0985,5.2417,5.3396,5.4416,5.5624,5.6528,5.7199,5.7547,5.8104,5.8868,5.9823,6.0495,6.1217,6.1916,6.2308,6.2747,6.3395,6.4033,6.4565,6.4867,6.5356,6.5833,6.6298,6.6298,6.6444,6.6679,6.668,6.68,6.6983,6.6977,6.7029,6.7123,6.738,6.7176,6.6703,6.6771,6.6463,6.5978,6.578,6.5521,6.5194,6.4904,6.4787,6.4829,6.5057,6.5119,6.514,6.5202,6.5222,6.5222,6.5222,6.5291,6.54,6.5162,6.5269,6.5375,6.519,6.528,6.5436,6.548,6.565,6.5646,6.5117,6.5014,6.4772,6.4014,6.391,6.3897,6.3818,6.3621,6.3206,6.2506,6.2412,6.2124,6.1371,6.0922,6.0348,5.9604,5.9552,5.9328,5.8848,5.8217,5.7839,5.7882,5.7346,5.6817,5.6304,5.6358,5.6161,5.5679,5.5785,5.6186,5.674,5.6893,5.7572,3.6649,3.731,3.7617,3.7647,3.8733,3.9824,3.9854,4.0903,4.2131,4.3043,4.3784,4.476,4.6276,4.7116,4.804,4.9456,5.0418,5.1465,5.2861,5.4428,5.5686,5.6404,5.7651,5.8431,0.0,5.8702,5.9561,6.1189,6.134,6.1656,6.2326,6.3071,6.3576,6.3889,6.4525,6.5001,6.5283,6.5283,6.5817,6.6792,6.6792,6.7239,6.8104,6.7481,6.7305,6.7427,6.68,6.6626,6.684,6.71,6.7217,6.7208,6.7463,6.7556,6.7523,6.7523,6.6776,6.579,6.5964,6.605,6.6072,6.6375,6.644,6.6482,6.666,6.6724,6.6724,6.6724,6.6745,6.6576,6.5852,6.5827,6.582,6.5093,6.5062,6.526,6.5475,6.5534,6.5592,6.5822,6.5861,6.5619,6.4807,6.4669,6.4427,6.3722,6.3765,6.3724,6.331,6.2763,6.2124,6.1371,6.1265,6.103,6.0415,5.9655,5.9335,5.963,5.8899,5.853,5.8674,5.8638,5.8602,5.8617,5.8794,5.8878,5.8843,5.8995,5.9064,5.91,5.9227,5.9344,3.675,3.7747,3.8644,3.8644,3.9865,4.1096,4.1096,4.1873,4.2823,4.3548,4.4287,4.5189,4.662,4.7507,4.8498,4.9898,5.086,5.1946,5.3304,5.436,5.5209,5.5882,5.7181,0.0,0.0,0.0,0.0,6.0832,6.1444,6.211,6.2833,6.3262,6.376,6.4279,6.5001,6.5478,6.5759,6.6211,6.669,6.7196,6.7399,6.7723,6.8201,6.7974,6.7895,6.7962,6.7907,6.7932,6.8006,6.8273,6.8194,6.7932,6.8027,6.788,6.7589,6.7589,6.7337,6.6953,6.6724,6.6312,6.5933,6.6172,6.6345,6.6507,6.6592,6.6686,6.6791,6.6791,6.6791,6.6724,6.6508,6.6482,6.6456,6.624,6.6337,6.6555,6.6602,6.6724,6.6748,6.6505,6.6441,6.6239,6.5581,6.5516,6.524,6.4462,6.4076,6.3915,6.4026,6.3431,6.2956,6.2845,6.1897,6.1211,6.0995,6.0403,6.0054,6.0163,5.9632,5.9304,5.9363,5.8952,5.8709,5.8709,5.8766,5.8795,5.8795,5.8986,5.9056,5.9056,5.9208,5.9542,3.7691,3.8697,3.9672,3.9672,4.0766,4.182,4.182,4.2483,4.332,4.4013,4.4719,4.5607,4.679,4.7857,4.8907,5.0005,5.09,5.2044,5.373,5.4313,5.4974,5.5961,5.7309,5.84,0.0,0.0,0.0,6.0933,6.1734,6.248,6.3084,6.3734,6.4303,6.4879,6.5574,6.6026,6.6208,6.6627,6.7005,6.7265,6.7619,6.7899,6.805,6.8151,6.8201,6.8201,6.8376,6.8451,6.8476,6.8748,6.8707,6.8426,6.8618,6.8522,6.8267,6.836,6.8218,6.791,6.7341,6.6844,6.649,6.6734,6.6743,6.6673,6.6846,6.6794,6.6707,6.677,6.6791,6.6791,6.6791,6.6791,6.6791,6.6791,6.6917,6.7077,6.718,6.7304,6.7318,6.7122,6.7078,6.6917,6.6374,6.6068,6.5619,6.4807,6.4417,6.4241,6.4322,6.3956,6.3658,6.3601,6.2705,6.2003,6.1722,6.1098,6.0755,6.0768,6.028,5.9987,6.0107,5.9662,5.9486,5.9544,5.9544,5.9544,5.9544,5.9681,5.976,5.9774,5.988,6.0238,3.9349,4.0109,4.0724,4.0724,4.139,4.204,4.204,4.2684,4.3529,4.4419,4.5192,4.5937,4.6849,4.8074,4.9218,4.9885,5.0553,5.179,5.4056,5.4378,5.4969,0.0,0.0,0.0,0.0,0.0,0.0,6.1568,0.0,6.2751,6.3158,6.4408,6.5261,6.5638,6.6243,6.6591,6.6617,6.6617,6.6717,6.7005,6.7516,6.7772,6.7797,6.8075,6.8201,6.8201,6.8201,6.8201,6.8226,6.8476,6.86,6.8649,6.9164,6.9358,6.943,6.9703,6.9368,6.8639,6.7953,6.7655,6.7635,6.7897,6.7522,6.7035,6.7477,6.7158,6.6629,6.6842,6.6905,6.6893,6.6859,6.6859,6.6859,6.6791,6.6791,6.6854,6.7118,6.718,6.7304,6.7699,6.7799,6.7639,6.7113,6.6447,6.5688,6.4945,6.4738,6.4558,6.4231,6.4305,6.4218,6.3689,6.3618,6.3267,6.2546,6.1792,6.1401,6.1546,6.0873,6.0572,6.0823,6.0818,6.0893,6.1078,6.1093,6.1093,6.1093,6.1093,6.1093,6.1093,6.1241,6.1299,3.9722,4.0558,4.1213,4.1213,4.1871,4.2503,4.2503,4.2812,4.3408,4.4661,4.5164,4.5788,4.698,4.8032,4.8895,4.9581,5.0433,5.1721,5.3797,5.4094,5.4635,5.6048,0.0,5.8486,5.8486,5.9891,0.0,0.0,6.211,6.2824,6.3929,6.4488,6.5164,6.6016,6.6205,6.6406,6.6617,6.6617,6.6717,6.7005,6.7135,6.7388,6.7797,6.7873,6.8,6.8201,6.8201,6.8201,6.8201,6.8276,6.8426,6.8625,6.8748,6.9042,6.9406,6.9454,6.9499,6.95,6.9301,6.8539,6.7589,6.7691,6.7719,6.7734,6.7847,6.787,6.788,6.8122,6.8222,6.813,6.7717,6.7624,6.7489,6.6927,6.6791,6.6812,6.6875,6.6896,6.698,6.7304,6.7577,6.7811,6.7822,6.7206,6.6654,6.6428,6.5428,6.4521,6.4033,6.4127,6.4218,6.4201,6.3865,6.3512,6.3302,6.2581,6.2124,6.2174,6.1584,6.1258,6.1317,6.1,6.0798,6.0878,6.1034,6.1093,6.1093,6.1093,6.1093,6.1093,6.1138,6.1152,4.02,4.1038,4.1694,4.1694,4.214,4.2576,4.2576,4.2729,4.3186,4.4193,4.4805,4.5508,4.6552,4.7682,4.8675,4.9366,5.014,5.14,5.3512,5.3808,5.4371,5.5827,5.7339,0.0,5.8385,5.9737,6.1063,0.0,6.2373,6.3026,6.4212,6.4715,6.5303,6.5974,6.6112,6.6326,6.6617,6.6617,6.6696,6.6822,6.6953,6.7161,6.7439,6.7695,6.7873,6.8025,0.0,6.8201,6.8201,6.8201,6.8301,6.8426,6.855,6.8797,6.9067,6.931,6.9511,6.9655,6.9774,6.9268,6.8572,6.8572,6.8467,6.834,6.8465,6.8346,6.8204,6.8451,6.8606,6.8649,6.8343,6.835,6.8335,6.7929,6.7557,6.7286,6.7286,6.7049,6.6875,6.7139,6.7516,6.7839,6.7959,6.7679,6.7359,6.7049,6.6255,6.5362,6.4369,6.4137,6.4162,6.4376,6.4148,6.3989,6.4057,6.3372,6.2932,6.2932,6.2277,6.192,6.2036,6.1451,6.1198,6.13,6.1086,6.1019,6.1093,6.1093,6.1272,6.1628,6.1628,6.1807,4.0703,4.1472,4.2071,4.2092,4.2236,4.2351,4.2351,4.2535,4.2874,4.3514,4.427,4.509,4.5875,4.7098,4.8245,4.9037,4.9673,5.0827,5.2984,5.3453,5.4122,5.5582,5.7051,5.8029,5.8258,5.9556,6.1033,6.2622,6.2798,6.3271,6.4313,6.4932,6.5378,6.5646,6.6032,6.6299,6.6565,6.6591,6.6617,6.6617,6.6822,6.6979,6.7005,6.7465,6.7721,6.7797,6.805,0.0,6.8201,6.8201,6.8201,6.8226,6.8451,6.8575,6.8649,6.9116,6.9334,6.943,6.9679,6.9774,6.9798,6.9798,6.9391,6.8884,6.9104,6.8741,6.8255,6.8505,6.873,6.8909,6.8874,6.9017,6.9171,6.9091,6.8571,6.8064,6.8064,6.7489,6.7011,6.7173,6.7489,6.7739,6.7799,6.7925,6.7857,6.7221,6.7068,6.6497,6.5186,6.4456,6.4123,6.4358,6.4376,6.4463,6.4672,6.4109,6.3758,6.3758,6.3002,6.2647,6.2831,6.2056,6.1777,6.2091,6.1427,6.1214,6.1385,6.1399,6.1771,6.2464,6.2464,6.2786,4.1159,4.1657,4.1806,4.2051,4.2133,4.2154,4.2154,4.229,4.2629,4.3315,4.3687,4.4338,4.5743,4.6215,4.6845,4.8245,4.9037,4.9965,5.1396,5.2558,5.3571,5.4405,5.6374,5.7699,5.7721,5.9349,0.0,0.0,6.2691,6.3379,6.4724,6.4909,6.5108,6.5378,6.5924,6.6219,6.6246,6.6485,6.6617,6.6617,6.667,6.677,6.7005,6.7109,6.7362,6.7797,6.7848,0.0,6.8201,6.8201,6.8201,6.8201,6.8251,6.8401,6.8625,6.8699,6.9018,6.9406,6.943,6.9631,6.9798,6.9798,6.9699,6.9623,6.9647,6.9604,6.9552,6.981,6.9903,6.9908,6.9659,6.9648,6.958,6.9204,6.8977,6.8876,6.8876,6.8267,6.762,6.7275,6.7243,6.7428,6.7739,6.7839,6.7885,6.7891,6.7394,6.6876,6.6635,6.5563,6.4659,6.4285,6.434,6.4463,6.4672,6.4583,6.4513,6.4513,6.3793,6.3389,6.3422,6.2817,6.2508,6.2557,6.2703,6.2789,6.2855,6.2959,6.3056,6.3214,6.3214,6.3285,4.0962,4.1506,4.1723,4.1877,4.2009,4.2092,4.2092,4.2175,4.2344,4.2657,4.3165,4.3763,4.4508,4.5263,4.6213,4.7412,4.844,4.9589,5.0996,5.2336,5.3468,5.4132,5.6055,5.7411,5.7596,5.9009,6.0609,6.2272,6.253,6.3248,6.4826,6.4888,6.5026,6.5297,6.5569,6.5897,6.6192,6.6326,6.6459,6.6617,6.6617,6.667,6.6796,6.6927,6.7135,6.7388,6.767,0.0,6.8,6.8151,6.8201,6.8201,6.8201,6.8276,6.8401,6.855,6.8773,6.9018,6.9285,6.9478,6.9631,6.9751,6.9798,6.9798,6.9798,6.9798,6.9822,6.9964,7.0082,7.018,7.0044,7.0196,7.0333,7.0074,6.987,6.9553,6.918,6.847,6.7815,6.7603,6.7369,6.7263,6.7469,6.7658,6.7839,6.7939,6.7748,6.7428,6.7049,6.6436,6.567,6.473,6.4407,6.4358,6.4533,6.4637,6.4689,6.4689,6.4373,6.4179,6.4179,6.3526,6.3187,6.327,6.3061,6.2978,6.3057,6.3195,6.3503,6.391,6.3988,6.4269,4.0498,4.1211,4.164,4.1702,4.1897,4.2092,4.2092,4.2092,4.2092,4.2092,4.2636,4.3161,4.337,4.4435,4.5628,4.6547,4.7941,4.931,5.0544,5.2163,5.3408,5.3922,5.5837,5.7198,5.7462,5.8719,0.0,6.2056,6.2585,6.3418,6.4826,6.4888,6.4998,6.5187,6.5269,6.5542,6.6085,6.6139,6.6326,6.6617,6.6617,6.6617,6.6617,6.6822,6.6953,6.7031,6.7439,0.0,0.0,6.8025,6.8151,6.8201,6.8201,6.8201,6.8226,6.8426,6.855,6.8674,6.9067,6.9285,6.943,6.9655,6.9751,6.9798,6.9798,6.9798,6.9798,6.9798,6.9941,7.0106,7.0209,7.0502,7.0848,7.0961,7.0704,7.0229,6.9485,6.8842,6.8301,6.7963,6.7603,6.7343,6.7214,6.751,6.7759,6.7799,6.7979,6.7876,6.729,6.7103,6.6589,6.5531,6.4799,6.439,6.4411,6.455,6.4654,6.4689,6.4689,6.4689,6.4689,6.4144,6.3896,6.3979,6.3465,6.3246,6.336,6.3554,6.3969,6.4589,6.4701,6.5102,3.9947,4.0772,4.148,4.166,4.1897,4.2092,4.2092,4.2092,4.2092,4.2092,4.2171,4.2457,4.324,4.3956,4.4694,4.5599,4.7503,4.8967,4.9109,5.147,5.3228,5.3288,5.5538,5.712,5.7146,5.8587,6.0072,6.1481,6.3219,6.4429,6.4888,6.4888,6.4915,6.4943,6.516,6.546,6.5727,6.6059,6.6326,6.6617,6.6617,6.6617,6.6617,6.6644,6.677,6.7005,6.7057,0.0,0.0,6.7823,6.7975,6.8201,6.8201,6.8201,6.8201,6.8226,6.8401,6.86,6.8649,6.8994,6.9382,6.9406,6.9607,6.9798,6.9798,6.9798,6.9798,6.9798,6.9822,6.9893,7.0129,7.0386,7.0654,7.1154,7.1222,7.1007,7.0263,7.0048,6.9553,6.8166,6.7882,6.7697,6.7296,6.7387,6.7577,6.7779,6.7979,6.8083,6.8014,6.7394,6.6965,6.6846,6.5686,6.4784,6.4428,6.4411,6.4533,6.4672,6.4689,6.4689,6.4689,6.4619,6.4583,6.4601,6.4718,6.4784,6.4819,6.502,6.5138,6.5226,6.5226,6.5344,3.9181,3.9733,4.0109,4.0327,4.0559,4.0741,4.0882,4.0902,4.0902,4.0902,4.1221,4.161,4.1945,4.2848,4.3786,4.4664,4.6234,4.7709,4.8743,5.0934,5.261,5.3144,5.5534,5.7094,5.7094,5.8428,5.9883,6.1398,6.3285,6.4437,6.4579,6.4805,6.4888,6.4888,6.4998,6.5187,6.546,6.5758,6.6054,6.6352,6.6538,6.6617,6.6617,6.6617,6.667,6.677,6.6927,0.0,0.0,6.7721,6.7949,6.8201,6.8201,6.8201,6.8201,6.8201,6.8276,6.8376,6.855,6.8847,6.9188,6.9334,6.9583,6.9798,6.9798,6.9798,6.9798,6.9798,6.9798,6.9822,6.9941,7.0246,7.0584,7.0961,7.1199,7.1222,7.0939,7.05,7.0014,6.9383,6.8538,6.7849,6.765,6.7432,6.7387,6.7577,6.7799,6.7945,6.8064,6.7842,6.7497,6.7049,6.5805,6.4934,6.4751,6.4532,6.4428,6.4498,6.4637,6.4689,6.4689,6.4689,6.4689,6.4689,6.4775,6.4809,6.4809,6.5031,6.5132,6.5132,6.5249,6.5332,3.8488,3.8883,3.9228,3.9389,3.9631,3.9821,3.998,4.0079,4.0089,4.0089,4.0641,4.1105,4.1105,4.2121,4.3288,4.4078,4.5383,4.6872,4.857,5.0585,5.2215,5.3114,5.5534,5.7094,5.7094,5.868,6.0196,6.1401,6.3232,6.4328,6.4382,6.4721,6.4888,6.4888,6.4888,6.5026,6.5297,6.5515,6.5785,6.6192,6.6379,6.6538,6.6617,6.6617,6.6617,6.6617,6.6796,0.0,0.0,6.7568,6.7848,6.8101,6.8176,6.8201,6.8201,6.8201,6.8201,6.8226,6.8426,6.8674,6.892,6.9188,6.9454,6.9703,6.9774,6.9798,6.9798,6.9798,6.9798,6.9822,6.9893,7.0176,7.0469,7.0825,7.103,7.1222,7.1289,7.0906,7.0466,7.0229,6.9316,6.8436,6.7963,6.7679,6.7515,6.7421,6.7618,6.7859,6.7984,6.8044,6.7911,6.7359,6.6267,6.5428,6.5033,6.4544,6.427,6.4393,6.455,6.4637,6.4689,6.4689,6.4689,6.4689,6.4689,6.4689,6.4689,6.4826,6.4894,6.4894,6.5065,6.5166,3.7906,3.8545,3.9187,3.9187,3.951,3.9781,3.9781,3.996,4.0089,4.0089,4.0641,4.1105,4.1105,4.2121,4.3224,4.3892,4.5303,4.6857,4.8394,5.049,5.2215,5.3114,5.5534,5.7094,5.7094,5.9518,6.1186,6.1491,6.3036,0.0,6.4382,6.4721,6.4888,6.4888,6.4888,6.5026,6.5297,6.5297,6.5627,6.6192,6.6192,6.6326,6.6617,6.6617,6.6617,6.6617,0.0,0.0,0.0,6.7317,6.7542,6.7823,6.8101,6.8201,6.8201,6.8201,6.8201,6.8201,6.8201,6.8376,6.8649,6.892,6.9188,6.943,6.9727,6.9798,6.9798,6.9798,6.9798,6.9869,7.0106,7.0176,7.0316,7.0779,7.0893,7.0984,7.1244,7.1289,7.1052,7.0331,7.0184,6.971,6.8166,6.812,6.8051,6.7303,6.7536,6.7799,6.7799,6.7999,6.8083,6.8083,6.7428,6.6436,6.5103,6.4325,6.4055,6.4376,6.4393,6.448,6.4689,6.4689,6.4689,6.4689,6.4689,6.4689,6.4689,6.4689,6.4689,6.4689,6.4689,6.4792,3.7167,3.7487,3.7707,3.7873,3.801,3.8157,3.8438,3.8553,3.8621,3.8774,3.9334,3.9915,4.035,4.1105,4.2208,4.3747,4.4414,4.5565,4.7978,4.9846,5.1445,5.2762,5.5406,5.7453,5.8381,6.0086,6.1132,6.1216,6.2757,6.3823,6.4104,6.4412,6.4663,6.4888,6.4888,6.4943,6.5026,6.5187,6.5487,6.5866,6.6085,6.6326,6.6617,6.6617,6.6617,0.0,0.0,0.0,0.0,6.7109,6.7388,6.7797,6.7899,6.805,6.8201,6.8201,6.8201,6.8201,6.8201,6.8376,6.8625,6.8699,6.9018,6.9439,6.9478,6.9655,6.9798,6.9798,6.9798,6.9822,6.9917,7.0059,7.0256,7.0386,7.0664,7.0916,7.1007,7.1176,7.1222,7.1007,7.0534,6.9857,6.8876,6.8331,6.7828,6.7262,6.7428,6.7638,6.7779,6.7999,6.8083,6.8083,6.7428,6.6639,6.5695,6.5012,6.4483,6.409,6.4287,6.4428,6.448,6.462,6.4689,6.4689,6.4689,6.4689,6.4689,6.4689,6.4689,6.4689,6.4689,6.4723,3.6436,3.6661,3.6755,3.7097,3.7231,3.7394,3.772,3.7853,3.7967,3.8146,3.8899,3.9654,4.0031,4.0844,4.2034,4.3739,4.3979,4.4989,4.7781,4.9433,5.1321,5.3975,5.5952,5.7633,5.8979,6.0326,6.1076,6.1076,6.2587,6.3652,6.3993,6.4272,6.4552,6.4888,6.4888,6.4888,6.4888,6.5081,6.5269,6.5538,6.5866,6.6192,6.6459,6.6565,6.6617,0.0,0.0,0.0,0.0,6.6953,6.7265,6.7644,6.7746,6.7975,6.8201,6.8201,6.8201,6.8201,6.8201,6.8301,6.8476,6.8575,6.8969,6.9382,6.9382,6.9607,6.9798,6.9798,6.9798,6.9798,6.9798,6.9917,7.0059,7.0186,7.041,7.0687,7.0848,7.103,7.1199,7.1289,7.0939,7.0364,6.962,6.8876,6.8141,6.7544,6.7413,6.7469,6.7658,6.7859,6.8039,6.8083,6.7669,6.7137,6.6378,6.5437,6.4736,6.4359,6.4248,6.427,6.4393,6.4533,6.462,6.4689,6.4689,6.4689,6.4689,6.4689,6.4689,6.4689,6.4689,6.4689,0.0,3.5986,3.6202,3.6801,3.7078,3.728,3.7519,3.7739,0.0,3.8127,3.917,4.0031,4.0089,4.1192,4.2498,4.3776,4.4066,4.5083,4.781,4.9379,5.1856,5.6176,5.6937,5.7633,5.8979,6.0326,6.1076,6.1076,6.2587,6.3624,6.3965,6.4216,6.4524,6.486,6.4888,6.4888,6.4888,6.4888,6.5026,6.5297,6.5538,6.5866,6.6224,6.6459,6.6591,0.0,0.0,0.0,0.0,6.6875,6.7135,6.7388,6.767,6.7924,6.8176,6.8201,6.8201,6.8201,6.8201,6.8201,6.8251,6.8526,6.8945,6.9334,6.9382,6.9607,6.9798,6.9798,6.9798,6.9798,6.9798,6.9798,6.9869,7.0106,7.0209,7.0316,7.0756,7.087,7.0961,7.1222,7.1289,7.1075,7.0331,6.9586,6.8842,6.803,6.751,6.7263,6.7469,6.7658,6.7879,6.8044,6.8083,6.7807,6.7137,6.5704,6.4916,6.498,6.4359,6.4072,6.4341,6.4376,6.4498,6.4672,6.4689,6.4689,6.4689,6.4689,6.4724,6.4794,6.4794,6.4794,3.4431,0.0,3.5555,3.6174,3.6333,3.657,0.0,3.7529,3.7739,3.7929,3.8755,3.9538,4.0002,4.1192,4.2498,4.3776,4.4843,4.6005,4.7643,5.0188,5.3057,5.6321,5.6937,5.7633,5.8979,6.0326,6.1076,6.1076,6.2388,6.3338,6.3624,6.3936,6.4216,6.4524,6.4777,6.4888,6.4888,6.4888,6.5026,6.5297,6.5378,6.5677,6.6192,6.6246,6.6406,0.0,0.0,0.0,6.6586,6.667,6.6849,6.7135,6.7394,6.7644,6.7924,6.8126,6.8201,6.8201,6.8201,6.8201,6.8251,6.8526,6.8699,6.8871,6.9261,6.9607,6.9798,6.9798,6.9798,6.9798,6.9798,6.9798,6.9822,6.9893,7.0035,7.0223,7.034,7.0641,7.0916,7.0984,7.1176,7.1075,7.0331,6.9586,6.8842,6.803,6.751,6.7201,6.7263,6.7577,6.7819,6.7879,6.7984,6.8014,6.7842,6.698,6.5964,6.4829,6.477,6.4534,6.4054,6.4162,6.4305,6.4463,6.462,6.4689,6.4689,6.4689,6.5022,6.5636,6.5636,6.5935,3.3599,3.4235,3.4974,3.5873,3.6117,3.6296,3.7137,3.7394,3.7567,3.7834,3.8755,3.9594,4.0011,4.1424,4.2847,4.3855,4.5053,4.6673,4.8822,5.091,5.331,5.6166,5.6753,5.7501,0.0,6.0027,6.0775,6.1104,6.2061,6.2893,6.348,6.3823,6.4104,6.4382,6.4749,6.4888,6.4888,6.4888,6.497,6.5136,6.5242,6.5542,6.5974,6.6139,6.6352,0.0,0.0,0.0,6.6617,6.6617,6.6744,6.7005,6.7161,6.7471,6.7823,6.7949,6.8101,6.8201,6.8201,6.8201,6.8226,6.8376,6.8501,6.8649,6.8945,6.931,6.9655,6.9774,6.9798,6.9798,6.9798,6.9798,6.9798,6.9798,6.9917,7.0035,7.0153,7.0479,7.0756,7.087,7.1131,7.1154,7.077,6.9823,6.8944,6.8504,6.7629,6.7056,6.718,6.7387,6.7577,6.7779,6.7899,6.8019,6.8083,6.7738,6.698,6.5842,6.5522,6.5271,6.493,6.4677,6.4702,6.4953,6.5041,6.5321,6.5742,6.5742,6.6005,6.6391,6.6391,6.6602,3.314,3.3655,3.4375,3.5648,3.5977,3.6183,3.707,3.7269,3.7413,3.7892,3.8956,3.9919,4.034,4.1889,4.3398,4.4153,4.5518,4.7491,5.0448,5.1604,5.3173,5.5984,5.6545,0.0,5.8952,5.9697,6.0386,6.1074,6.1732,6.2505,6.3364,6.3766,6.4047,6.4326,6.4635,6.486,6.4888,6.4888,6.4888,6.4888,6.5105,6.5378,6.5646,6.5974,6.6272,6.6538,0.0,0.0,6.6617,6.6617,6.6717,6.6927,6.6979,6.7291,6.767,6.7772,6.7949,6.8151,6.8201,6.8201,6.8201,6.8201,6.8351,6.855,6.86,6.892,6.9334,6.9655,6.9774,6.9798,6.9798,6.9798,6.9798,6.9798,6.9798,6.9869,7.0082,7.0316,7.0515,7.0802,7.1086,7.1244,7.1289,7.0161,6.9214,6.9113,6.7895,6.7011,6.7118,6.716,6.7346,6.7719,6.7779,6.7899,6.8064,6.8083,6.7807,6.7206,6.6482,6.6056,6.6069,6.5484,6.5338,6.5649,6.5703,6.6125,6.6935,6.6935,6.7023,6.7181,6.7181,6.7269,3.314,3.3364,3.3729,3.502,3.533,3.5658,3.6784,3.7173,3.7536,3.833,3.9194,4.0207,4.1529,4.2905,4.4211,4.5424,4.7579,4.9673,5.1265,5.2249,5.37,5.6016,0.0,5.7342,5.8952,5.9697,6.0386,6.1074,6.1732,6.2419,6.3135,6.3424,6.3738,6.4078,6.4328,6.4607,6.4888,6.4888,6.4888,6.4888,6.4943,6.5108,6.5378,6.5646,6.5947,6.6272,0.0,6.6617,6.6617,6.6617,6.6612,6.6665,6.6901,6.7057,6.7187,6.7619,6.7823,6.7899,6.8126,6.8201,6.8201,6.8201,6.8226,6.8301,6.8526,6.8674,6.8822,6.931,6.9598,6.9798,6.9798,6.9798,6.9798,6.9798,6.9798,6.9822,6.9846,7.0059,7.0316,7.0515,7.0779,7.103,7.1267,7.0601,6.9823,6.918,6.8335,6.7523,6.6956,6.7056,6.7284,6.7496,6.7699,6.7899,6.8064,6.8083,6.8049,6.7945,6.7221,6.6551,6.5968,6.5928,6.5971,6.6027,6.6195,6.6432,6.6772,6.6772,6.7159,6.8023,6.8023,6.8392,3.3055,3.3561,3.401,3.4964,3.5189,3.5527,3.6717,3.731,3.7766,3.8266,3.9339,4.0535,4.1683,4.3045,4.464,4.6614,4.8508,5.0138,5.1414,5.2558,5.3964,0.0,0.0,5.7517,5.8765,5.9287,5.9997,6.1044,6.1403,6.2002,6.3048,6.3367,6.3652,6.3993,6.4272,6.4552,6.4888,6.4888,6.4888,6.4888,6.4888,6.5053,6.5297,6.5565,6.5893,6.6192,0.0,6.6617,6.6617,6.6617,6.6617,6.6617,6.6749,6.6875,6.7057,6.7593,6.7899,6.8025,6.8151,6.8201,6.8201,6.8201,6.8201,6.8226,6.8351,6.8501,6.8674,6.9067,6.9358,6.9631,6.9774,6.9798,6.9798,6.9798,6.9798,6.9798,6.9798,7.0011,7.0223,7.0316,7.0641,7.0939,7.1052,7.058,6.9947,6.9214,6.8402,6.7624,6.6893,6.6896,6.7077,6.7304,6.7496,6.7719,6.7939,6.8024,6.8083,6.8083,6.7773,6.7256,6.6516,6.6539,6.6654,6.6768,6.6844,6.7168,6.7792,6.7938,6.8224,6.8702,6.8812,6.9043,3.2971,3.374,3.4375,3.5048,3.5302,3.5723,3.6942,3.7569,3.805,3.8532,3.9768,4.0993,4.1969,4.3647,4.5627,4.7892,4.932,5.0544,5.1646,5.2949,5.4274,5.5733,5.6736,5.7683,5.8634,5.8936,5.9608,6.0775,6.1014,6.1613,6.2808,6.3219,6.3567,6.388,6.416,6.4468,6.4777,6.486,6.4888,6.4888,6.4888,6.4998,6.5214,6.5483,6.5785,6.6112,6.6379,6.6538,6.6617,6.6617,6.6617,6.6617,6.6617,6.6744,6.7057,6.7516,6.7873,6.8126,6.8176,6.8201,6.8201,6.8201,6.8201,6.8201,6.8201,6.8351,6.855,6.8822,6.9091,6.9358,6.9727,6.9798,6.9798,6.9798,6.9798,6.9798,6.9798,6.9964,7.0106,7.0209,7.0526,7.0825,7.0893,7.0648,7.0161,6.9248,6.8571,6.7861,6.6927,6.6791,6.6896,6.716,6.7346,6.7516,6.7779,6.7965,6.8083,6.8083,6.8083,6.7842,6.7256,6.7256,6.7333,6.7473,6.7507,6.7846,6.8628,6.8835,6.8948,6.8986,6.9227,6.932,3.2971,3.374,3.4375,3.5048,3.5611,3.6351,3.754,3.7878,3.8303,3.9692,4.0686,4.1766,4.3207,4.5702,4.7979,4.9345,5.0627,5.173,5.2423,0.0,5.4798,5.5791,5.6736,5.7683,5.8634,5.8936,5.9398,6.0116,6.0745,6.1433,6.2121,6.2778,6.3252,6.3538,6.388,6.416,6.441,6.4749,6.4888,6.4888,6.4888,6.4915,6.4943,6.5187,6.5487,6.5754,6.6085,6.6379,6.6617,6.6617,6.6617,6.6617,6.6617,6.6744,6.7031,6.7343,6.7593,6.7873,6.8126,6.8201,6.8201,6.8201,6.8201,6.8201,6.8201,6.8226,6.8276,6.855,6.8822,6.914,6.9679,6.9798,6.9798,6.9798,6.9798,6.9798,6.9798,6.9822,6.9893,7.0129,7.0386,7.0608,7.087,7.1064,7.0714,6.9316,6.9045,6.847,6.6994,6.6791,6.6896,6.716,6.7201,6.7387,6.7759,6.7965,6.8083,6.8083,6.8083,6.8083,6.8014,6.8014,6.8034,6.8034,6.8034,6.8187,6.8416,6.8435,6.8551,6.8743,6.8986,6.9115,3.2971,3.4056,3.4889,3.5133,3.623,3.7344,3.7793,3.8496,3.9352,4.0287,4.1178,4.2395,4.44,4.6749,4.8653,4.9548,5.0772,5.1846,5.251,5.4023,5.5182,5.555,5.6786,5.7822,5.8333,5.8664,5.9208,6.0027,6.0326,6.0775,6.1433,6.2121,6.2593,6.2875,6.3609,6.4132,6.4382,6.4749,6.4888,6.4888,6.4888,6.4888,6.4888,6.516,6.546,6.5727,6.6059,6.6352,6.6617,6.6617,6.6617,6.6617,6.6617,6.6744,6.7031,6.7317,6.7568,6.7848,6.8101,6.8201,6.8201,6.8201,6.8201,6.8201,6.8201,6.8201,6.8251,6.8526,6.8797,6.9091,6.9463,6.9679,6.9798,6.9798,6.9798,6.9798,6.9798,6.9798,6.9822,6.9941,7.0153,7.0386,7.0608,7.087,7.076,6.9903,6.9383,6.8707,6.7624,6.7083,6.6833,6.6917,6.7097,6.7366,6.7759,6.7879,6.7979,6.8083,6.8083,6.8083,6.8083,6.8083,6.8083,6.8083,6.8083,6.8123,6.8201,6.8338,6.8435,6.8532,6.8724,6.893,3.3196,3.4365,3.5273,3.5667,3.6998,3.8319,3.8693,3.9451,4.0238,4.0856,4.1981,4.3594,4.5959,4.7778,4.9199,5.0162,5.1207,5.2223,5.3091,5.4458,5.5474,5.5707,5.6942,5.792,5.8167,5.85,5.9009,5.973,5.9994,6.0296,6.0775,6.1433,6.1847,6.2072,6.2917,6.3467,6.3632,6.4049,6.4241,6.4241,6.4241,6.4364,6.4549,6.4494,6.4727,6.5103,6.5321,6.5612,6.5954,6.5954,6.608,6.627,6.627,6.6527,6.6901,6.7187,6.7439,6.7695,6.7975,6.8126,6.8201,6.8201,6.8201,6.8201,6.8201,6.8201,6.8251,6.8426,6.8674,6.8945,6.9188,6.9559,6.9798,6.9798,6.9798,6.9798,6.9798,6.9798,6.9798,6.9798,7.0011,7.027,7.0469,7.0733,7.0748,7.0275,6.9553,6.8808,6.7996,6.7252,6.6791,6.6791,6.7056,6.7304,6.7577,6.7719,6.7859,6.8019,6.8044,6.8083,6.8083,6.8083,6.8083,6.8083,6.8083,6.8083,6.8083,6.8241,6.8299,6.8299,6.8513,6.8863,3.3712,3.4674,3.5498,3.6689,3.7954,3.9219,4.0407,4.0688,4.0884,4.1481,4.3336,4.5528,4.786,4.8849,0.0,5.1335,5.2165,5.3033,5.4342,5.5039,5.5649,5.6316,5.7234,5.792,5.8167,5.85,5.883,5.9072,5.9697,6.0114,6.0114,6.0745,6.1076,6.1076,6.1687,6.1989,6.1989,6.253,6.2798,6.2798,6.2768,6.3137,6.3752,6.3106,6.3119,6.3704,6.3704,6.4016,6.4506,6.4506,6.4942,6.56,6.56,6.6011,6.6612,6.6901,6.7155,6.7414,6.7695,6.7975,6.8201,6.8201,6.8201,6.8201,6.8201,6.8201,6.8201,6.8201,6.8401,6.8674,6.892,6.9415,6.9798,6.9798,6.9798,6.9798,6.9798,6.9798,6.9798,6.9798,7.0011,7.0246,7.0446,7.0733,7.0748,7.0275,6.9586,6.8808,6.7996,6.7252,6.6791,6.6791,6.7056,6.718,6.718,6.7557,6.7799,6.7799,6.7999,6.8083,6.8083,6.8083,6.8083,6.8083,6.8083,6.8083,6.8083,6.8083,6.8083,6.8118,6.8334,6.8964,3.3712,3.4674,3.5498,3.6689,3.7954,3.9219,4.0407,4.1025,4.1761,4.325,4.4941,4.6622,4.8165,4.9312,0.0,5.1715,5.2297,5.3033,5.4342,5.5039,5.5649,5.6316,5.7039,5.7556,5.7892,5.8197,5.8472,5.8773,5.917,5.9398,5.9398,6.0027,6.0386,6.0386,6.1223,6.174,6.1989,6.234,6.2637,6.2798,6.2306,6.2429,6.3075,6.2891,6.3039,6.3441,6.3625,6.3912,6.4243,6.4398,6.4626,6.4848,6.4848,6.5258,6.5943,6.6196,6.6741,6.7414,6.7695,6.7975,6.8201,6.8201,6.8201,6.8201,6.8201,6.8201,6.8201,6.8201,6.8401,6.8674,6.892,6.9261,6.9583,6.9774,6.9798,6.9798,6.9798,6.9798,6.9798,6.9798,6.9869,7.0059,7.0423,7.0561,7.0678,7.094,7.0331,6.9383,6.8064,6.7252,6.6791,6.6791,6.6854,6.7014,6.718,6.7448,6.7638,6.7799,6.7999,6.8083,6.8083,6.8083,6.8083,6.8083,6.8083,6.8083,6.8083,6.8083,6.8394,6.8966,6.9025,6.9545,3.4028,3.4889,3.5611,3.7327,3.8319,3.9331,4.1053,4.2121,4.3188,4.4818,4.6087,4.7306,4.8623,4.9741,0.0,5.1929,5.2593,5.3384,5.4691,5.5184,5.5736,5.6665,5.7071,5.7416,5.7781,5.8059,5.8362,5.8694,5.8936,5.9099,5.9099,5.9488,5.9697,5.9697,6.0331,6.0871,6.12,6.1466,6.176,6.2025,6.1594,6.1625,6.2025,6.2025,6.2183,6.2472,6.2861,6.317,6.345,6.3603,6.3843,6.4089,6.4089,6.4532,6.5189,6.5338,6.609,6.7055,6.7176,6.7673,6.8201,6.8201,6.8201,6.8201,6.8201,6.8201,6.8201,6.8201,6.8326,6.8526,6.8896,6.9116,6.9334,6.9727,6.9798,6.9798,6.9798,6.9798,6.9798,6.9798,6.9798,6.9917,7.0316,7.0446,7.0631,7.1086,7.0602,6.962,6.8098,6.7523,6.7096,6.6825,6.6791,6.6854,6.7035,6.7263,6.7489,6.7658,6.7879,6.8039,6.8083,6.8083,6.8083,6.8083,6.8083,6.8256,6.8586,6.8586,6.9,6.9759,6.9759,7.024,3.4514,3.5189,3.578,3.8283,3.905,3.983,4.2087,4.361,4.4902,4.6055,4.6813,4.7731,4.9198,5.0218,5.113,5.1995,5.2888,5.3912,5.5242,5.5416,5.5881,5.7158,5.7303,5.7416,5.7725,5.8001,5.8335,5.8609,5.8909,5.9099,5.9099,5.9099,5.9099,5.9099,5.9342,5.9667,6.0016,6.025,6.0508,6.0794,6.0794,6.0794,6.0794,6.0794,6.0949,6.1257,6.1765,6.2116,6.2421,6.2421,6.2825,6.3394,6.3394,6.3805,6.4411,6.4411,6.5205,6.6319,6.6383,6.716,6.8104,6.8169,6.8201,6.8201,6.8201,6.8201,6.8201,6.8201,6.8201,6.8326,6.8822,6.8969,6.9116,6.9655,6.9774,6.9798,6.9798,6.9798,6.9798,6.9798,6.9798,6.9893,7.0129,7.0386,7.0584,7.0893,7.0535,6.971,6.8301,6.8064,6.776,6.7062,6.6994,6.6994,6.6994,6.7191,6.7386,6.7537,6.7781,6.8002,6.8147,6.8152,6.8118,6.8187,6.8187,6.8621,6.9414,6.9414,6.9794,7.0518,7.0518,7.1035,3.4514,3.5189,3.578,3.8283,4.0344,4.1946,4.248,4.4312,4.597,4.6251,4.7178,4.8302,4.9643,5.0612,5.15,5.2419,5.2914,5.3699,5.5188,5.5416,5.5881,5.7158,5.7303,5.7331,5.7388,5.789,5.8223,5.8307,5.88,5.9099,5.9099,5.9099,5.9099,5.9099,5.9153,5.9452,5.999,6.0039,6.0329,6.0794,6.0794,6.0794,6.0794,6.0794,6.1078,6.1506,6.1633,6.1966,6.2421,6.2421,6.2484,6.2642,6.2642,6.3078,6.371,6.371,6.4475,6.5621,6.6222,6.6838,6.7489,6.8039,6.8201,6.8201,6.8201,6.8201,6.8201,6.8201,6.8201,6.8276,6.86,6.8847,6.9067,6.9406,6.9655,6.9798,6.9798,6.9798,6.9798,6.9798,6.9798,6.9893,7.0129,7.0386,7.0654,7.1154,7.0647,7.0082,6.9744,6.918,6.8774,6.8639,6.8605,6.8605,6.8605,6.8277,6.8072,6.8114,6.8453,6.8678,6.8718,6.8314,6.8394,6.9035,6.9035,6.9414,7.0173,7.0173,7.0553,7.1256,7.1256,7.1712,3.4514,3.5189,3.578,3.8283,4.0765,4.2593,4.2593,4.4509,4.6307,4.6307,4.7491,4.8811,4.9818,5.0705,5.1539,5.2325,5.2814,5.3594,5.4997,5.5335,5.5881,5.7158,5.7303,5.7303,5.7303,5.7723,5.8057,5.8195,5.8637,5.8964,5.9072,5.9099,5.9099,5.9099,5.9099,5.9399,5.999,6.0016,6.0276,6.0794,6.0794,6.0794,6.0794,6.0794,6.1103,6.1582,6.1582,6.1916,6.2421,6.2421,6.2421,6.2421,6.2421,6.2642,6.2983,6.2983,6.3776,6.4885,6.5269,6.597,6.6776,6.7489,6.7715,6.778,6.8104,6.8201,6.8201,6.8201,6.8201,6.8251,6.8526,6.8797,6.9067,6.9334,6.9574,6.9798,6.9798,6.9798,6.9798,6.9798,6.9798,6.9846,6.9988,7.026,7.0631,7.103,7.0884,7.0601,7.0251,6.9857,6.9485,6.9147,6.9113,6.9113,6.9113,6.8849,6.874,6.8812,6.9024,6.9254,6.9461,6.9206,6.9293,6.9828,6.9828,7.0208,7.0912,7.0912,7.1312,7.2071,7.2071,7.2312,3.4514,3.5498,3.6314,3.8396,4.0765,4.2593,4.2593,4.4509,4.6307,4.6307,4.7853,4.9342,4.9902,5.0763,5.1546,5.2109,5.268,5.3457,5.4691,5.5168,5.5852,5.7013,5.7245,5.7303,5.7303,5.7613,5.792,5.8167,5.85,5.88,5.9072,5.9099,5.9099,5.9099,5.9099,5.9399,5.999,6.0016,6.0276,6.0794,6.0794,6.0794,6.0794,6.0794,6.1103,6.1582,6.1582,6.1916,6.2421,6.2421,6.2421,6.2421,6.2421,6.2421,6.2421,6.2421,6.3091,6.4075,6.4252,6.4988,6.5983,6.6776,6.7003,6.71,6.7683,6.791,6.8039,6.8039,6.8104,6.8251,6.8476,6.8773,6.9042,6.9261,6.955,6.9798,6.9798,6.9798,6.9798,6.9798,6.9798,6.9822,6.9869,7.0213,7.0584,7.087,7.1131,7.1075,7.0466,7.0398,7.0161,6.9553,6.9485,6.9485,6.9485,6.935,6.9369,6.9542,6.9551,6.9765,7.0222,7.0401,7.0581,7.0774,7.0656,7.0967,7.1726,7.1726,7.2071,7.2692,7.2692,7.2692,3.4514,3.6764,3.8508,3.8818,4.0765,4.2593,4.2593,4.4509,4.6307,4.6307,4.8215,4.9874,4.9958,5.0941,5.1838,5.2167,5.2519,5.3099,5.4086,5.4906,5.5678,5.6432,5.6984,5.7303,5.7303,5.7613,5.792,5.8167,5.85,5.88,5.9072,5.9099,5.9099,5.9099,5.9099,5.9399,5.999,6.0016,6.0276,6.0794,6.0794,6.0794,6.0794,6.0794,6.1103,6.1582,6.1582,6.1916,6.2421,6.2421,6.2421,6.2421,6.2421,6.2421,6.2421,6.2421,6.265,6.3128,6.3987,6.4568,6.5053,6.5958,6.6258,6.6258,6.6355,6.6841,6.7327,6.7327,6.7748,6.8201,6.8251,6.8625,6.8994,6.9042,6.9463,6.9798,6.9798,6.9798,6.9798,6.9798,6.9798,6.9869,7.0106,7.0363,7.0584,7.087,7.1131,7.1255,7.1176,7.1154,7.112,7.1019,7.0985,7.0985,7.0985,7.0432,7.0048,7.007,7.0267,7.0485,7.0777,7.1551,7.2128,7.2381,7.1726,7.1739,7.2554,7.2554,7.2588,7.2692,7.2692,7.2692,3.4626,3.7017,3.8902,3.8902,4.0765,4.2593,4.2593,4.4228,4.5858,4.6223,4.7712,4.9145,4.9872,5.0718,5.1447,5.1894,5.2221,5.2746,5.37,5.4315,5.4963,5.5737,5.6084,5.6374,5.6781,5.6921,5.7345,5.8138,5.8362,5.8609,5.9072,5.9099,5.9099,5.9099,5.9099,5.9399,5.999,6.0016,6.0276,6.0794,6.0794,6.0794,6.0794,6.0794,6.1103,6.1582,6.1582,6.1916,6.2421,6.2421,6.2421,6.2421,6.2421,6.2421,6.2421,6.2421,6.2562,6.2864,6.3483,6.3846,6.424,6.519,6.5489,6.5554,6.5967,6.6323,6.6582,6.6582,6.6809,6.7035,6.7035,6.7427,6.7814,6.7814,6.8196,6.8572,6.8572,6.9235,6.9798,6.9798,6.9798,6.9846,6.9964,7.0176,7.041,7.0664,7.0893,7.1154,7.1289,7.1289,7.1289,7.1289,7.1289,7.1289,7.1289,7.1007,7.0804,7.0804,7.0893,7.1048,7.1277,7.1836,7.2245,7.248,7.2263,7.2347,7.2692,7.2692,7.2692,7.2692,7.2692,7.2692,3.4823,3.6905,3.8685,3.8874,4.0512,4.2199,4.2536,4.3891,4.53,4.6139,4.715,4.8274,4.9509,5.038,5.1055,5.1505,5.1919,5.2472,5.3254,5.378,5.4365,5.5072,5.5329,5.562,5.6113,5.6142,5.6594,5.7639,5.7871,5.8206,5.8806,5.9009,5.9099,5.9099,5.9099,5.9399,5.999,6.0118,6.0407,6.0794,6.064,6.0547,6.0547,6.0363,6.0577,6.1114,6.1457,6.1916,6.2421,6.2421,6.2421,6.2421,6.2421,6.2421,6.2421,6.2421,6.2513,6.2734,6.3075,6.3349,6.3629,6.4487,6.4745,6.4842,6.5392,6.5708,6.5837,6.5837,6.5967,6.6096,6.6096,6.6483,6.6888,6.6888,6.7241,6.7655,6.7821,6.8738,6.9566,6.9765,6.9798,6.9798,6.9798,7.0011,7.027,7.0469,7.0733,7.0984,7.1267,7.1289,7.1289,7.1289,7.1289,7.1289,7.1289,7.1289,7.1289,7.1289,7.1289,7.1367,7.16,7.1876,7.2094,7.2309,7.2565,7.2692,7.2692,7.2692,7.2692,7.2692,7.2692,7.2692,3.5161,3.6548,3.8102,3.8741,3.9866,4.1109,4.234,4.3554,4.4818,4.6026,4.6813,4.7628,4.8839,5.0073,5.0914,5.0942,5.1665,5.2331,5.2711,5.3466,5.4136,5.4492,5.5068,5.5416,5.5445,5.5474,5.5719,5.6341,5.6986,5.7584,5.8118,5.877,5.9099,5.9099,5.9099,5.9399,5.999,6.0512,6.0768,6.0794,6.0147,5.9839,5.9809,5.9193,5.9185,5.9773,6.1052,6.1916,6.2421,6.2421,6.2421,6.2421,6.2421,6.2421,6.2421,6.2421,6.2421,6.252,6.3034,6.3204,6.3325,6.3891,6.4032,6.4065,6.4097,6.455,6.5068,6.5068,6.5554,6.6096,6.6096,6.6483,6.6888,6.6888,6.7241,6.7787,6.8473,6.8695,6.8937,6.9666,6.9798,6.9798,6.9798,7.0011,7.027,7.0469,7.0733,7.0984,7.1267,7.1289,7.1289,7.1289,7.1289,7.1289,7.1289,7.1289,7.1289,7.1289,7.1289,7.1367,7.16,7.1876,7.2094,7.2309,7.2565,7.2692,7.2692,7.2692,7.2692,7.2692,7.2692,7.2692,3.4807,3.6211,3.7865,3.8481,3.9676,4.1025,4.2311,4.3216,4.4172,4.5384,4.6167,4.6869,4.7687,4.8839,4.996,5.0774,5.1164,5.1661,5.257,5.2959,5.3344,5.3798,5.4052,5.4371,5.4807,5.4809,5.5223,5.6223,5.6541,5.69,5.7427,5.7693,5.7812,5.7812,5.7812,5.8132,5.8711,5.9246,5.9526,5.9501,5.928,5.9157,5.9157,5.891,5.9092,5.9617,6.0116,6.0599,6.1087,6.1561,6.1782,6.1814,6.2232,6.2421,6.2421,6.2421,6.2421,6.2495,6.301,6.3204,6.3301,6.3835,6.4,6.4,6.4,6.4162,6.4356,6.4356,6.455,6.4768,6.4768,6.5115,6.5548,6.588,6.6085,6.6397,6.7148,6.7678,6.8208,6.8937,6.9069,6.9235,6.9699,6.9893,7.0082,7.0446,7.0561,7.0802,7.1244,7.1289,7.1289,7.1289,7.1289,7.1289,7.1289,7.1289,7.1289,7.1289,7.1289,7.1334,7.139,7.1788,7.2029,7.2094,7.2501,7.2692,7.2692,7.2692,7.2692,7.2692,7.2692,7.2692,3.4609,3.5859,3.7413,3.8281,3.9243,4.0377,4.1924,4.2761,4.3526,4.4738,4.5497,4.6167,4.6785,4.7715,4.8811,5.0073,5.0465,5.0962,5.2094,5.2313,5.2609,5.329,5.3451,5.3648,5.4113,5.4142,5.4582,5.5545,5.5837,0.0,5.6769,5.6974,5.7094,5.7094,5.7303,5.7592,5.7977,5.8541,5.8818,5.8818,5.8572,5.8448,5.8448,5.8233,5.8412,5.8899,5.8899,5.9432,6.0329,6.0834,6.1024,6.1087,6.1789,6.2042,6.2074,6.2326,6.2421,6.2495,6.301,6.3204,6.3301,6.3835,6.4,6.4,6.4,6.4,6.4,6.4,6.4,6.4,6.4,6.4365,6.4839,6.5291,6.5403,6.5536,6.6032,6.6695,6.7456,6.8208,6.8539,6.8861,6.9334,6.9633,6.9941,7.0363,7.0446,7.0654,7.1131,7.1244,7.1289,7.1289,7.1289,7.1289,7.1289,7.1289,7.1289,7.1289,7.1289,7.1289,7.1289,7.1656,7.1898,7.1985,7.2373,7.2607,7.2692,7.2692,7.2692,7.2692,7.2692,7.2692,0.0,0.0,0.0,3.8109,3.8476,3.9041,4.11,4.2093,4.2907,4.4116,4.4851,4.5469,4.6139,4.6785,4.7547,4.8754,4.9511,5.0289,5.1148,5.1496,5.2014,5.2939,5.3316,5.3471,5.3471,5.3474,5.3736,5.4252,5.4893,5.5512,5.6137,5.6731,5.7034,5.7034,5.7635,5.7917,5.7917,5.848,5.8756,5.8726,5.8079,5.7771,5.774,5.7093,5.7074,5.7519,5.7519,5.8554,6.0234,6.0265,6.0265,6.0329,6.1087,6.1371,6.1466,6.2137,6.239,6.2495,6.3034,6.3204,6.3301,6.3835,6.4,6.4,6.4,6.4,6.4,6.4,6.4,6.4024,6.4024,6.4365,6.4839,6.5291,6.5403,6.5403,6.5403,6.5966,6.6695,6.7423,6.8175,6.8672,6.8695,6.9301,6.9893,7.0153,7.0386,7.0584,7.087,7.1154,7.1289,7.1289,7.1289,7.1289,7.1289,7.1289,7.1289,7.1289,7.1289,7.1289,7.1289,7.1501,7.171,7.1985,7.2202,7.2437,7.2692,7.2692,7.2692,7.2692,7.2692,7.2692,3.408,0.0,0.0,0.0,0.0,0.0,4.0395,4.1337,4.2233,4.3497,4.4228,4.4823,4.5469,4.6111,4.6813,4.7575,4.8586,4.9589,5.0523,5.087,5.1241,5.167,5.2387,5.2859,5.2859,5.3239,5.3736,0.0,5.448,5.4831,5.5423,5.5628,5.5718,5.5718,5.6275,5.655,5.655,5.7095,5.734,5.734,5.7179,5.7087,5.7063,5.6878,5.7074,5.7519,5.7519,5.8021,5.8898,5.938,5.957,5.9665,6.0329,6.0929,6.1403,6.1624,6.2126,6.2734,6.3075,6.3349,6.3564,6.3906,6.4,6.4,6.4,6.4,6.4,6.4,6.4,6.4094,6.4402,6.461,6.4839,6.5291,6.5403,6.5403,6.5403,6.5569,6.59,6.6662,6.739,6.8076,6.8606,6.9301,6.9893,7.0153,7.0386,7.0584,7.087,7.1154,7.1289,7.1289,7.1289,7.1289,7.1289,7.1289,7.1289,7.1289,7.1289,7.1289,7.1289,7.1501,7.171,7.1985,7.2202,7.2437,7.2692,7.2692,7.2692,7.2692,7.2692,7.2692,0.0,0.0,0.0,0.0,0.0,0.0,3.973,4.078,4.1707,4.2548,4.3216,4.3835,4.4429,4.5071,4.5717,4.6311,4.7238,4.8353,4.9634,5.0166,5.056,5.0972,5.1703,5.2165,5.2165,5.2514,5.3066,5.384,5.392,5.4294,5.5154,5.5179,5.5179,5.5179,5.5731,5.6003,5.6003,5.6519,5.681,5.681,5.681,5.681,5.681,5.6906,5.7139,5.7519,5.7613,5.7895,5.8329,5.8717,5.8875,5.8938,5.9602,6.0139,6.0613,6.1182,6.1826,6.2475,6.3004,6.3397,6.3628,6.3897,6.4,6.4,6.4,6.4,6.4,6.4,6.4,6.4109,6.4587,6.4702,6.4839,6.5291,6.5403,6.5403,6.5403,6.5403,6.5536,6.5966,6.6893,6.7721,6.8175,6.9103,6.9846,7.0011,7.0316,7.0538,7.0699,7.1052,7.1289,7.1289,7.1289,7.1289,7.1289,7.1289,7.1289,7.1289,7.1289,7.1289,7.1289,7.1412,7.1634,7.1985,7.2115,7.2352,7.2692,7.2692,7.2692,7.2692,7.2692,7.2692,0.0,0.0,0.0,0.0,0.0,0.0,3.9117,4.026,4.1189,4.1521,4.2064,4.2677,4.3273,4.3891,4.4486,4.5103,4.5774,4.6785,4.8474,4.9269,4.988,5.0423,5.1084,5.1501,5.1501,5.1559,5.2049,5.3217,5.3436,5.3959,5.5034,5.5149,5.5179,5.5179,5.5731,5.6003,5.6003,5.6519,5.681,5.681,5.681,5.681,5.681,5.7019,5.7258,5.7519,5.7778,5.8034,5.8297,5.8297,5.8297,5.8361,5.8938,5.9222,5.9475,6.0803,6.1502,6.195,6.2876,6.3397,6.3684,6.3897,6.4,6.4,6.4,6.4,6.4,6.4,6.4,6.4109,6.4587,6.4702,6.4839,6.5291,6.5403,6.5403,6.5403,6.5403,6.5403,6.5403,6.6595,6.7589,6.7589,6.8837,6.9798,6.9798,7.019,7.0492,7.0492,7.0961,7.1289,7.1289,7.1289,7.1289,7.1289,7.1289,7.1289,7.1289,7.1289,7.1289,7.1289,7.1289,7.1535,7.1985,7.205,7.2288,7.2692,7.2692,7.2692,7.2692,7.2692,7.2692,0.0,0.0,0.0,0.0,0.0,0.0,3.8249,3.9179,4.02,4.1374,4.1699,4.2008,4.2649,4.3273,4.3863,4.4458,4.5075,4.5806,4.6701,4.7705,4.842,4.8534,4.9923,5.0884,5.0884,5.1323,5.1874,5.2544,5.3496,5.4127,5.4376,5.491,5.5179,5.5179,5.5731,5.6003,5.6003,5.6519,5.681,5.681,5.681,5.681,5.681,5.7019,5.7258,5.7519,5.7778,5.8034,5.8297,5.8297,5.8297,5.8297,5.8456,5.8812,5.9412,6.0202,6.121,6.2221,6.2948,6.3517,6.3953,6.4,6.4,6.4,6.4,6.4,6.4,6.4,6.4,6.4109,6.4587,6.4702,6.4839,6.5291,6.5403,6.5403,6.5403,6.5403,6.5403,6.5403,6.6595,6.7589,6.7589,6.8837,6.9798,6.9798,7.019,7.0492,7.0492,7.0961,7.1289,7.1289,7.1289,7.1289,7.1289,7.1289,7.1289,7.1289,7.1289,7.1289,7.1289,7.1289,7.1535,7.1985,7.2373,7.2607,7.2692,7.2692,7.2692,7.2692,7.2692,7.2692,0.0,0.0,0.0,3.569,0.0,0.0,0.0,3.8775,3.966,4.0904,4.1165,4.1362,4.198,4.2345,4.2767,4.3385,4.375,4.4218,4.4955,4.6471,4.7553,4.7678,4.861,4.9374,4.9669,4.9963,5.065,5.1862,5.303,5.3683,5.3683,5.4012,5.4416,5.49,5.5296,5.5743,5.6201,5.6592,5.681,5.681,5.681,5.681,5.681,5.7139,5.7377,5.7543,5.7918,5.8182,5.8297,5.8297,5.8297,5.8297,5.8297,5.8519,5.8875,5.9538,6.0566,6.1748,6.246,6.3275,6.4,6.4,6.4,6.4,6.4,6.4,6.4,6.4,6.4,6.4109,6.4587,6.4702,6.4839,6.5291,6.5403,6.5403,6.5403,6.5403,6.5403,6.5403,6.6595,6.7589,6.7589,6.8837,6.9798,6.9798,7.019,7.0492,7.0492,7.0961,7.1289,7.1289,7.1289,7.1289,7.1289,7.1289,7.1289,7.1289,7.1289,7.1289,7.1289,7.1289,7.1535,7.1985,7.2459,7.2692,7.2692,7.2692,7.2692,7.2692,7.2692,7.2692,0.0,0.0,0.0,0.0,0.0,3.7118,0.0,0.0,0.0,4.049,4.0688,4.0856,4.1362,4.1509,4.1783,4.2317,4.2508,4.2851,4.3602,4.5194,4.6518,4.7156,4.7583,4.7985,4.8484,4.8608,4.9342,5.1002,5.2161,5.2845,5.3019,5.3139,5.3566,5.4375,5.4795,5.5396,5.6182,5.6603,5.681,5.681,5.681,5.681,5.681,5.7282,5.7519,5.7543,5.8089,5.8297,5.8297,5.8297,5.8297,5.8297,5.8297,5.8297,5.8392,5.9064,5.9962,6.1035,6.1908,6.2912,6.3829,6.3935,6.4,6.4,6.4,6.4,6.4,6.4,6.4,6.4109,6.4587,6.4702,6.4839,6.5291,6.5403,6.5403,6.5403,6.5403,6.5403,6.5403,6.6595,6.7589,6.7589,6.8837,6.9798,6.9798,7.019,7.0492,7.0492,7.0961,7.1289,7.1289,7.1289,7.1289,7.1289,7.1289,7.1289,7.1289,7.1289,7.1289,7.1289,7.1356,7.158,7.1985,7.2416,7.2649,7.2692,7.2692,7.2692,7.2692,7.2692,7.2692,0.0,0.0,0.0,0.0,3.754,0.0,0.0,0.0,3.9704,4.0532,0.0,4.0716,4.08,0.0,0.0,4.1699,4.2205,4.2777,4.3301,4.356,4.4422,4.6373,4.7322,4.7834,4.7921,4.8266,4.8868,4.9669,5.0798,5.1708,5.2276,5.2899,5.3356,5.3688,5.4552,5.5153,5.5424,5.6357,5.681,5.681,5.681,5.681,5.681,5.7282,5.7519,5.7543,5.8089,5.8297,5.8297,5.8297,5.8297,5.8297,5.8297,5.8297,5.8392,5.9064,5.9676,6.0403,6.1748,6.2558,6.3117,6.3797,6.4,6.4,6.4,6.4,6.4,6.4,6.4,6.4109,6.4587,6.4702,6.4839,6.5291,6.5403,6.5403,6.5403,6.5403,6.5403,6.5403,6.6595,6.7589,6.7589,6.8837,6.9798,6.9798,7.019,7.0492,7.0492,7.0961,7.1289,7.1289,7.1289,7.1289,7.1289,7.1289,7.1289,7.1289,7.1289,7.1289,7.1289,7.1479,7.1688,7.1985,7.2223,7.2459,7.2692,7.2692,7.2692,7.2692,7.2692,7.2692,0.0,0.0,0.0,0.0,0.0,0.0,3.8931,0.0,3.9725,0.0,0.0,0.0,0.0,0.0,0.0,0.0,4.1306,4.179,4.2581,4.2703,4.3292,4.4876,0.0,0.0,4.738,4.8112,4.8689,4.9117,5.0041,5.0757,5.1026,5.1678,5.2407,5.3233,5.3624,5.4196,5.4941,5.5759,5.617,5.617,5.6601,5.681,5.681,5.7282,5.7519,5.7543,5.8089,5.8297,5.8297,5.8297,5.8297,5.8297,5.8297,5.8297,5.8329,5.8614,5.9318,6.0234,6.1227,6.214,6.302,6.3764,6.4,6.4,6.4,6.4,6.4,6.4,6.4,6.4109,6.4587,6.4702,6.4839,6.5291,6.5403,6.5403,6.5403,6.5403,6.5403,6.5403,6.6595,6.7589,6.7589,6.8837,6.9798,6.9798,7.019,7.0492,7.0492,7.0961,7.1289,7.1289,7.1289,7.1289,7.1289,7.1289,7.1289,7.1289,7.1289,7.1289,7.1289,7.1501,7.171,7.1985,7.2202,7.2437,7.2692,7.2692,7.2692,7.2692,7.2692,7.2692,3.8239,0.0,0.0,0.0,0.0,0.0,0.0,0.0,0.0,0.0,0.0,0.0,0.0,0.0,0.0,0.0,0.0,4.1064,4.1924,4.2088,4.2596,4.3849,0.0,0.0,0.0,4.7189,4.7879,4.8312,4.9185,4.983,5.0166,5.0737,5.1563,5.27,5.2952,5.352,5.4429,5.5099,5.553,5.5708,5.6231,5.6649,5.6906,5.7306,5.7543,5.7637,5.8112,5.8297,5.8297,5.8297,5.8297,5.8297,5.8297,5.8297,5.8297,5.8297,5.8937,5.9923,6.0811,6.2011,6.3279,6.3829,6.4,6.4,6.4,6.4,6.4,6.4,6.4,6.4109,6.4587,6.4702,6.4839,6.5291,6.5403,6.5403,6.5403,6.5403,6.5403,6.5403,6.6595,6.7589,6.7589,6.8837,6.9798,6.9798,7.019,7.0492,7.0492,7.0961,7.1289,7.1289,7.1289,7.1289,7.1289,7.1289,7.1289,7.1289,7.1289,7.1289,7.1289,7.1434,7.1678,7.1985,7.2137,7.2373,7.2692,7.2692,7.2692,7.2692,7.2692,7.2692,0.0,0.0,0.0,3.9237,0.0,0.0,0.0,0.0,4.0659,0.0,0.0,0.0,0.0,0.0,0.0,0.0,0.0,0.0,0.0,4.1585,4.2276,4.3812,4.4008,0.0,0.0,4.5183,4.604,0.0,4.7835,4.8895,5.0136,5.0448,5.1053,5.2002,5.2841,5.3407,5.3722,5.4399,5.5045,5.5684,5.5715,5.6227,5.7084,5.7377,5.7637,5.7895,5.8182,5.8297,5.8297,5.8297,5.8297,5.8297,5.8297,5.8297,5.8297,5.8297,5.8596,5.9228,6.0627,6.2365,6.3968,6.3968,6.4,6.4,6.4,6.4,6.4,6.4,6.4,6.4109,6.4587,6.4702,6.4839,6.5291,6.5403,6.5403,6.5403,6.5403,6.5403,6.5403,6.6595,6.7589,6.7589,6.8837,6.9798,6.9798,7.019,7.0492,7.0492,7.0961,7.1289,7.1289,7.1289,7.1289,7.1289,7.1289,7.1289,7.1289,7.1289,7.1289,7.1289,7.1312,7.1535,7.1985,7.2007,7.2223,7.2692,7.2692,7.2692,7.2692,7.2692,7.2692,0.0,0.0,4.0404,3.9997,0.0,0.0,0.0,0.0,0.0,0.0,0.0,0.0,0.0,0.0,0.0,0.0,0.0,0.0,0.0,0.0,4.0995,4.1976,4.2944,4.3783,0.0,0.0,0.0,0.0,4.7206,0.0,4.8895,4.999,5.0812,5.1334,5.217,5.2757,5.3045,5.3691,5.4153,5.4368,5.5284,5.5949,5.6457,5.7183,5.766,5.7895,5.8182,5.8297,5.8297,5.8297,5.8297,5.8297,5.8297,5.8297,5.8321,5.845,5.8701,5.9242,6.0963,6.2622,6.4,6.4,6.4,6.4,6.4,6.4,6.4,6.4,6.4,6.4109,6.4587,6.4702,6.4839,6.5291,6.5403,6.5403,6.5403,6.5403,6.5403,6.5403,6.6595,6.7589,6.7589,6.8837,6.9869,7.0035,7.0306,7.0561,7.0756,7.1075,7.1289,7.1289,7.1289,7.1289,7.1289,7.1289,7.1289,7.1289,7.1289,7.1289,7.1289,7.1289,7.1535,7.1985,7.1985,7.2223,7.2692,7.2692,7.2692,7.2692,7.2692,7.2692,4.1412,4.1249,0.0,4.0621,4.0877,0.0,4.0741,0.0,0.0,0.0,0.0,0.0,0.0,0.0,0.0,0.0,0.0,0.0,0.0,4.0172,0.0,4.0699,4.1869,4.2972,4.3847,0.0,0.0,0.0,0.0,0.0,0.0,4.9312,5.0372,5.1082,5.1756,5.2295,5.2676,5.3137,5.3445,5.3722,5.4915,5.5751,5.6256,5.723,5.7778,5.8034,5.8228,5.8297,5.8297,5.8297,5.8297,5.8297,5.8297,5.8297,5.8321,5.8518,5.9156,6.0073,6.1362,6.2793,6.4,6.4,6.4,6.4,6.4,6.4,6.4,6.4,6.4038,6.4202,6.461,6.4771,6.493,6.5314,6.5403,6.5403,6.5403,6.5403,6.5403,6.5403,6.6595,6.7589,6.7589,6.8837,6.9893,7.0153,7.0386,7.0584,7.087,7.1154,7.1289,7.1289,7.1289,7.1289,7.1289,7.1289,7.1289,7.1289,7.1289,7.1289,7.1289,7.1289,7.1535,7.1985,7.1985,7.2223,7.2692,7.2692,7.2692,7.2692,7.2692,7.2692]},{"header":{"parameterUnit":"m.s-1","parameterCategory":1,"la1":30.6,"la2":29.2853,"lo1":-89.7004,"lo2":-87.6739,"dy":0.0162,"dx":0.0183,"nx":112,"ny":82,"refTime":"2024-03-21T18:00:00:Z","depth":0,"parameterNumber":3,"parameterNumberName":"V-component_of_WINDS"},"data":[0.0,0.0,0.0,0.0,0.0,0.0,0.0,0.0,0.0,0.0,0.0,0.0,0.0,0.0,0.0,0.0,0.0,0.0,0.0,0.0,0.0,0.0,0.0,0.0,0.0,0.0,0.0,0.0,0.0,0.0,0.0,0.0,0.0,0.0,0.0,0.0,0.0,0.0,0.0,0.0,0.0,0.0,0.0,0.0,0.0,0.0,0.0,0.0,0.0,0.0,0.0,0.0,0.0,0.0,0.0,0.0,0.0,0.0,0.0,0.0,0.0,0.0,0.0,0.0,0.0,0.0,0.0,0.0,0.0,0.0,0.0,0.0,0.0,0.0,0.0,0.0,0.0,0.0,0.0,0.0,0.0,0.0,0.0,0.0,0.0,0.0,0.0,0.0,0.0,0.0,1.3129,1.3195,1.2985,1.2835,1.2835,1.2551,1.2243,1.1978,0.0,0.0,0.0,0.0,0.0,0.0,0.0,0.0,0.0,0.0,0.0,0.0,0.0,0.0,0.0,0.0,0.0,0.0,0.0,0.0,0.0,0.0,0.0,0.0,0.0,0.0,0.0,0.0,0.0,0.0,0.0,0.0,0.0,0.0,0.0,0.0,0.0,0.0,0.0,0.0,0.0,0.0,0.0,0.0,0.0,0.0,0.0,0.0,0.0,0.0,0.0,0.0,0.0,0.0,0.0,0.0,0.0,0.0,0.0,0.0,0.0,0.0,0.0,0.0,0.0,0.0,0.0,0.0,0.0,0.0,0.0,0.0,0.0,0.0,0.0,0.0,0.0,0.0,0.0,0.0,0.0,0.0,0.0,0.0,0.0,0.0,0.0,0.0,0.0,0.0,0.0,0.0,0.0,0.0,0.0,0.0,0.0,0.0,0.0,0.0,0.0,0.0,0.0,0.0,1.3613,1.3688,1.3508,1.3364,1.3364,1.2924,1.2509,1.2256,0.0,0.0,0.0,0.0,0.0,0.0,0.0,0.0,0.0,0.0,0.0,0.0,0.0,0.0,0.0,0.0,0.0,0.0,0.0,0.0,0.0,0.0,0.0,0.0,0.0,0.0,0.0,0.0,0.0,0.0,0.0,0.0,0.0,0.0,0.0,0.0,0.0,0.0,0.0,0.0,0.0,0.0,0.0,0.0,0.0,0.0,0.0,0.0,0.0,0.0,0.0,0.0,0.0,0.0,0.0,0.0,0.0,0.0,0.0,0.0,0.0,0.0,0.0,0.0,0.0,0.0,0.0,0.0,0.0,0.0,0.0,0.0,0.0,0.0,0.0,0.0,0.0,0.0,0.0,0.0,0.0,0.0,0.0,0.0,0.0,0.0,0.0,0.0,0.0,0.0,0.0,0.0,0.0,0.0,0.0,0.0,0.0,0.0,0.0,0.0,0.0,0.0,0.0,1.3951,1.4039,1.4201,1.4062,1.3821,1.3505,1.3271,1.2897,1.2337,1.185,0.0,0.0,0.0,0.0,0.0,0.0,0.0,0.0,0.0,0.0,0.0,0.0,0.0,0.0,0.0,0.0,0.0,0.0,0.0,0.0,0.0,0.0,0.0,0.0,0.0,0.0,0.0,0.0,0.0,0.0,0.0,0.0,0.0,0.0,0.0,0.0,0.0,0.0,0.0,0.0,0.0,0.0,0.0,0.0,0.0,0.0,0.0,0.0,0.0,0.0,0.0,0.0,0.0,0.0,0.0,0.0,0.0,0.0,0.0,0.0,0.0,0.0,0.0,0.0,0.0,0.0,0.0,0.0,0.0,0.0,0.0,0.0,0.0,0.0,0.0,0.0,0.0,0.0,0.0,0.0,0.0,0.0,0.0,0.0,0.0,0.0,0.0,0.0,0.0,0.0,0.0,0.0,0.0,0.0,0.0,0.0,0.0,0.0,0.0,0.0,0.0,0.0,1.4489,1.4572,1.476,1.4605,1.4334,1.3916,1.3689,1.3296,1.2614,1.2213,0.0,0.0,0.0,0.0,0.0,0.0,0.0,0.0,0.0,0.0,0.0,0.0,0.0,0.0,0.0,0.0,0.0,0.0,0.0,0.0,0.0,0.0,0.0,0.0,0.0,0.0,0.0,0.0,0.0,0.0,0.0,0.0,0.0,0.0,0.0,0.0,0.0,0.0,0.0,0.0,0.0,0.0,0.0,0.0,0.0,0.0,0.0,0.0,0.0,0.0,0.0,0.0,0.0,0.0,0.0,0.0,0.0,0.0,0.0,0.0,0.0,0.0,0.0,0.0,0.0,0.0,0.0,0.0,0.0,0.0,0.0,0.0,0.0,0.0,0.0,0.0,0.0,0.0,0.0,0.0,0.0,0.0,0.0,0.0,0.0,0.0,0.0,0.0,0.0,0.0,0.0,0.0,0.0,0.0,0.0,0.0,0.0,0.0,0.0,0.0,0.0,0.0,1.4981,1.5314,1.5341,1.5157,1.5028,1.4992,1.4238,1.3677,1.342,1.27,0.0,0.0,0.0,0.0,0.0,0.0,0.0,0.0,0.0,0.0,0.0,0.0,0.0,0.0,0.0,0.0,0.0,0.0,0.0,0.0,0.0,0.0,0.0,0.0,0.0,0.0,0.0,0.0,0.0,0.0,0.0,0.0,0.0,0.0,0.0,0.0,0.0,0.0,0.0,0.0,0.0,0.0,0.0,0.0,0.0,0.0,0.0,0.0,0.0,0.0,0.0,0.0,0.0,0.0,0.0,0.0,0.0,0.0,0.0,0.0,0.0,0.0,0.0,0.0,0.0,0.0,0.0,0.0,0.0,0.0,0.0,0.0,0.0,0.0,0.0,0.0,0.0,0.0,0.0,0.0,0.0,0.0,0.0,0.0,0.0,0.0,0.0,0.0,0.0,0.0,0.0,0.0,0.0,0.0,0.0,0.0,0.0,0.0,0.0,0.0,0.0,0.0,1.515,1.5471,0.0,1.5577,1.5428,1.5104,1.4611,1.4122,1.3714,0.0,0.0,0.0,0.0,0.0,0.0,0.0,0.0,0.0,0.0,0.0,0.0,0.0,0.0,0.0,0.0,0.0,0.0,0.0,0.0,0.0,0.0,0.0,0.0,0.0,0.0,0.0,0.0,0.0,0.0,0.0,0.0,0.0,0.0,0.0,0.0,0.0,0.0,0.0,0.0,0.0,0.0,0.0,0.0,0.0,0.0,0.0,0.0,0.0,0.0,0.0,0.0,0.0,0.0,0.0,0.0,0.0,0.0,0.0,0.0,0.0,0.0,0.0,0.0,0.0,0.0,0.0,0.0,0.0,0.0,0.0,0.0,0.0,0.0,0.0,0.0,0.0,0.0,0.0,0.0,0.0,0.0,0.0,0.0,0.0,0.0,0.0,0.0,0.0,0.0,0.0,0.0,0.0,0.0,0.0,0.0,0.0,0.0,0.0,0.0,0.0,0.0,1.5251,1.5502,1.5688,0.0,1.5808,1.5681,1.5341,1.5028,1.4627,1.4096,0.0,0.0,0.0,0.0,0.0,0.0,0.0,0.0,0.0,0.0,0.0,0.0,0.0,0.0,0.0,0.0,0.0,0.0,0.0,0.0,0.0,0.0,0.0,0.0,0.0,0.0,0.0,0.0,0.0,0.0,0.0,0.0,0.0,0.0,0.0,0.0,0.0,0.0,0.0,0.0,0.0,0.0,0.0,0.0,0.0,0.0,0.0,0.0,0.0,0.0,0.0,0.0,0.0,0.0,0.0,0.0,0.0,0.0,0.0,0.0,0.0,0.0,0.0,0.0,0.0,0.0,0.0,0.0,0.0,0.0,0.0,0.0,0.0,0.0,0.0,0.0,0.0,0.0,0.0,0.0,0.0,0.0,0.0,0.0,0.0,0.0,0.0,0.0,0.0,0.0,0.0,0.0,0.0,0.0,0.0,0.0,0.0,0.0,0.0,0.0,0.0,0.0,1.5815,1.6047,1.6106,1.5832,1.5808,1.5808,1.5808,1.5565,1.5179,0.0,0.0,0.0,0.0,0.0,0.0,0.0,0.0,0.0,0.0,0.0,0.0,0.0,0.0,0.0,0.0,0.0,0.0,0.0,0.0,0.0,0.0,0.0,0.0,0.0,0.0,0.0,0.0,0.0,0.0,0.0,0.0,0.0,0.0,0.0,0.0,0.0,0.0,0.0,0.0,0.0,0.0,0.0,0.0,0.0,0.0,0.0,0.0,0.0,0.0,0.0,0.0,0.0,0.0,0.0,0.0,0.0,0.0,0.0,0.0,0.0,0.0,0.0,0.0,0.0,0.0,0.0,0.0,0.0,0.0,0.0,0.0,0.0,0.0,0.0,0.0,0.0,0.0,0.0,0.0,0.0,0.0,0.0,0.0,0.0,0.0,0.0,0.0,0.0,0.0,0.0,0.0,0.0,0.0,0.0,0.0,0.0,0.0,0.0,0.0,0.0,0.0,0.0,1.6021,1.6494,1.6732,1.6467,1.6418,1.637,1.6163,1.5685,1.5248,1.4909,0.0,0.0,0.0,0.0,0.0,0.0,0.0,0.0,0.0,0.0,0.0,0.0,0.0,0.0,0.0,0.0,0.0,0.0,0.0,0.0,0.0,0.0,0.0,0.0,0.0,0.0,0.0,0.0,0.0,0.0,0.0,0.0,0.0,0.0,0.0,0.0,0.0,0.0,0.0,0.0,0.0,0.0,0.0,0.0,0.0,0.0,0.0,0.0,0.0,0.0,0.0,0.0,0.0,0.0,0.0,0.0,0.0,0.0,0.0,0.0,0.0,0.0,0.0,0.0,0.0,0.0,0.0,0.0,0.0,0.0,0.0,0.0,0.0,0.0,0.0,0.0,0.0,0.0,0.0,0.0,0.0,0.0,0.0,0.0,0.0,0.0,0.0,0.0,0.0,0.0,0.0,0.0,0.0,0.0,0.0,0.0,0.0,0.0,0.0,0.0,0.0,0.0,1.664,1.7093,1.7344,1.7075,1.705,1.6897,1.6481,1.6119,1.5695,1.5186,0.0,0.0,0.0,0.0,0.0,0.0,0.0,0.0,0.0,0.0,0.0,0.0,0.0,0.0,0.0,0.0,0.0,0.0,0.0,0.0,0.0,0.0,0.0,0.0,0.0,0.0,0.0,0.0,0.0,0.0,0.0,0.0,0.0,0.0,0.0,0.0,0.0,0.0,0.0,0.0,0.0,0.0,0.0,0.0,0.0,0.0,0.0,0.0,0.0,0.0,0.0,0.0,0.0,0.0,0.0,0.0,0.0,0.0,0.0,0.0,0.0,0.0,0.0,0.0,0.0,0.0,0.0,0.0,0.0,0.0,0.0,0.0,0.0,0.0,0.0,0.0,0.0,0.0,0.0,0.0,0.0,0.0,0.0,0.0,0.0,0.0,0.0,0.0,0.0,0.0,0.0,0.0,0.0,0.0,0.0,0.0,0.0,0.0,0.0,0.0,0.0,0.0,1.7462,1.7791,1.7917,1.7704,1.7654,1.7442,1.6859,1.6752,1.6382,1.5541,0.0,0.0,0.0,0.0,0.0,0.0,0.0,0.0,0.0,0.0,0.0,0.0,0.0,0.0,0.0,0.0,0.0,0.0,0.0,0.0,0.0,0.0,0.0,0.0,0.0,0.0,0.0,0.0,0.0,0.0,0.0,0.0,0.0,0.0,0.0,0.0,0.0,0.0,0.0,0.0,0.0,0.0,0.0,0.0,0.0,0.0,0.0,0.0,0.0,0.0,0.0,0.0,0.0,0.0,0.0,0.0,0.0,0.0,0.0,0.0,1.7079,0.0,0.0,0.0,0.0,0.0,0.0,0.0,0.0,0.0,0.0,0.0,0.0,0.0,0.0,0.0,0.0,0.0,0.0,0.0,0.0,0.0,0.0,0.0,0.0,0.0,0.0,0.0,0.0,0.0,0.0,0.0,0.0,0.0,0.0,0.0,0.0,0.0,0.0,0.0,0.0,0.0,1.8061,1.8407,1.851,1.8271,1.822,1.8091,1.7753,1.7281,1.6776,1.6152,1.555,0.0,0.0,0.0,0.0,0.0,0.0,0.0,0.0,0.0,0.0,0.0,0.0,0.0,0.0,0.0,0.0,0.0,0.0,0.0,0.0,0.0,0.0,0.0,0.0,0.0,0.0,0.0,0.0,0.0,0.0,0.0,0.0,0.0,0.0,0.0,0.0,0.0,0.0,0.0,0.0,0.0,0.0,0.0,0.0,0.0,0.0,0.0,0.0,0.0,0.0,0.0,0.0,0.0,0.0,0.0,0.0,0.0,0.0,0.0,0.0,1.7837,0.0,0.0,0.0,0.0,0.0,0.0,0.0,0.0,0.0,0.0,0.0,0.0,0.0,0.0,0.0,0.0,0.0,0.0,0.0,0.0,0.0,0.0,0.0,0.0,0.0,0.0,0.0,0.0,0.0,0.0,0.0,0.0,0.0,0.0,0.0,0.0,0.0,0.0,0.0,0.0,1.8711,1.892,1.8997,1.8843,1.8817,1.8657,1.8218,1.7906,1.7425,1.6745,1.6132,0.0,0.0,0.0,0.0,0.0,0.0,0.0,0.0,0.0,0.0,0.0,0.0,0.0,0.0,0.0,0.0,0.0,0.0,0.0,0.0,0.0,0.0,0.0,0.0,0.0,0.0,0.0,0.0,0.0,0.0,0.0,0.0,0.0,0.0,0.0,0.0,0.0,0.0,0.0,0.0,0.0,0.0,0.0,0.0,0.0,0.0,0.0,0.0,0.0,0.0,0.0,0.0,0.0,2.223,2.2176,2.1953,2.1953,2.1857,2.1593,2.0642,1.9912,1.9344,1.8947,0.0,0.0,0.0,0.0,0.0,0.0,0.0,0.0,0.0,0.0,0.0,0.0,0.0,0.0,0.0,0.0,0.0,0.0,0.0,0.0,0.0,0.0,0.0,0.0,1.871,1.8516,0.0,0.0,0.0,0.0,0.0,0.0,0.0,0.0,0.0,0.0,0.0,0.0,1.9445,1.9487,1.9552,1.9552,1.95,1.9237,1.8686,1.8588,1.82,1.7369,1.6765,1.6141,0.0,0.0,0.0,0.0,0.0,0.0,0.0,0.0,0.0,0.0,0.0,0.0,0.0,0.0,0.0,0.0,0.0,0.0,0.0,0.0,0.0,0.0,0.0,0.0,0.0,0.0,0.0,0.0,0.0,0.0,0.0,0.0,1.7014,1.7903,0.0,0.0,0.0,0.0,0.0,0.0,0.0,0.0,0.0,0.0,0.0,0.0,0.0,2.2824,2.2896,2.3639,2.4037,2.4046,2.4406,2.4431,2.4182,2.4182,2.4036,2.3773,2.3395,0.0,2.0806,2.0762,0.0,0.0,0.0,0.0,0.0,0.0,0.0,0.0,0.0,0.0,0.0,0.0,0.0,0.0,0.0,0.0,0.0,0.0,0.0,0.0,0.0,0.0,2.034,2.0366,2.0382,2.0294,0.0,1.9478,1.9091,1.9091,1.9312,0.0,0.0,0.0,0.0,0.0,0.0,0.0,2.0396,2.0464,2.0512,2.0512,2.0269,1.9962,1.964,1.9348,1.8898,1.8271,1.7403,1.6702,1.6181,1.5275,0.0,0.0,0.0,0.0,0.0,0.0,0.0,0.0,0.0,0.0,0.0,0.0,0.0,0.0,0.0,0.0,0.0,0.0,0.0,0.0,0.0,0.0,0.0,0.0,0.0,0.0,0.0,0.0,0.0,1.7528,1.8158,1.878,1.9213,1.9698,0.0,0.0,0.0,0.0,0.0,0.0,0.0,0.0,0.0,2.3947,2.4345,2.4621,2.4732,2.5115,2.5467,2.5819,2.5964,2.6122,2.622,2.622,2.6168,2.6038,2.5726,2.5139,2.4322,2.2948,2.2327,2.219,0.0,0.0,0.0,0.0,2.0589,2.0337,2.0177,2.0131,0.0,1.9994,0.0,0.0,0.0,0.0,0.0,0.0,0.0,0.0,0.0,0.0,0.0,2.1552,2.1602,2.1643,2.1738,2.1554,2.1019,0.0,1.9948,2.0201,2.0282,0.0,0.0,0.0,0.0,2.1004,2.1159,2.1002,2.0919,2.0919,2.0674,2.0424,2.0318,1.9873,1.9392,1.8927,1.8038,1.7255,1.672,1.586,1.5075,0.0,0.0,0.0,0.0,0.0,0.0,0.0,0.0,0.0,0.0,0.0,0.0,0.0,0.0,0.0,0.0,0.0,0.0,0.0,0.0,0.0,0.0,0.0,0.0,0.0,0.0,0.0,0.0,1.8762,1.9353,1.9798,2.0612,2.1282,0.0,0.0,0.0,0.0,0.0,0.0,2.4602,2.4956,2.5389,2.5945,2.6202,2.6426,2.6703,2.6743,2.6955,2.7412,2.7527,2.7711,2.7908,2.7908,2.788,2.778,2.7553,2.7443,2.7257,2.5001,2.4028,2.3916,2.3523,2.326,2.3061,2.2564,2.2292,2.218,2.1987,2.1866,2.1769,2.164,0.0,2.1462,2.1343,0.0,0.0,0.0,0.0,2.1979,2.2222,2.2305,2.2363,2.2704,2.2778,2.2878,2.3218,2.3284,2.2785,0.0,2.0859,2.1081,2.1277,0.0,0.0,0.0,0.0,2.1829,2.1829,2.1635,2.149,2.149,2.1231,2.1008,2.0836,2.0421,1.9949,1.9459,1.8698,1.7955,1.7275,1.6523,1.5722,1.4839,0.0,0.0,0.0,0.0,0.0,0.0,0.0,0.0,0.0,0.0,0.0,0.0,0.0,0.0,0.0,0.0,0.0,0.0,0.0,0.0,0.0,0.0,0.0,0.0,0.0,0.0,0.0,0.0,0.0,2.133,2.2047,0.0,0.0,0.0,0.0,2.5053,2.5473,2.6094,2.6979,2.706,2.7462,2.8301,2.8109,2.8198,2.8635,2.8729,2.8754,2.8813,2.925,2.9325,2.9036,2.9036,2.8896,2.8624,2.8615,2.8596,2.8473,2.6641,2.5725,2.5449,2.5044,2.4491,2.3947,2.3885,2.3654,2.331,2.3285,2.3135,2.291,2.291,2.2735,2.2577,2.2903,2.298,0.0,0.0,2.358,2.358,2.3597,2.3597,2.3673,2.4022,2.4098,2.4146,2.4288,2.4317,2.3999,0.0,2.2759,2.2695,2.2376,0.0,2.2274,2.2038,2.2271,2.2466,2.2466,2.2501,2.2523,2.2523,2.224,2.1792,2.1223,2.1165,2.0743,1.9837,1.9444,1.8807,1.7896,1.7256,1.656,1.5741,1.5404,0.0,0.0,0.0,0.0,0.0,0.0,0.0,0.0,0.0,0.0,0.0,0.0,0.0,0.0,0.0,0.0,0.0,0.0,0.0,0.0,0.0,0.0,0.0,0.0,0.0,0.0,0.0,0.0,2.298,2.3782,0.0,2.4889,2.5372,2.5933,2.6686,2.7029,2.7436,2.801,2.862,2.9084,2.9386,2.9842,3.0196,3.0336,3.0666,3.094,3.1219,3.1177,3.1239,3.1407,3.1191,3.1043,3.0935,3.0717,3.0628,3.0541,2.9437,2.8275,2.7225,2.6828,2.6426,2.6009,2.5568,2.5334,2.5182,2.4996,2.489,2.481,2.481,2.473,2.4685,2.4781,2.4699,2.4607,2.4989,2.4955,2.484,2.5069,2.5121,2.5172,2.5264,2.5298,2.5304,2.5343,2.5377,2.5264,2.4907,2.4345,2.3899,2.3787,2.3912,2.3991,2.3707,2.3763,2.3786,2.3556,2.3552,2.3573,2.3573,2.3066,2.2649,2.2456,2.1675,2.1077,2.0728,1.9814,1.9143,1.8822,1.8023,1.7265,1.6589,1.6146,1.5581,0.0,0.0,0.0,0.0,0.0,0.0,0.0,0.0,0.0,0.0,0.0,0.0,0.0,0.0,0.0,0.0,0.0,0.0,0.0,0.0,0.0,0.0,0.0,0.0,0.0,0.0,2.4096,2.4659,2.5468,2.615,2.654,2.6975,2.7581,2.8341,2.8686,2.9088,2.9646,3.0262,3.0757,3.1063,3.154,3.1847,3.2009,3.2367,3.2671,3.2944,3.2875,3.3024,3.3303,3.3089,3.2905,3.2782,3.2567,3.2413,3.222,3.1611,3.067,2.9511,2.8709,2.8219,2.7917,2.749,2.7166,2.6871,2.6447,2.6328,2.63,2.6198,2.6188,2.6188,2.6188,2.6003,2.5888,2.6151,2.6167,2.6151,2.6383,2.6539,2.6648,2.6651,2.6656,2.6661,2.6662,2.6666,2.6666,2.6666,2.5758,2.4947,2.4832,2.502,2.5052,2.4789,2.473,2.4613,2.432,2.4261,2.4231,2.4114,2.3702,2.3354,2.3128,2.2337,2.166,2.1238,2.0419,1.9755,1.9312,1.8709,1.8038,1.7309,1.6653,1.6076,1.5641,0.0,0.0,0.0,0.0,0.0,0.0,0.0,0.0,0.0,0.0,0.0,0.0,0.0,0.0,0.0,0.0,0.0,0.0,0.0,0.0,0.0,0.0,0.0,2.412,2.4804,2.5636,2.6282,2.7161,2.7753,2.7969,2.8839,2.9565,3.0062,3.0518,3.116,3.2043,3.2057,3.2499,3.3418,3.3138,3.3187,3.3666,3.3832,3.3901,3.3901,3.4344,3.4546,3.4546,3.4546,3.4358,3.4044,3.4044,3.3824,3.3437,3.3058,3.2665,3.2238,3.0662,2.9871,2.9546,2.9546,2.9098,2.8359,2.764,2.7398,2.7341,2.7082,2.6996,2.6996,2.6996,2.6996,2.6996,2.6996,2.7262,2.7546,2.7546,2.7831,2.8131,2.8136,2.8131,2.8143,2.8212,2.8217,2.8234,2.8217,2.7004,2.5895,2.5632,2.5574,2.5486,2.5118,2.5089,0.0,2.4708,2.4633,2.4499,2.4175,2.4129,2.3855,2.3204,2.3128,2.2574,2.1354,2.121,2.0652,1.9412,1.9327,1.8865,1.7928,1.6876,1.6356,1.6343,0.0,0.0,0.0,0.0,0.0,0.0,0.0,0.0,0.0,0.0,0.0,0.0,0.0,0.0,0.0,0.0,0.0,0.0,0.0,0.0,0.0,2.6042,2.6563,2.6001,2.6747,2.7512,2.8059,2.8907,2.9646,3.0037,3.063,3.1302,3.2105,3.2619,3.3127,3.3713,3.382,3.4135,3.467,3.4723,3.4933,3.5418,3.5798,3.5992,3.5992,3.586,3.5826,3.5794,3.5569,3.5409,3.5312,3.5312,3.5099,3.4776,3.4658,3.4373,3.3863,3.1961,3.1013,3.0721,3.0721,3.0452,3.0037,2.9835,2.9616,2.9374,2.9331,2.9283,2.9283,2.9283,2.9131,2.8948,2.8948,2.8837,2.8742,2.8742,2.8831,2.8906,2.8888,2.8906,2.891,2.8922,2.8909,2.8846,2.8626,2.8216,2.7847,2.7508,2.7446,2.7353,2.6996,2.6717,0.0,2.6091,2.5617,2.5289,2.5182,2.4745,2.4404,2.419,2.3526,2.2948,2.259,2.1718,2.1048,2.0696,2.0006,1.9226,1.8282,1.7743,1.7383,0.0,0.0,0.0,0.0,0.0,0.0,0.0,0.0,0.0,0.0,0.0,0.0,0.0,0.0,0.0,0.0,0.0,0.0,0.0,0.0,0.0,0.0,2.7635,2.8268,2.8844,2.8962,2.9187,2.9752,3.0481,3.1137,3.1715,3.2206,3.2803,3.3522,3.4182,3.4758,3.5248,3.5537,3.5891,3.6326,3.6414,3.6562,3.6834,3.7343,3.7591,3.7591,3.7625,3.7644,3.7644,3.7445,3.7278,0.0,3.7145,3.6844,3.631,3.613,3.5699,0.0,0.0,0.0,0.0,0.0,3.1854,3.1678,3.1508,3.1215,3.0879,3.0723,3.055,3.039,3.0235,3.0062,2.9906,2.9906,2.9909,2.9915,3.0077,3.0257,3.0387,3.0388,3.0298,3.0109,2.9999,2.9825,2.9655,2.9446,2.9415,0.0,2.8936,2.8487,2.8123,2.7933,2.7715,2.7423,2.7094,2.674,2.6325,2.5899,2.5504,2.508,2.4641,2.4065,0.0,0.0,0.0,2.1777,2.121,2.0538,0.0,0.0,0.0,1.8246,1.8144,0.0,0.0,0.0,1.5728,1.5589,0.0,0.0,0.0,0.0,0.0,0.0,0.0,0.0,0.0,0.0,0.0,0.0,0.0,0.0,0.0,0.0,2.9235,3.007,3.1797,3.1309,3.0971,3.1447,3.1892,3.2459,3.3185,3.3719,3.4211,3.4703,3.5558,3.6255,3.6725,0.0,0.0,0.0,0.0,3.8103,3.821,3.8692,3.8928,3.8949,3.9348,3.9571,3.9571,3.9502,3.933,3.9053,3.9053,3.8621,3.7906,3.7502,3.6864,3.6076,3.5087,3.451,3.4175,3.3516,3.3253,3.3163,3.2796,0.0,0.0,3.169,3.1352,3.099,3.0648,3.0541,3.0541,3.0479,3.0717,3.1098,3.1446,3.1799,3.21,3.2147,3.1881,3.1529,3.1231,3.0897,3.0633,3.06,3.06,3.047,3.0075,2.9092,2.8386,2.8323,2.8289,2.8159,2.7875,2.7761,2.7357,2.6477,0.0,0.0,2.4875,2.4657,2.4362,2.3733,2.3315,2.2574,2.1341,2.0953,2.0609,2.0265,1.9454,1.9045,1.9045,1.8244,1.7964,1.8192,1.7231,1.6844,0.0,0.0,0.0,0.0,0.0,0.0,0.0,0.0,0.0,0.0,0.0,0.0,0.0,0.0,0.0,2.9307,3.0762,3.1967,3.2373,3.3548,3.4136,3.3372,3.3732,3.4205,3.4715,3.5591,3.6309,3.6788,3.7353,3.7866,3.8313,3.8171,3.8497,3.9325,3.9139,3.9403,4.0149,4.0252,4.0303,4.0325,0.0,0.0,3.9984,3.964,3.9468,3.9399,3.9399,3.9164,3.8771,3.869,3.8381,3.778,3.554,3.4674,3.4589,3.4446,3.423,3.3981,3.3904,3.3664,3.3325,3.326,3.317,3.3048,3.2721,3.2641,0.0,3.2228,3.2184,3.2258,3.2349,3.2423,3.2496,3.2503,3.2433,3.2378,3.2311,3.2223,3.2102,3.1802,3.1769,3.1653,3.1318,3.0283,2.9401,2.9126,2.8854,2.8665,2.8601,2.8056,2.7615,2.7437,2.6668,2.6143,2.5903,2.5096,2.4547,2.4424,2.3573,2.2753,2.1955,2.1397,2.0943,2.0592,2.016,1.9939,1.9966,1.9566,1.9388,1.9404,1.806,1.7691,0.0,0.0,0.0,0.0,0.0,0.0,0.0,0.0,0.0,0.0,0.0,2.7877,2.8603,0.0,3.0829,3.1305,3.2341,3.3302,3.4069,3.4881,3.5206,3.4659,3.5251,3.5982,3.6713,3.7244,3.7842,3.8595,3.8949,3.9308,3.977,3.9713,3.9975,4.0658,4.0568,4.0717,4.1192,4.128,4.1285,4.1306,4.114,4.1038,4.1038,4.0675,4.05,4.05,4.029,3.997,3.9589,3.919,3.8914,3.8604,3.7169,3.6471,3.6248,3.5829,3.5582,3.5428,3.5162,3.4868,3.4527,3.4375,3.4122,3.3884,3.3572,3.3472,3.3406,3.3188,3.3022,3.2944,3.3166,3.3053,3.2955,3.3156,3.3046,3.2918,3.2918,3.2735,3.2554,3.2372,3.2338,3.2238,3.192,3.1345,3.0709,2.9955,2.9585,2.9265,2.9076,2.8742,2.8393,2.8047,2.7544,2.7044,2.6515,2.5623,2.496,2.4625,2.4142,2.356,2.2881,2.2567,2.2093,2.1449,2.1117,2.0787,2.0459,2.0146,2.0178,2.0482,1.9552,1.9068,0.0,0.0,0.0,0.0,0.0,0.0,0.0,2.6652,2.7358,2.8037,2.8703,2.9497,3.0605,3.1598,3.2568,3.3444,3.3953,3.4614,3.5818,3.6075,3.6156,3.6156,3.6769,3.7587,3.8597,3.8777,3.9203,4.0114,4.0377,4.0684,4.115,4.1276,4.1517,4.1943,4.1932,4.1975,4.1983,4.2102,4.2189,4.2276,4.2257,4.2294,4.2401,4.2046,4.1846,4.1705,4.1209,4.0746,4.0288,3.9637,3.9368,3.9333,3.9004,3.8653,3.8241,3.7306,3.6936,3.6897,3.6421,3.6055,3.5728,3.5438,3.5119,3.4748,3.438,3.4279,3.4279,3.4212,3.3977,3.385,3.4078,3.3845,3.3626,3.3865,3.3613,3.3306,3.3306,3.3065,3.2826,3.2826,3.2826,3.2743,3.2473,3.2372,3.1906,3.0689,3.0303,2.9931,2.947,2.9419,2.9183,2.8549,2.8383,2.7876,2.6792,2.6087,2.5451,2.4817,2.4658,2.4362,2.381,2.3673,2.3236,2.2493,2.2076,2.1634,2.1083,2.0735,2.0853,2.1393,2.1119,2.0587,2.5294,2.5672,2.6244,2.6742,2.6975,2.7256,0.0,2.8211,2.8892,3.0304,3.0681,3.1197,3.2676,3.3451,3.4038,3.465,3.5631,3.6422,3.658,3.7901,3.8876,3.8876,3.8496,3.862,3.9621,4.0092,4.0563,4.1091,4.1607,4.21,4.2559,4.2582,4.2694,4.2845,4.2845,4.2894,4.3044,4.304,4.3259,4.3673,4.3327,4.335,4.3781,4.3455,4.3039,4.2506,4.1748,4.1182,4.08,4.0702,4.0681,4.0646,4.0238,4.006,3.9851,3.8316,3.7773,3.7702,3.7308,3.7129,3.709,3.7055,3.7016,3.6872,3.6467,3.6361,3.6291,3.6009,3.5868,3.5811,3.5489,3.51,3.4727,3.441,3.4022,3.3709,3.3709,3.3707,3.367,3.367,3.367,3.3635,3.3601,3.3377,3.2675,3.116,3.0903,3.0612,2.9915,2.983,2.9693,2.9216,2.8665,2.7876,2.6792,2.6339,2.594,2.5516,2.4928,2.4563,2.4485,2.3917,2.3551,2.3461,2.2898,2.2557,2.2468,2.2157,2.2008,2.2111,2.2037,2.1814,2.6866,2.7168,2.7679,2.8243,2.8528,2.8823,2.9374,2.9851,3.0403,3.1042,3.1804,3.263,3.3594,3.4418,3.5241,0.0,3.6898,3.7637,3.8246,3.9231,4.0099,4.0705,4.082,4.0862,4.0895,4.1311,4.1811,4.2311,4.2615,4.3014,4.3477,4.3298,4.3388,4.3731,4.4021,4.4093,4.3894,4.4216,4.4351,4.4312,4.4133,4.417,4.433,4.3968,4.357,4.3124,4.2572,4.2234,4.2032,4.1835,4.156,4.1276,4.1131,4.0895,4.0479,3.9101,3.8597,3.8522,3.7896,3.7656,3.7621,3.7375,3.7305,3.7269,3.7109,3.7038,3.7003,3.6862,3.6649,3.6469,3.6297,3.5958,3.5637,3.5503,3.5149,3.4867,3.4867,3.4655,3.4423,3.4202,3.4147,3.4073,3.3853,3.3678,3.3326,3.2465,3.177,3.1147,3.0629,3.0341,3.0069,2.9693,2.9021,2.8323,2.7697,2.7098,2.6632,2.6263,2.5562,2.5168,2.5168,2.4727,2.4292,2.3908,2.3638,2.3321,2.2989,2.2632,2.2557,2.272,2.2523,2.2576,2.8907,2.9035,2.9238,2.9633,3.0049,3.0472,3.0842,3.1508,3.2062,3.214,3.3053,3.4004,3.4617,3.5446,3.6393,3.7483,3.7965,3.8594,3.9679,4.0328,4.1052,4.1915,4.2597,4.281,4.234,4.2506,4.2917,4.3464,4.3601,4.3868,4.4368,4.429,4.4345,4.4648,4.5097,4.5156,4.479,4.5181,4.5246,4.4982,4.4982,4.4975,4.4976,4.4554,4.4162,4.3812,4.3392,4.3166,4.302,4.2617,4.2282,4.1934,4.1825,4.1581,4.1178,4.031,3.9759,3.9318,3.8662,3.8401,3.833,3.794,3.7834,3.7798,3.7692,3.7656,3.7656,3.7656,3.7459,3.719,3.7055,3.6786,3.6518,3.6368,3.6046,3.576,3.5599,3.5367,3.5043,3.4623,3.4568,3.444,3.4037,3.3982,3.384,3.3487,3.2679,3.1858,3.125,3.0736,3.0258,2.9932,2.9426,2.8906,2.847,2.7849,2.7311,2.6858,2.6263,2.5865,2.5771,2.5532,2.5185,2.4701,2.4578,2.4347,2.3886,2.3536,2.3489,2.3684,2.3312,2.3407,3.1371,3.1377,3.1009,3.1034,3.1681,3.2321,3.2345,3.316,3.4003,3.4238,3.475,3.5405,3.6195,3.677,3.7491,3.8596,3.895,3.9446,4.0516,4.1294,4.1962,4.2503,4.3443,4.4031,0.0,4.3735,4.3822,4.4507,4.4566,4.4796,4.5335,4.5771,4.5874,4.5571,4.6025,4.6098,4.5765,4.5765,4.5819,4.5851,4.5851,4.5889,4.5937,4.5463,4.5025,4.4629,4.4162,4.3786,4.3459,4.3057,4.2874,4.2816,4.2412,4.2265,4.2244,4.2244,4.1373,4.0218,3.9782,3.9638,3.9602,3.9245,3.9136,3.9063,3.8681,3.8571,3.8571,3.8571,3.8535,3.8437,3.7972,3.7623,3.7239,3.6781,3.6437,3.6081,3.5689,3.5582,3.5475,3.5044,3.4973,3.4844,3.4458,3.4385,3.4257,3.3837,3.3504,3.282,3.1738,3.0909,3.0258,2.9932,2.9881,2.9561,2.8857,2.8454,2.7944,2.7214,2.6842,2.652,2.62,2.6184,2.6168,2.6136,2.5832,2.5639,2.5624,2.527,2.5109,2.5124,2.4722,2.4543,3.1912,3.2311,3.2643,3.2643,3.3193,3.3727,3.3727,3.4135,3.4638,3.5108,3.5623,3.6309,3.7333,3.7788,3.8362,3.9425,3.9781,4.0357,4.1412,4.209,4.2651,4.3122,4.4125,0.0,0.0,0.0,0.0,4.5322,4.5415,4.5697,4.623,4.6174,4.6218,4.6434,4.6902,4.6975,4.6581,4.6956,4.7023,4.6778,4.6485,4.6219,4.6002,4.5849,4.5688,4.5518,4.5107,4.4857,4.4746,4.4337,4.3811,4.3278,4.3129,4.2777,4.2285,4.2285,4.2026,4.1533,4.0788,4.0338,4.0058,3.9662,3.9373,3.9176,3.903,3.8793,3.8611,3.8611,3.8611,3.8571,3.8398,3.8287,3.8175,3.8003,3.7675,3.7368,3.7204,3.6986,3.6619,3.5921,3.5793,3.5591,3.4916,3.4789,3.4643,3.4275,3.3667,3.2962,3.2053,3.1496,3.1047,3.0652,3.0189,2.9813,2.9544,2.8973,2.8524,2.8294,2.7491,2.6987,2.6858,2.644,2.6216,2.6216,2.6088,2.6024,2.6024,2.5686,2.5525,2.5525,2.517,2.5083,3.3091,3.3602,3.4146,3.4146,3.4549,3.4936,3.4936,3.5176,3.5512,3.596,3.6455,3.7097,3.7932,3.8538,3.9165,4.0044,4.0488,4.112,4.2262,4.2721,4.3144,4.3721,4.4724,4.5422,0.0,0.0,0.0,4.5969,4.6204,4.6444,4.668,4.6785,4.6934,4.7138,4.7643,4.7751,4.7499,4.7854,4.7794,4.7428,4.6854,4.6448,4.6225,4.6077,4.6002,4.6002,4.5742,4.563,4.5592,4.5181,4.4672,4.4172,4.3873,4.3443,4.2969,4.282,4.2679,4.2435,4.1723,4.1264,4.0945,4.0545,4.0153,3.9814,3.9523,3.9149,3.8756,3.8647,3.8611,3.8611,3.8611,3.8611,3.8611,3.8611,3.8392,3.8192,3.8009,3.7789,3.7363,3.6586,3.6421,3.6144,3.5338,3.5083,3.4844,3.4458,3.4026,3.3353,3.2421,3.2018,3.1566,3.1063,3.0583,3.0241,3.0104,2.9511,2.9142,2.9025,2.8229,2.7654,2.7392,2.6954,2.668,2.655,2.655,2.655,2.655,2.6338,2.6256,2.6223,2.5882,2.5841,3.4813,3.5252,3.5557,3.5557,3.5743,3.5945,3.5945,3.6214,3.6485,3.682,3.7295,3.7742,3.8107,3.9016,3.99,4.0441,4.0982,4.1752,4.3046,4.3206,4.3529,0.0,0.0,0.0,0.0,0.0,0.0,4.6553,0.0,4.7126,4.6841,4.7714,4.8071,4.7689,4.8184,4.8437,4.84,4.84,4.8196,4.7794,4.7002,4.6633,4.6596,4.6188,4.6002,4.6002,4.6002,4.6002,4.5965,4.5592,4.5405,4.533,4.4541,4.4239,4.4125,4.3767,4.3346,4.289,4.2513,4.2327,4.2212,4.1863,4.1428,4.0878,4.0144,3.9609,3.9199,3.8835,3.8725,3.8669,3.865,3.865,3.865,3.8611,3.8611,3.8501,3.8119,3.8009,3.7789,3.6997,3.6812,3.6534,3.5779,3.5284,3.4881,3.4532,3.4422,3.401,3.286,3.2368,3.1843,3.1149,3.1028,3.0857,3.0463,3.0138,2.9781,2.948,2.9076,2.8527,2.7799,2.7716,2.755,2.7234,2.72,2.72,2.72,2.72,2.72,2.72,2.6867,2.6733,3.5687,3.6041,3.6302,3.6302,3.6559,3.6785,3.6785,3.6726,3.687,3.7808,3.7939,3.8166,3.9116,3.9683,4.0172,4.069,4.1068,4.1836,4.337,4.3561,4.3948,4.4933,0.0,4.6262,4.6262,4.7003,0.0,0.0,4.7712,4.7935,4.8613,4.865,4.8661,4.8627,4.8766,4.8691,4.84,4.84,4.8196,4.7794,4.7612,4.7186,4.6596,4.6485,4.6299,4.6002,4.6002,4.6002,4.6002,4.5891,4.5667,4.5368,4.5181,4.473,4.4163,4.4088,4.3798,4.3428,4.3304,4.2828,4.2285,4.2195,4.1855,4.1457,4.1272,4.0932,4.0535,4.0127,4.0035,3.9882,3.9195,3.9043,3.8965,3.8689,3.8611,3.8574,3.8465,3.8428,3.8282,3.7789,3.7218,3.6627,3.6109,3.5687,3.5394,3.532,3.4788,3.4081,3.3245,3.2806,3.2368,3.1878,3.1322,3.0977,3.0874,3.0481,3.0258,3.0156,2.9581,2.9177,2.896,2.8162,2.7667,2.7584,2.7334,2.72,2.72,2.72,2.72,2.72,2.71,2.7067,3.6556,3.691,3.7173,3.7173,3.72,3.7297,3.7297,3.7062,3.713,3.7995,3.8182,3.844,3.9322,3.9921,4.0438,4.1012,4.1425,4.223,4.3721,4.3914,4.4275,4.5208,4.6071,0.0,4.6389,4.7198,4.7977,0.0,4.8458,4.8635,4.9272,4.9322,4.9321,4.9209,4.9088,4.8799,4.84,4.84,4.8291,4.805,4.7868,4.7575,4.7112,4.6743,4.6485,4.6262,0.0,4.6002,4.6002,4.6002,4.5853,4.5667,4.548,4.5106,4.4692,4.4315,4.4071,4.3843,4.3653,4.3284,4.2849,4.2849,4.2575,4.2187,4.2058,4.1729,4.1286,4.0876,4.0614,4.0387,3.9906,3.9661,3.9453,3.9219,3.9004,3.8848,3.8848,3.8711,3.8465,3.8082,3.7329,3.6738,3.6516,3.6128,3.5815,3.565,3.5229,3.4662,3.3866,3.3299,3.2736,3.214,3.1721,3.1426,3.1286,3.0909,3.0652,3.0652,3.0123,2.9784,2.9631,2.8859,2.8294,2.7977,2.7598,2.7367,2.72,2.72,2.728,2.7439,2.7439,2.7518,3.7338,3.7712,3.7923,3.79,3.7739,3.7551,3.7551,3.7343,3.7311,3.7826,3.8146,3.851,3.9094,3.9827,4.0527,4.1102,4.1681,4.2554,4.3871,4.4161,4.4516,4.5261,4.6302,4.6834,4.6548,4.7426,4.8331,4.9091,4.9119,4.9211,4.9461,4.9937,4.9997,4.958,4.9196,4.8835,4.8473,4.8437,4.84,4.84,4.805,4.7831,4.7794,4.7075,4.6707,4.6596,4.6225,0.0,4.6002,4.6002,4.6002,4.5965,4.563,4.5443,4.533,4.4617,4.4277,4.4125,4.3805,4.3653,4.3615,4.3615,4.3308,4.2939,4.2659,4.228,4.1878,4.1468,4.1093,4.0793,4.0621,4.03,4.0036,3.994,3.959,3.9297,3.9297,3.8965,3.8543,3.8101,3.7458,3.6923,3.6812,3.6497,3.6128,3.5742,3.5614,3.5357,3.466,3.3867,3.307,3.2263,3.214,3.1965,3.163,3.1268,3.1097,3.1097,3.0686,3.0344,3.0053,2.9682,2.9177,2.8501,2.8075,2.7695,2.741,2.7377,2.7502,2.777,2.777,2.7913,3.7881,3.8088,3.8099,3.7946,3.7854,3.7831,3.7831,3.7621,3.7591,3.8112,3.8102,3.8246,3.9068,3.9297,3.9702,4.0527,4.1102,4.1879,4.3031,4.3955,4.4753,4.5399,4.6575,4.73,4.7212,4.7686,0.0,0.0,4.9256,4.9517,5.0398,5.0542,5.0412,4.9997,4.934,4.8944,4.8908,4.8582,4.84,4.84,4.8328,4.8123,4.7794,4.7648,4.7222,4.6596,4.6522,0.0,4.6002,4.6002,4.6002,4.6002,4.5928,4.5704,4.5368,4.5256,4.4767,4.4163,4.4125,4.3881,4.3615,4.3615,4.3553,4.3453,4.3415,4.3335,4.3198,4.2779,4.2627,4.2317,4.1289,4.0924,4.0731,4.0056,3.9824,3.9766,3.9766,3.9414,3.8893,3.8159,3.7899,3.7568,3.6923,3.6738,3.6571,3.6146,3.5834,3.5559,3.543,3.4449,3.348,3.2667,3.2298,3.1965,3.163,3.1543,3.1509,3.1509,3.1114,3.0874,3.0805,3.0173,2.9731,2.9629,2.8948,2.8573,2.8521,2.8196,2.8074,2.8103,2.8103,2.8135,3.8323,3.8368,3.819,3.808,3.7992,3.79,3.79,3.7808,3.7794,3.8031,3.8105,3.8253,3.8647,3.9087,3.9601,4.0181,4.0962,4.1841,4.2838,4.3915,4.4815,4.5422,4.6776,4.7589,4.7426,4.8105,4.8861,4.9534,4.946,4.9749,5.0648,5.0696,5.0519,5.0104,4.9747,4.9376,4.898,4.8799,4.8618,4.84,4.84,4.8328,4.8086,4.7904,4.7612,4.7186,4.678,0.0,4.6299,4.6077,4.6002,4.6002,4.6002,4.5891,4.5704,4.548,4.5143,4.4767,4.4352,4.405,4.3881,4.3691,4.3615,4.3615,4.3615,4.3615,4.3577,4.3348,4.3157,4.2848,4.2243,4.1762,4.1377,4.0969,4.0543,4.0156,3.9941,3.9531,3.9104,3.8687,3.831,3.7862,3.7495,3.7071,3.6738,3.6553,3.6165,3.5852,3.565,3.5139,3.4413,3.3427,3.2773,3.2263,3.1912,3.17,3.1595,3.1595,3.144,3.1302,3.1302,3.077,3.0393,3.0221,2.9658,2.9283,2.9112,2.8717,2.8606,2.8747,2.8573,2.8614,3.8473,3.8514,3.8281,3.8213,3.8057,3.79,3.79,3.79,3.79,3.79,3.8054,3.8228,3.8286,3.8968,3.962,3.9931,4.0946,4.1929,4.2647,4.3818,4.4765,4.5246,4.6853,4.7783,4.7527,4.8458,0.0,4.9805,4.9894,5.0163,5.0648,5.0696,5.0554,5.0246,5.0139,4.9783,4.9124,4.9052,4.8799,4.84,4.84,4.84,4.84,4.805,4.7868,4.7758,4.7112,0.0,0.0,4.6262,4.6077,4.6002,4.6002,4.6002,4.5965,4.5667,4.548,4.5293,4.4692,4.4352,4.4125,4.3843,4.3691,4.3615,4.3615,4.3615,4.3615,4.3615,4.3386,4.3119,4.3024,4.2467,4.1889,4.1695,4.113,4.0547,4.0117,3.9746,3.9434,3.9238,3.8687,3.8198,3.8028,3.7421,3.6886,3.6812,3.6479,3.6091,3.5779,3.5632,3.5266,3.4341,3.3463,3.272,3.2158,3.1876,3.1665,3.1595,3.1595,3.1595,3.1595,3.1285,3.0992,3.0731,3.0356,2.9998,2.9756,2.9341,2.9279,2.952,2.9273,2.9241,3.8032,3.8354,3.8512,3.8258,3.8057,3.79,3.79,3.79,3.79,3.79,3.7929,3.8019,3.8256,3.8803,3.9325,3.9595,4.0796,4.1729,4.1804,4.3428,4.4614,4.4665,4.6602,4.7877,4.7845,4.8618,4.952,5.0512,5.0852,5.0963,5.0696,5.0696,5.066,5.0625,5.0282,4.989,4.9473,4.916,4.8799,4.84,4.84,4.84,4.84,4.8364,4.8123,4.7794,4.7721,0.0,0.0,4.6559,4.6336,4.6002,4.6002,4.6002,4.6002,4.5965,4.5704,4.5405,4.533,4.4805,4.4201,4.4163,4.3919,4.3615,4.3615,4.3615,4.3615,4.3615,4.3577,4.3462,4.3081,4.2659,4.2139,4.1444,4.1172,4.0996,4.0566,4.0391,4.0156,3.9355,3.9143,3.8839,3.8123,3.7642,3.7218,3.6849,3.6479,3.6201,3.6164,3.5834,3.5559,3.5449,3.4467,3.3321,3.221,3.207,3.1912,3.163,3.1595,3.1595,3.1595,3.156,3.1543,3.1508,3.1086,3.0857,3.0874,3.0449,3.0288,3.0285,3.0285,3.0124,3.759,3.7747,3.769,3.74,3.7206,3.7006,3.6851,3.6828,3.6828,3.6828,3.7116,3.7384,3.7479,3.8285,3.8995,3.9299,4.0412,4.1336,4.1631,4.3215,4.4439,4.4593,4.6547,4.7908,4.7908,4.881,4.9749,5.0613,5.1019,5.1141,5.1025,5.0802,5.0696,5.0696,5.0554,5.0246,4.989,4.9496,4.9101,4.8763,4.8509,4.84,4.84,4.84,4.8328,4.8123,4.7904,0.0,0.0,4.6707,4.6374,4.6002,4.6002,4.6002,4.6002,4.6002,4.5891,4.5742,4.548,4.5031,4.4504,4.4277,4.3957,4.3615,4.3615,4.3615,4.3615,4.3615,4.3615,4.3577,4.3386,4.2889,4.2254,4.1695,4.1366,4.1172,4.0957,4.0703,4.0372,4.0059,3.957,3.9123,3.8763,3.82,3.7642,3.7218,3.6812,3.646,3.6238,3.6072,3.5889,3.565,3.4576,3.3713,3.3215,3.2527,3.2035,3.1894,3.17,3.1595,3.1595,3.1595,3.1595,3.1595,3.1418,3.1347,3.1347,3.0975,3.0762,3.0762,3.0513,3.0335,3.7127,3.7223,3.7144,3.6973,3.6714,3.645,3.6275,3.6166,3.6096,3.6096,3.6593,3.7011,3.7011,3.7926,3.8848,3.9254,4.0196,4.1106,4.1712,4.3203,4.4301,4.4568,4.6547,4.7908,4.7908,4.9238,5.0287,5.0671,5.1147,5.1341,5.1211,5.0908,5.0696,5.0696,5.0696,5.0519,5.0104,4.9818,4.946,4.898,4.8727,4.8509,4.84,4.84,4.84,4.84,4.8086,0.0,0.0,4.6928,4.6522,4.6151,4.6039,4.6002,4.6002,4.6002,4.6002,4.5965,4.5667,4.5293,4.4918,4.4504,4.4088,4.3767,4.3653,4.3615,4.3615,4.3615,4.3615,4.3577,4.3462,4.3004,4.2447,4.1927,4.1579,4.1327,4.1211,4.0937,4.0684,4.0547,4.0019,3.9512,3.9238,3.8633,3.8052,3.7661,3.7144,3.6701,3.6386,3.6275,3.6109,3.5815,3.4957,3.4287,3.3944,3.302,3.2351,3.2105,3.1876,3.17,3.1595,3.1595,3.1595,3.1595,3.1595,3.1595,3.1595,3.1312,3.117,3.117,3.0904,3.0691,3.6605,3.6899,3.7187,3.7187,3.6844,3.6493,3.6493,3.6297,3.6096,3.6096,3.6593,3.7011,3.7011,3.7926,3.8919,3.952,4.0346,4.1183,4.1976,4.3314,4.4301,4.4568,4.6547,4.7908,4.7908,4.9941,5.1114,5.0746,5.1388,0.0,5.1211,5.0908,5.0696,5.0696,5.0696,5.0519,5.0104,5.0104,4.9735,4.898,4.898,4.8799,4.84,4.84,4.84,4.84,0.0,0.0,0.0,4.7355,4.6965,4.6559,4.6151,4.6002,4.6002,4.6002,4.6002,4.6002,4.6002,4.5742,4.533,4.4918,4.4504,4.4125,4.3729,4.3615,4.3615,4.3615,4.3615,4.35,4.3119,4.3004,4.2774,4.2005,4.1811,4.1657,4.1288,4.1211,4.1074,4.0605,4.0469,4.0196,3.9355,3.8885,3.8453,3.803,3.7292,3.6812,3.6812,3.6442,3.6201,3.6201,3.5852,3.5139,3.3981,3.353,3.2946,3.214,3.2105,3.193,3.1595,3.1595,3.1595,3.1595,3.1595,3.1595,3.1595,3.1595,3.1595,3.1595,3.1595,3.1383,3.5852,3.6083,3.6136,3.6019,3.5874,3.566,3.5415,3.5289,3.5157,3.4989,3.5417,3.594,3.6332,3.7011,3.8004,3.939,3.9816,4.0579,4.2215,4.3283,4.4181,4.4864,4.6698,4.8209,4.8987,5.0419,5.1239,5.1139,5.179,5.203,5.1621,5.1236,5.0919,5.0696,5.0696,5.0625,5.0519,5.0246,4.9854,4.9353,4.9124,4.8799,4.84,4.84,4.84,0.0,0.0,0.0,0.0,4.7648,4.7186,4.6596,4.6448,4.6225,4.6002,4.6002,4.6002,4.6002,4.6002,4.5742,4.5368,4.5256,4.4767,4.4184,4.405,4.3843,4.3615,4.3615,4.3615,4.3577,4.3424,4.3195,4.2948,4.2659,4.2197,4.1773,4.1618,4.1405,4.1172,4.0996,4.0723,4.0332,3.9766,3.9302,3.8767,3.8103,3.7568,3.7107,3.6849,3.6442,3.6201,3.6201,3.5852,3.5339,3.4701,3.4069,3.3479,3.2964,3.2403,3.2035,3.193,3.1736,3.1595,3.1595,3.1595,3.1595,3.1595,3.1595,3.1595,3.1595,3.1595,3.1524,3.5147,3.5364,3.5378,3.5474,3.5447,3.5331,3.4983,3.4839,3.4714,3.446,3.5025,3.5704,3.6044,3.6776,3.7848,3.934,3.9599,4.0287,4.232,4.3399,4.4563,4.615,4.7262,4.836,4.949,5.0619,5.1306,5.1306,5.1995,5.2238,5.182,5.1411,5.106,5.0696,5.0696,5.0696,5.0696,5.0448,5.0139,4.9723,4.9353,4.898,4.8618,4.8473,4.84,0.0,0.0,0.0,0.0,4.7868,4.7428,4.6817,4.667,4.6336,4.6002,4.6002,4.6002,4.6002,4.6002,4.5853,4.5592,4.5443,4.4843,4.4201,4.4201,4.3919,4.3615,4.3615,4.3615,4.3615,4.3615,4.3424,4.3195,4.3063,4.2621,4.2159,4.1889,4.1579,4.1366,4.1211,4.0957,4.0625,4.0195,3.9766,3.9242,3.8556,3.7995,3.7495,3.7071,3.6701,3.6367,3.6201,3.5981,3.565,3.5247,3.452,3.3924,3.3548,3.2913,3.2439,3.2105,3.1912,3.1736,3.1595,3.1595,3.1595,3.1595,3.1595,3.1595,3.1595,3.1595,3.1595,0.0,3.4713,3.4883,3.55,3.5494,3.5338,3.5141,3.4962,0.0,3.4481,3.5307,3.6044,3.6096,3.709,3.8266,3.9416,3.9677,4.0415,4.2346,4.3639,4.5376,4.8085,4.8094,4.836,4.949,5.0619,5.1306,5.1306,5.1995,5.2273,5.1855,5.1481,5.1095,5.0731,5.0696,5.0696,5.0696,5.0696,5.0519,5.0104,4.9723,4.9353,4.9003,4.8618,4.8437,0.0,0.0,0.0,0.0,4.7977,4.7612,4.7186,4.678,4.6411,4.6039,4.6002,4.6002,4.6002,4.6002,4.6002,4.5928,4.5518,4.488,4.4277,4.4201,4.3919,4.3615,4.3615,4.3615,4.3615,4.3615,4.3615,4.35,4.3119,4.3024,4.2774,4.2043,4.185,4.1695,4.1327,4.1211,4.1035,4.0605,4.0176,3.9746,3.9277,3.8536,3.7862,3.7495,3.7071,3.6664,3.6275,3.6201,3.6054,3.565,3.4935,3.4335,3.3962,3.3548,3.2999,3.2211,3.214,3.1982,3.163,3.1595,3.1595,3.1595,3.1595,3.1612,3.1646,3.1646,3.1646,3.3286,0.0,3.426,3.4856,3.4972,3.5008,0.0,3.5188,3.4962,3.4756,3.5126,3.56,3.6018,3.709,3.8266,3.9416,4.0332,4.1377,4.271,4.4256,4.602,4.8156,4.8094,4.836,4.949,5.0619,5.1306,5.1306,5.2234,5.2619,5.2273,5.189,5.1481,5.1095,5.0837,5.0696,5.0696,5.0696,5.0519,5.0104,4.9997,4.9604,4.898,4.8908,4.8691,0.0,0.0,0.0,4.8377,4.8328,4.8013,4.7612,4.7245,4.6817,4.6411,4.6114,4.6002,4.6002,4.6002,4.6002,4.5928,4.5518,4.5256,4.4993,4.439,4.3919,4.3615,4.3615,4.3615,4.3615,4.3615,4.3615,4.3577,4.3462,4.3233,4.2927,4.2736,4.2236,4.1773,4.1657,4.1405,4.1035,4.0605,4.0176,3.9746,3.9277,3.8536,3.7972,3.7862,3.7218,3.6775,3.6664,3.6386,3.6164,3.6072,3.5614,3.5028,3.4334,3.3942,3.355,3.3034,3.2736,3.2368,3.1965,3.1736,3.1595,3.1595,3.1595,3.1713,3.1969,3.1969,3.2159,3.2517,3.3096,3.3737,3.4605,3.4802,3.4898,3.5319,3.5331,3.5147,3.4859,3.5358,3.5886,3.6066,3.7299,3.8579,3.9444,4.0566,4.1978,4.3911,4.5091,4.6443,4.8396,4.8311,4.8517,0.0,5.0368,5.0996,5.1272,5.2076,5.2482,5.2387,5.203,5.1621,5.1211,5.0873,5.0696,5.0696,5.0696,5.059,5.0377,5.0175,4.9783,4.9209,4.9052,4.8763,0.0,0.0,0.0,4.84,4.84,4.8159,4.7794,4.7575,4.7134,4.6559,4.6374,4.6151,4.6002,4.6002,4.6002,4.5965,4.5742,4.5555,4.533,4.488,4.4315,4.3843,4.3653,4.3615,4.3615,4.3615,4.3615,4.3615,4.3615,4.3424,4.3233,4.3042,4.2505,4.2043,4.185,4.1483,4.1132,4.0859,4.0312,3.9805,3.9551,3.88,3.8228,3.8009,3.7642,3.7218,3.6849,3.6627,3.6405,3.6201,3.6017,3.5614,3.5009,3.461,3.425,3.389,3.3445,3.2967,3.2384,3.2207,3.208,3.2109,3.2109,3.2193,3.2381,3.2381,3.2484,3.2037,3.2572,3.3232,3.4388,3.4666,3.479,3.5332,3.5406,3.5311,3.5027,3.5775,3.6459,3.6402,3.7717,3.9076,3.9756,4.0984,4.2762,4.5374,4.5957,4.6837,4.8666,4.8615,0.0,4.9522,5.0092,5.067,5.1247,5.18,5.2216,5.2466,5.2099,5.1691,5.1282,5.0954,5.0731,5.0696,5.0696,5.0696,5.0696,5.0353,4.9997,4.958,4.9209,4.8871,4.8509,0.0,0.0,4.84,4.84,4.8196,4.7904,4.7831,4.7392,4.678,4.6633,4.6374,4.6077,4.6002,4.6002,4.6002,4.6002,4.5779,4.548,4.5405,4.4918,4.4277,4.3843,4.3653,4.3615,4.3615,4.3615,4.3615,4.3615,4.3615,4.35,4.3157,4.2774,4.237,4.1966,4.156,4.1288,4.1211,4.0508,3.9961,3.9902,3.9199,3.8543,3.8119,3.8045,3.7715,3.696,3.6849,3.6627,3.6238,3.6201,3.6054,3.5687,3.5302,3.4938,3.4577,3.4179,3.3696,3.3,3.2893,3.2834,3.2782,3.2782,3.278,3.2812,3.2812,3.2809,3.2037,3.2255,3.2608,3.3745,3.4043,3.4322,3.5405,3.5507,3.5465,3.5704,3.6151,3.6722,3.7475,3.8632,3.9808,4.0855,4.284,4.4775,4.6159,4.6583,4.7302,4.8748,0.0,4.8705,4.9522,5.0092,5.067,5.1247,5.18,5.2318,5.2801,5.2515,5.2134,5.1716,5.1341,5.0989,5.0696,5.0696,5.0696,5.0696,5.0625,5.0412,4.9997,4.958,4.9245,4.8871,0.0,4.84,4.84,4.84,4.8341,4.8268,4.7941,4.7721,4.7538,4.6854,4.6559,4.6448,4.6114,4.6002,4.6002,4.6002,4.5965,4.5853,4.5518,4.5293,4.5068,4.4315,4.386,4.3615,4.3615,4.3615,4.3615,4.3615,4.3615,4.3577,4.3539,4.3195,4.2774,4.237,4.2005,4.1579,4.125,4.0762,4.0312,3.9941,3.9453,3.8984,3.856,3.8228,3.7826,3.7365,3.6997,3.6627,3.6238,3.6201,3.6182,3.6127,3.5742,3.5339,3.4937,3.4594,3.4342,3.4234,3.391,3.353,3.32,3.32,3.321,3.3223,3.3223,3.3357,3.1956,3.2445,3.2879,3.3691,3.3908,3.4233,3.5418,3.5873,3.6074,3.6115,3.6684,3.7347,3.7945,3.8885,4.015,4.1926,4.3676,4.5194,4.6344,4.7117,4.8006,0.0,0.0,4.9341,4.9804,4.9913,5.0343,5.1222,5.1523,5.2026,5.2845,5.2585,5.2238,5.182,5.1411,5.106,5.0696,5.0696,5.0696,5.0696,5.0696,5.0483,5.0104,4.9688,4.9317,4.898,0.0,4.84,4.84,4.84,4.84,4.84,4.8218,4.7977,4.7721,4.6891,4.6448,4.6262,4.6077,4.6002,4.6002,4.6002,4.6002,4.5965,4.5779,4.5555,4.5293,4.4692,4.4239,4.3881,4.3653,4.3615,4.3615,4.3615,4.3615,4.3615,4.3615,4.3272,4.2927,4.2774,4.2236,4.1734,4.154,4.0955,4.0333,3.9961,3.9492,3.9043,3.8669,3.8428,3.8192,3.7789,3.7365,3.696,3.6553,3.6312,3.6201,3.6201,3.6036,3.576,3.5321,3.5194,3.4976,3.4757,3.4612,3.4409,3.4216,3.4012,3.3876,3.388,3.3655,3.3628,3.1875,3.2653,3.3232,3.3772,3.4016,3.4423,3.5635,3.628,3.6624,3.6686,3.7369,3.806,3.85,3.9559,4.1038,4.3075,4.4408,4.556,4.6554,4.7675,4.8655,4.9308,4.9647,4.9867,5.0078,4.9783,5.0017,5.0996,5.1197,5.1699,5.2644,5.2579,5.2342,5.196,5.1551,5.1165,5.0837,5.0731,5.0696,5.0696,5.0696,5.0554,5.0211,4.9795,4.946,4.9088,4.8727,4.8509,4.84,4.84,4.84,4.84,4.84,4.8159,4.7721,4.7002,4.6485,4.6114,4.6039,4.6002,4.6002,4.6002,4.6002,4.6002,4.6002,4.5779,4.548,4.5068,4.4654,4.4239,4.3729,4.3615,4.3615,4.3615,4.3615,4.3615,4.3615,4.3348,4.3119,4.3024,4.2428,4.1927,4.1811,4.1149,4.0508,3.998,3.959,3.918,3.8689,3.8611,3.8428,3.8045,3.7715,3.7329,3.6849,3.6423,3.6201,3.6201,3.6201,3.6072,3.576,3.576,3.5614,3.5265,3.5283,3.5224,3.5157,3.4837,3.4612,3.4536,3.4139,3.395,3.1875,3.2653,3.3232,3.3772,3.4314,3.5066,3.6252,3.6578,3.6868,3.779,3.8274,3.8777,3.9635,4.1421,4.3154,4.4381,4.5584,4.6578,4.715,0.0,4.9124,4.936,4.9647,4.9867,5.0078,4.9783,4.9841,5.0444,5.0971,5.1548,5.2126,5.2619,5.2723,5.2377,5.196,5.1551,5.1176,5.0873,5.0696,5.0696,5.0696,5.066,5.0625,5.0246,4.9854,4.9437,4.9124,4.8727,4.84,4.84,4.84,4.84,4.84,4.8159,4.7758,4.7318,4.6891,4.6485,4.6114,4.6002,4.6002,4.6002,4.6002,4.6002,4.6002,4.5965,4.5891,4.548,4.5068,4.4579,4.3805,4.3615,4.3615,4.3615,4.3615,4.3615,4.3615,4.3577,4.3462,4.3081,4.2659,4.2216,4.185,4.1443,4.0878,4.0019,3.9863,3.9531,3.8728,3.8611,3.8428,3.8045,3.7972,3.7642,3.6886,3.6423,3.6201,3.6201,3.6201,3.6201,3.6164,3.6164,3.6127,3.6127,3.6127,3.5922,3.5568,3.553,3.5306,3.4932,3.4536,3.4365,3.1875,3.2888,3.3656,3.3853,3.491,3.6062,3.6497,3.7175,3.7919,3.8693,3.9119,3.9707,4.0819,4.2418,4.3807,4.4564,4.5715,4.6682,4.7229,4.8643,4.9632,4.969,5.024,5.0541,5.0429,5.0104,5.0067,5.0368,5.0619,5.0996,5.1548,5.2126,5.2232,5.183,5.1797,5.1586,5.1211,5.0873,5.0696,5.0696,5.0696,5.0696,5.0696,5.0282,4.989,4.9473,4.916,4.8763,4.84,4.84,4.84,4.84,4.84,4.8159,4.7758,4.7355,4.6928,4.6522,4.6151,4.6002,4.6002,4.6002,4.6002,4.6002,4.6002,4.6002,4.5928,4.5518,4.5106,4.4654,4.4146,4.3805,4.3615,4.3615,4.3615,4.3615,4.3615,4.3615,4.3577,4.3386,4.3042,4.2659,4.2216,4.185,4.1266,4.0409,4.0059,3.9668,3.9043,3.873,3.8538,3.8392,3.8155,3.7679,3.6886,3.6664,3.6479,3.6201,3.6201,3.6201,3.6201,3.6201,3.6201,3.6201,3.6201,3.6126,3.5978,3.5717,3.553,3.5344,3.4969,3.4649,3.2092,3.3186,3.3989,3.4368,3.569,3.6964,3.7365,3.8098,3.8857,3.9454,4.0144,4.1054,4.2298,4.3493,4.4543,4.5166,4.6107,4.7022,4.7751,4.9035,4.9949,5.0159,5.0711,5.0962,5.062,5.0295,5.0121,5.0175,5.0285,5.0594,5.0996,5.1548,5.1724,5.1453,5.1348,5.1166,5.0899,5.0436,5.0191,5.0191,5.0191,5.0287,5.0431,4.9993,4.9499,4.9003,4.8777,4.8385,4.7918,4.7918,4.801,4.8148,4.8148,4.8058,4.7941,4.7538,4.7112,4.6743,4.6336,4.6114,4.6002,4.6002,4.6002,4.6002,4.6002,4.6002,4.5928,4.5667,4.5293,4.488,4.4504,4.3995,4.3615,4.3615,4.3615,4.3615,4.3615,4.3615,4.3615,4.3615,4.3272,4.2851,4.2447,4.2082,4.1518,4.0624,4.0156,3.9726,3.9258,3.8828,3.8611,3.8611,3.8228,3.7789,3.7218,3.696,3.6701,3.6405,3.6275,3.6201,3.6201,3.6201,3.6201,3.6201,3.6201,3.6201,3.6201,3.5903,3.5791,3.5791,3.5381,3.504,3.2626,3.3485,3.4206,3.5391,3.6612,3.7832,3.902,3.9292,3.9481,4.0101,4.144,4.2875,4.4097,4.4811,0.0,4.6374,4.697,4.7699,4.893,4.9557,5.0106,5.0707,5.0971,5.0962,5.062,5.0295,4.9969,4.9622,5.0092,5.0386,5.0386,5.0971,5.1306,5.1306,5.0569,5.0198,5.0198,4.946,4.9119,4.9119,4.9095,4.9383,4.9865,4.9359,4.8707,4.8004,4.8004,4.7586,4.692,4.692,4.7183,4.7607,4.7607,4.7905,4.8341,4.7941,4.7516,4.7149,4.6743,4.6336,4.6002,4.6002,4.6002,4.6002,4.6002,4.6002,4.6002,4.6002,4.5704,4.5293,4.4918,4.4222,4.3615,4.3615,4.3615,4.3615,4.3615,4.3615,4.3615,4.3615,4.3272,4.2889,4.2485,4.2082,4.1518,4.0624,4.0176,3.9726,3.9258,3.8828,3.8611,3.8611,3.8228,3.8009,3.8009,3.7255,3.6812,3.6812,3.6442,3.6201,3.6201,3.6201,3.6201,3.6201,3.6201,3.6201,3.6201,3.6201,3.6201,3.6219,3.581,3.5614,3.2626,3.3485,3.4206,3.5391,3.6612,3.7832,3.902,3.9617,4.0373,4.1812,4.2927,4.405,4.526,4.5634,0.0,4.7233,4.7348,4.7699,4.893,4.9557,5.0106,5.0707,5.1189,5.1314,5.0994,5.0646,5.0327,4.9976,4.987,4.9841,4.9841,5.0368,5.067,5.067,5.058,5.0443,5.0198,4.9699,4.9324,4.9119,4.8734,4.883,4.9335,4.9191,4.881,4.8351,4.8108,4.7726,4.7213,4.7003,4.6954,4.7115,4.7115,4.7413,4.78,4.7381,4.7222,4.7149,4.6743,4.6336,4.6002,4.6002,4.6002,4.6002,4.6002,4.6002,4.6002,4.6002,4.5704,4.5293,4.4918,4.439,4.3957,4.3653,4.3615,4.3615,4.3615,4.3615,4.3615,4.3615,4.35,4.3195,4.2524,4.2293,4.1945,4.1112,4.0605,4.0059,3.9297,3.8828,3.8611,3.8611,3.8501,3.8302,3.8009,3.7532,3.7107,3.6812,3.6442,3.6201,3.6201,3.6201,3.6201,3.6201,3.6201,3.6201,3.6201,3.6201,3.6366,3.6621,3.6509,3.6444,3.2861,3.3656,3.4314,3.5967,3.6964,3.794,3.9644,4.0675,4.1707,4.328,4.4215,4.5088,4.6141,4.6435,0.0,4.7636,4.772,4.8068,4.9244,4.9688,5.0185,5.1021,5.1387,5.1471,5.112,5.0804,5.0455,5.0129,4.9783,4.959,4.959,4.9916,5.0092,5.0092,5.0065,4.99,4.9559,4.9166,4.8797,4.8459,4.8122,4.8147,4.8459,4.8459,4.8256,4.7882,4.7369,4.6957,4.6577,4.6369,4.6438,4.6564,4.6564,4.6885,4.7309,4.7037,4.6925,4.6844,4.6602,4.6293,4.6002,4.6002,4.6002,4.6002,4.6002,4.6002,4.6002,4.6002,4.5816,4.5518,4.4955,4.4617,4.4277,4.3729,4.3615,4.3615,4.3615,4.3615,4.3615,4.3615,4.3615,4.3424,4.2774,4.2485,4.2177,4.156,4.0916,4.0195,3.9316,3.8984,3.8787,3.863,3.8611,3.8501,3.8265,3.7862,3.7458,3.7071,3.6664,3.6367,3.6201,3.6201,3.6201,3.6201,3.6201,3.6292,3.642,3.642,3.664,3.7043,3.7043,3.7053,3.3257,3.3908,3.4477,3.6889,3.7669,3.838,4.0598,4.2114,4.3362,4.4474,4.5207,4.5943,4.684,4.724,4.7523,4.7853,4.8092,4.8649,4.974,4.9897,5.0315,5.1465,5.1596,5.1471,5.1183,5.081,5.0487,5.0168,4.9815,4.959,4.959,4.959,4.959,4.959,4.9299,4.8967,4.86,4.8248,4.7861,4.7497,4.7497,4.7497,4.7497,4.7497,4.7298,4.6898,4.6227,4.5754,4.5404,4.5404,4.5645,4.6058,4.6058,4.6357,4.6851,4.6851,4.6618,4.6329,4.6374,4.6212,4.5937,4.598,4.6002,4.6002,4.6002,4.6002,4.6002,4.6002,4.6002,4.5816,4.5068,4.4843,4.4617,4.3843,4.3653,4.3615,4.3615,4.3615,4.3615,4.3615,4.3615,4.3462,4.3081,4.2659,4.2254,4.1811,4.1032,4.0196,3.9434,3.9297,3.9121,3.8767,3.8728,3.8728,3.8728,3.8306,3.7883,3.7533,3.709,3.6683,3.633,3.6237,3.6219,3.6256,3.6256,3.6438,3.686,3.686,3.7061,3.7446,3.7446,3.7472,3.3257,3.3908,3.4477,3.6889,3.8917,4.0463,4.0978,4.2792,4.4393,4.4664,4.556,4.6645,4.7731,4.8187,4.8499,4.8775,4.87,4.8884,4.9801,4.9897,5.0315,5.1465,5.1596,5.1565,5.1502,5.0936,5.0556,5.0518,4.9944,4.959,4.959,4.959,4.959,4.959,4.9525,4.9227,4.8633,4.851,4.8149,4.7497,4.7497,4.7497,4.7497,4.7497,4.7132,4.6506,4.6338,4.5957,4.5404,4.5404,4.545,4.5564,4.5564,4.5829,4.6288,4.6288,4.6095,4.5895,4.6262,4.599,4.5522,4.5893,4.6002,4.6002,4.6002,4.6002,4.6002,4.6002,4.6002,4.5891,4.5405,4.5031,4.4692,4.4163,4.3843,4.3615,4.3615,4.3615,4.3615,4.3615,4.3615,4.3462,4.3081,4.2659,4.2139,4.1444,4.0839,4.0411,4.0216,3.9941,3.9707,3.9629,3.9609,3.9609,3.9609,3.8925,3.8416,3.8341,3.7652,3.724,3.7166,3.6515,3.6366,3.6658,3.6658,3.686,3.7263,3.7263,3.7464,3.7888,3.7888,3.803,3.3257,3.3908,3.4477,3.6889,3.9324,4.1086,4.1086,4.2982,4.4719,4.4719,4.5911,4.7187,4.8056,4.8486,4.8856,4.9276,4.8981,4.9057,5.0011,4.9988,5.0315,5.1465,5.1596,5.1596,5.1596,5.1126,5.0747,5.0588,5.0136,4.9751,4.9622,4.959,4.959,4.959,4.959,4.9292,4.8633,4.86,4.8215,4.7497,4.7497,4.7497,4.7497,4.7497,4.7098,4.6405,4.6405,4.6025,4.5404,4.5404,4.5404,4.5404,4.5404,4.5564,4.576,4.576,4.5596,4.538,4.5649,4.5393,4.5041,4.5522,4.5675,4.5718,4.5937,4.6002,4.6002,4.6002,4.6002,4.5928,4.5518,4.5106,4.4692,4.4277,4.3898,4.3615,4.3615,4.3615,4.3615,4.3615,4.3615,4.3539,4.331,4.2792,4.2177,4.1579,4.1131,4.0762,4.0508,4.0332,4.0117,3.9922,3.9902,3.9902,3.9902,3.95,3.9139,3.8932,3.8556,3.8141,3.7763,3.7332,3.7087,3.7079,3.7079,3.7281,3.7704,3.7704,3.7867,3.827,3.827,3.8398,3.3257,3.4206,3.4992,3.6997,3.9324,4.1086,4.1086,4.2982,4.4719,4.4719,4.6211,4.7649,4.8137,4.8595,4.9076,4.9504,4.9125,4.9091,5.0115,5.0056,5.0289,5.1335,5.1544,5.1596,5.1596,5.1309,5.0962,5.062,5.0295,4.9944,4.9622,4.959,4.959,4.959,4.959,4.9292,4.8633,4.86,4.8215,4.7497,4.7497,4.7497,4.7497,4.7497,4.7098,4.6405,4.6405,4.6025,4.5404,4.5404,4.5404,4.5404,4.5404,4.5404,4.5404,4.5404,4.521,4.497,4.499,4.4821,4.4611,4.5041,4.5194,4.526,4.5653,4.5806,4.5893,4.5893,4.5937,4.5928,4.5592,4.5143,4.473,4.439,4.3936,4.3615,4.3615,4.3615,4.3615,4.3615,4.3615,4.3577,4.35,4.2869,4.2254,4.185,4.1483,4.1035,4.0684,4.0644,4.0508,4.0156,4.0117,4.0117,4.0117,4.0039,3.9849,3.9546,3.945,3.9071,3.8326,3.8324,3.8073,3.7631,3.7519,3.7684,3.8087,3.8087,3.827,3.86,3.86,3.86,3.3257,3.5425,3.7106,3.7404,3.9324,4.1086,4.1086,4.2982,4.4719,4.4719,4.651,4.811,4.8192,4.9086,4.9787,4.9613,4.9297,4.9191,4.9561,4.9763,5.0132,5.0812,5.1309,5.1596,5.1596,5.1309,5.0962,5.062,5.0295,4.9944,4.9622,4.959,4.959,4.959,4.959,4.9292,4.8633,4.86,4.8215,4.7497,4.7497,4.7497,4.7497,4.7497,4.7098,4.6405,4.6405,4.6025,4.5404,4.5404,4.5404,4.5404,4.5404,4.5404,4.5404,4.5404,4.5154,4.4821,4.496,4.4741,4.4449,4.4647,4.4692,4.4692,4.4757,4.5085,4.5412,4.5412,4.5696,4.6002,4.5928,4.5368,4.4805,4.473,4.4146,4.3615,4.3615,4.3615,4.3615,4.3615,4.3615,4.35,4.3119,4.2697,4.2254,4.185,4.1483,4.1191,4.1094,4.1132,4.1113,4.1054,4.1035,4.1035,4.1035,4.0664,4.0391,4.0353,4.0009,3.9625,3.9182,3.9153,3.8908,3.8435,3.8087,3.8144,3.8527,3.8527,3.8545,3.86,3.86,3.86,3.3365,3.5669,3.7485,3.7485,3.9324,4.1086,4.1086,4.2711,4.4284,4.4637,4.6075,4.7459,4.8056,4.8924,4.9574,4.9786,4.9556,4.9456,4.9749,4.9716,4.9816,5.0241,5.0498,5.076,5.1126,5.1028,5.0846,5.0594,5.0455,5.0168,4.9622,4.959,4.959,4.959,4.959,4.9292,4.8633,4.86,4.8215,4.7497,4.7497,4.7497,4.7497,4.7497,4.7098,4.6405,4.6405,4.6025,4.5404,4.5404,4.5404,4.5404,4.5404,4.5404,4.5404,4.5404,4.5142,4.4789,4.4658,4.4343,4.4048,4.4179,4.4225,4.4269,4.4495,4.4735,4.491,4.491,4.5063,4.5216,4.5216,4.4629,4.4039,4.4039,4.3446,4.2849,4.2849,4.3263,4.3615,4.3615,4.3615,4.3539,4.3348,4.3004,4.2621,4.2197,4.1811,4.1444,4.1211,4.1211,4.1211,4.1211,4.1211,4.1211,4.1211,4.0996,4.0879,4.0879,4.0724,4.0453,3.9968,3.9768,3.943,3.8996,3.8575,3.8417,3.86,3.86,3.86,3.86,3.86,3.86,3.3555,3.5561,3.7317,3.7458,3.9079,4.0707,4.1032,4.2385,4.3794,4.4556,4.5533,4.6618,4.7758,4.8598,4.9249,4.9683,4.9647,4.9632,4.9769,4.9605,4.9545,4.9696,4.9819,5.008,5.0524,5.0551,5.0456,5.0215,5.0306,5.0098,4.9453,4.9515,4.959,4.959,4.959,4.9292,4.8633,4.8412,4.805,4.7497,4.7377,4.7305,4.7305,4.7161,4.6693,4.6053,4.6311,4.6025,4.5404,4.5404,4.5404,4.5404,4.5404,4.5404,4.5404,4.5404,4.521,4.4903,4.4423,4.41,4.3833,4.3754,4.3722,4.3788,4.4159,4.432,4.4408,4.4408,4.4495,4.4582,4.4582,4.4004,4.3386,4.3386,4.2837,4.2327,4.243,4.2952,4.347,4.3594,4.3615,4.3615,4.3615,4.3272,4.2851,4.2447,4.2082,4.1657,4.125,4.1211,4.1211,4.1211,4.1211,4.1211,4.1211,4.1211,4.1211,4.1211,4.1211,4.0997,4.0509,4.0098,3.9706,3.9312,3.8838,3.86,3.86,3.86,3.86,3.86,3.86,3.86,3.388,3.5256,3.6795,3.7371,3.8456,3.9699,4.0842,4.2059,4.328,4.4447,4.5207,4.5994,4.7214,4.8355,4.9114,4.9141,4.9404,4.9497,4.9207,4.9369,4.939,4.9172,4.9584,4.9897,4.9923,4.9949,4.9677,4.903,4.9537,4.9563,4.8875,4.9314,4.959,4.959,4.959,4.9292,4.8633,4.7918,4.753,4.7497,4.6992,4.6752,4.6728,4.6247,4.562,4.5042,4.6006,4.6025,4.5404,4.5404,4.5404,4.5404,4.5404,4.5404,4.5404,4.5404,4.5404,4.5267,4.4548,4.4307,4.4135,4.3451,4.3241,4.3263,4.3285,4.3591,4.3941,4.3941,4.4269,4.4582,4.4582,4.4004,4.3386,4.3386,4.2837,4.241,4.2787,4.2873,4.3077,4.3532,4.3615,4.3615,4.3615,4.3272,4.2851,4.2447,4.2082,4.1657,4.125,4.1211,4.1211,4.1211,4.1211,4.1211,4.1211,4.1211,4.1211,4.1211,4.1211,4.0997,4.0509,4.0098,3.9706,3.9312,3.8838,3.86,3.86,3.86,3.86,3.86,3.86,3.86,3.4355,3.5546,3.6927,3.7527,3.8483,3.9617,4.0815,4.1734,4.2656,4.3875,4.4583,4.5261,4.6101,4.7214,4.8246,4.8978,4.9193,4.9239,4.9129,4.9169,4.9041,4.86,4.8669,4.8956,4.9348,4.9404,4.9235,4.8927,4.9097,4.892,4.824,4.841,4.851,4.851,4.851,4.8187,4.7543,4.6811,4.6455,4.6487,4.6262,4.6166,4.6166,4.5974,4.5548,4.4924,4.5301,4.5046,4.4382,4.4727,4.4887,4.491,4.5266,4.5404,4.5404,4.5404,4.5404,4.5301,4.4583,4.4307,4.4169,4.3463,4.3219,4.3219,4.3219,4.3329,4.346,4.346,4.3591,4.3687,4.3687,4.3098,4.2364,4.192,4.1596,4.154,4.1959,4.229,4.2621,4.3077,4.3159,4.3263,4.3553,4.3462,4.3157,4.2485,4.2293,4.1966,4.1288,4.1211,4.1211,4.1211,4.1211,4.1211,4.1211,4.1211,4.1211,4.1211,4.1211,4.1133,4.0958,4.0255,3.9823,3.9706,3.8956,3.86,3.86,3.86,3.86,3.86,3.86,3.86,3.4609,3.5625,3.6886,3.7619,3.8312,3.9163,4.0485,4.1249,4.2032,4.3251,4.3984,4.4583,4.518,4.6128,4.7187,4.8355,4.868,4.8839,4.8951,4.8889,4.8685,4.8405,4.8286,4.8358,4.8777,4.8803,4.8663,4.8338,4.8538,0.0,4.7688,4.7807,4.7908,4.7908,4.7658,4.737,4.6897,4.6254,4.5902,4.5902,4.571,4.5614,4.5614,4.5445,4.5024,4.4384,4.4384,4.4128,4.3831,4.4199,4.4336,4.4382,4.4944,4.5128,4.5151,4.5335,4.5404,4.5301,4.4583,4.4307,4.4169,4.3463,4.3219,4.3219,4.3219,4.3219,4.3219,4.3219,4.3219,4.3219,4.3219,4.2603,4.1806,4.1096,4.0918,4.1001,4.1312,4.1726,4.2203,4.2621,4.2828,4.2977,4.3325,4.3511,4.3386,4.2697,4.2485,4.2139,4.1483,4.1288,4.1211,4.1211,4.1211,4.1211,4.1211,4.1211,4.1211,4.1211,4.1211,4.1211,4.1211,4.049,4.0059,3.9902,3.9193,3.8758,3.86,3.86,3.86,3.86,3.86,3.86,0.0,0.0,0.0,3.7572,3.7811,3.824,3.982,4.0648,4.1435,4.2602,4.3359,4.3956,4.4556,4.518,4.5966,4.7133,4.7812,4.8299,4.8644,4.839,4.8292,4.8616,4.8376,4.8146,4.8146,4.8201,4.7909,4.7265,4.7718,4.7779,4.7104,4.755,4.7857,4.7857,4.7194,4.6848,4.6848,4.6206,4.5854,4.583,4.5325,4.5085,4.5061,4.4556,4.3943,4.3295,4.3295,4.3476,4.3762,4.3785,4.3785,4.3831,4.4382,4.4589,4.4658,4.5197,4.5381,4.5301,4.4548,4.4307,4.4169,4.3463,4.3219,4.3219,4.3219,4.3219,4.3219,4.3219,4.3219,4.3184,4.3184,4.2603,4.1806,4.1096,4.0918,4.0918,4.0918,4.127,4.1726,4.2182,4.26,4.2911,4.2873,4.3304,4.3462,4.3042,4.2659,4.2254,4.185,4.1444,4.1211,4.1211,4.1211,4.1211,4.1211,4.1211,4.1211,4.1211,4.1211,4.1211,4.1211,4.0763,4.0314,3.9902,3.9509,3.9075,3.86,3.86,3.86,3.86,3.86,3.86,3.5022,0.0,0.0,0.0,0.0,0.0,3.948,4.0137,4.0784,4.2005,4.2711,4.3332,4.3956,4.4529,4.5207,4.5993,4.697,4.7731,4.7997,4.7801,4.7575,4.7399,4.7481,4.7542,4.7542,4.7937,4.7909,0.0,4.7359,4.7193,4.6557,4.6677,4.6753,4.6753,4.6081,4.5742,4.5742,4.506,4.4748,4.4748,4.4573,4.4501,4.4532,4.4388,4.3943,4.3295,4.3295,4.308,4.2743,4.3142,4.328,4.3349,4.3831,4.4267,4.4612,4.4773,4.4879,4.4903,4.4423,4.41,4.3789,4.3359,4.3219,4.3219,4.3219,4.3219,4.3219,4.3219,4.3219,4.308,4.2476,4.2159,4.1806,4.1096,4.0918,4.0918,4.0918,4.1022,4.1229,4.1705,4.2161,4.2538,4.287,4.3304,4.3462,4.3042,4.2659,4.2254,4.185,4.1444,4.1211,4.1211,4.1211,4.1211,4.1211,4.1211,4.1211,4.1211,4.1211,4.1211,4.1211,4.0763,4.0314,3.9902,3.9509,3.9075,3.86,3.86,3.86,3.86,3.86,3.86,0.0,0.0,0.0,0.0,0.0,0.0,3.9043,3.9813,4.0541,4.1133,4.1734,4.2331,4.2952,4.3525,4.4149,4.4771,4.5667,4.6592,4.7514,4.7295,4.7045,4.7118,4.7015,4.697,4.697,4.7283,4.7311,4.6905,4.6872,4.6679,4.6331,4.6301,4.6301,4.6301,4.5635,4.53,4.53,4.4656,4.4285,4.4285,4.4285,4.4285,4.4285,4.4161,4.3795,4.3295,4.3169,4.2791,4.233,4.266,4.2775,4.2821,4.3303,4.3693,4.4038,4.4451,4.456,4.446,4.4321,4.4031,4.3628,4.3302,4.3219,4.3219,4.3219,4.3219,4.3219,4.3219,4.3219,4.2988,4.2194,4.2018,4.1806,4.1096,4.0918,4.0918,4.0918,4.0918,4.1001,4.127,4.185,4.2368,4.26,4.318,4.3539,4.3272,4.2774,4.2331,4.2062,4.154,4.1211,4.1211,4.1211,4.1211,4.1211,4.1211,4.1211,4.1211,4.1211,4.1211,4.1211,4.0919,4.0529,3.9902,3.9666,3.9233,3.86,3.86,3.86,3.86,3.86,3.86,0.0,0.0,0.0,0.0,0.0,0.0,3.8608,3.9563,4.0344,4.0228,4.0621,4.1168,4.1788,4.2385,4.3006,4.3603,4.4203,4.518,4.6862,4.6652,4.6514,4.702,4.6708,4.6423,4.6423,4.6475,4.6456,4.6312,4.6298,4.6289,4.623,4.6276,4.6301,4.6301,4.5635,4.53,4.53,4.4656,4.4285,4.4285,4.4285,4.4285,4.4285,4.395,4.3639,4.3295,4.2949,4.2601,4.2307,4.2307,4.2307,4.2353,4.2821,4.3028,4.3211,4.4176,4.4275,4.3985,4.4231,4.4031,4.3615,4.3302,4.3219,4.3219,4.3219,4.3219,4.3219,4.3219,4.3219,4.2988,4.2194,4.2018,4.1806,4.1096,4.0918,4.0918,4.0918,4.0918,4.0918,4.0918,4.1664,4.2285,4.2285,4.3014,4.3615,4.3615,4.2907,4.2408,4.2408,4.1695,4.1211,4.1211,4.1211,4.1211,4.1211,4.1211,4.1211,4.1211,4.1211,4.1211,4.1211,4.1211,4.0782,3.9902,3.9784,3.9351,3.86,3.86,3.86,3.86,3.86,3.86,0.0,0.0,0.0,0.0,0.0,0.0,3.8207,3.8712,3.9289,4.0042,4.0268,4.0567,4.1141,4.1788,4.2358,4.2979,4.3576,4.4282,4.5098,4.5122,4.5103,4.5209,4.5546,4.5766,4.5766,4.6212,4.6299,4.5776,4.569,4.567,4.5678,4.6075,4.6301,4.6301,4.5635,4.53,4.53,4.4656,4.4285,4.4285,4.4285,4.4285,4.4285,4.395,4.3639,4.3295,4.2949,4.2601,4.2307,4.2307,4.2307,4.2307,4.2422,4.2729,4.3165,4.3739,4.3812,4.3669,4.4128,4.3858,4.3289,4.3219,4.3219,4.3219,4.3219,4.3219,4.3219,4.3219,4.3219,4.2988,4.2194,4.2018,4.1806,4.1096,4.0918,4.0918,4.0918,4.0918,4.0918,4.0918,4.1664,4.2285,4.2285,4.3014,4.3615,4.3615,4.2907,4.2408,4.2408,4.1695,4.1211,4.1211,4.1211,4.1211,4.1211,4.1211,4.1211,4.1211,4.1211,4.1211,4.1211,4.1211,4.0782,3.9902,3.9193,3.8758,3.86,3.86,3.86,3.86,3.86,3.86,0.0,0.0,0.0,3.6998,0.0,0.0,0.0,3.8564,3.9059,3.963,3.9753,3.9943,4.054,4.0892,4.13,4.1896,4.2249,4.2608,4.3082,4.3811,4.4199,4.4121,4.4203,4.4407,4.4722,4.5037,4.5207,4.5132,4.5092,4.5045,4.5045,4.5321,4.5509,4.566,4.5179,4.4939,4.5055,4.4563,4.4285,4.4285,4.4285,4.4285,4.4285,4.3795,4.3483,4.3263,4.2759,4.2466,4.2307,4.2307,4.2307,4.2307,4.2307,4.2468,4.2775,4.3257,4.3301,4.3186,4.3735,4.3589,4.3219,4.3219,4.3219,4.3219,4.3219,4.3219,4.3219,4.3219,4.3219,4.2988,4.2194,4.2018,4.1806,4.1096,4.0918,4.0918,4.0918,4.0918,4.0918,4.0918,4.1664,4.2285,4.2285,4.3014,4.3615,4.3615,4.2907,4.2408,4.2408,4.1695,4.1211,4.1211,4.1211,4.1211,4.1211,4.1211,4.1211,4.1211,4.1211,4.1211,4.1211,4.1211,4.0782,3.9902,3.9035,3.86,3.86,3.86,3.86,3.86,3.86,3.86,0.0,0.0,0.0,0.0,0.0,3.8061,0.0,0.0,0.0,3.9271,3.9292,3.9454,3.9943,4.0128,4.035,4.0865,4.1005,4.1156,4.1331,4.2375,4.3189,4.3305,4.3127,4.3206,4.3703,4.3623,4.3798,4.4335,4.4304,4.4342,4.4439,4.4539,4.4698,4.4824,4.462,4.456,4.464,4.4422,4.4285,4.4285,4.4285,4.4285,4.4285,4.3608,4.3295,4.3263,4.2593,4.2307,4.2307,4.2307,4.2307,4.2307,4.2307,4.2307,4.2376,4.2913,4.2869,4.2638,4.3298,4.3289,4.3053,4.3176,4.3219,4.3219,4.3219,4.3219,4.3219,4.3219,4.3219,4.2988,4.2194,4.2018,4.1806,4.1096,4.0918,4.0918,4.0918,4.0918,4.0918,4.0918,4.1664,4.2285,4.2285,4.3014,4.3615,4.3615,4.2907,4.2408,4.2408,4.1695,4.1211,4.1211,4.1211,4.1211,4.1211,4.1211,4.1211,4.1211,4.1211,4.1211,4.1211,4.1094,4.0704,3.9902,3.9114,3.8679,3.86,3.86,3.86,3.86,3.86,3.86,0.0,0.0,0.0,0.0,3.8578,0.0,0.0,0.0,3.8847,3.9227,0.0,3.9319,3.94,0.0,0.0,4.0268,4.0757,4.095,4.0511,4.0576,4.1198,4.254,4.289,4.3023,4.3101,4.2656,4.2621,4.3129,4.3194,4.3388,4.3865,4.4338,4.4523,4.4306,4.4423,4.4364,4.4087,4.4229,4.4285,4.4285,4.4285,4.4285,4.4285,4.3608,4.3295,4.3263,4.2593,4.2307,4.2307,4.2307,4.2307,4.2307,4.2307,4.2307,4.2376,4.2913,4.2665,4.2246,4.3186,4.3046,4.2573,4.3032,4.3219,4.3219,4.3219,4.3219,4.3219,4.3219,4.3219,4.2988,4.2194,4.2018,4.1806,4.1096,4.0918,4.0918,4.0918,4.0918,4.0918,4.0918,4.1664,4.2285,4.2285,4.3014,4.3615,4.3615,4.2907,4.2408,4.2408,4.1695,4.1211,4.1211,4.1211,4.1211,4.1211,4.1211,4.1211,4.1211,4.1211,4.1211,4.1211,4.0802,4.0353,3.9902,3.9469,3.9035,3.86,3.86,3.86,3.86,3.86,3.86,0.0,0.0,0.0,0.0,0.0,0.0,3.9016,0.0,3.8825,0.0,0.0,0.0,0.0,0.0,0.0,0.0,3.9888,4.0005,3.9794,3.9778,4.0062,4.0762,0.0,0.0,4.2242,4.224,4.2232,4.2275,4.2456,4.2637,4.2864,4.3363,4.3587,4.3445,4.3521,4.3497,4.3312,4.3662,4.3835,4.3835,4.4172,4.4285,4.4285,4.3608,4.3295,4.3263,4.2593,4.2307,4.2307,4.2307,4.2307,4.2307,4.2307,4.2307,4.233,4.2536,4.236,4.2079,4.2772,4.2758,4.2507,4.301,4.3219,4.3219,4.3219,4.3219,4.3219,4.3219,4.3219,4.2988,4.2194,4.2018,4.1806,4.1096,4.0918,4.0918,4.0918,4.0918,4.0918,4.0918,4.1664,4.2285,4.2285,4.3014,4.3615,4.3615,4.2907,4.2408,4.2408,4.1695,4.1211,4.1211,4.1211,4.1211,4.1211,4.1211,4.1211,4.1211,4.1211,4.1211,4.1211,4.0763,4.0314,3.9902,3.9509,3.9075,3.86,3.86,3.86,3.86,3.86,3.86,3.9641,0.0,0.0,0.0,0.0,0.0,0.0,0.0,0.0,0.0,0.0,0.0,0.0,0.0,0.0,0.0,0.0,3.9182,3.9181,3.9119,3.9203,3.9568,0.0,0.0,0.0,4.1338,4.1437,4.1353,4.1593,4.1858,4.2187,4.2479,4.2647,4.2676,4.2737,4.2715,4.2573,4.3048,4.3385,4.3475,4.3883,4.411,4.4161,4.3576,4.3263,4.3137,4.2561,4.2307,4.2307,4.2307,4.2307,4.2307,4.2307,4.2307,4.2307,4.2307,4.2088,4.191,4.2481,4.2669,4.2682,4.3053,4.3219,4.3219,4.3219,4.3219,4.3219,4.3219,4.3219,4.2988,4.2194,4.2018,4.1806,4.1096,4.0918,4.0918,4.0918,4.0918,4.0918,4.0918,4.1664,4.2285,4.2285,4.3014,4.3615,4.3615,4.2907,4.2408,4.2408,4.1695,4.1211,4.1211,4.1211,4.1211,4.1211,4.1211,4.1211,4.1211,4.1211,4.1211,4.1211,4.088,4.0451,3.9902,3.9627,3.9193,3.86,3.86,3.86,3.86,3.86,3.86,0.0,0.0,0.0,4.0631,0.0,0.0,0.0,0.0,3.9264,0.0,0.0,0.0,0.0,0.0,0.0,0.0,0.0,0.0,0.0,3.8398,3.8569,3.9492,3.9625,0.0,0.0,3.9537,3.9802,0.0,4.0406,4.1028,4.2162,4.1911,4.1852,4.211,4.2314,4.2292,4.2019,4.2549,4.3054,4.3505,4.3529,4.3634,4.3802,4.3483,4.3137,4.2791,4.2466,4.2307,4.2307,4.2307,4.2307,4.2307,4.2307,4.2307,4.2307,4.2307,4.1893,4.1472,4.2403,4.2913,4.3197,4.3197,4.3219,4.3219,4.3219,4.3219,4.3219,4.3219,4.3219,4.2988,4.2194,4.2018,4.1806,4.1096,4.0918,4.0918,4.0918,4.0918,4.0918,4.0918,4.1664,4.2285,4.2285,4.3014,4.3615,4.3615,4.2907,4.2408,4.2408,4.1695,4.1211,4.1211,4.1211,4.1211,4.1211,4.1211,4.1211,4.1211,4.1211,4.1211,4.1211,4.1172,4.0782,3.9902,3.9863,3.9469,3.86,3.86,3.86,3.86,3.86,3.86,0.0,0.0,4.184,4.1418,0.0,0.0,0.0,0.0,0.0,0.0,0.0,0.0,0.0,0.0,0.0,0.0,0.0,0.0,0.0,0.0,3.7075,3.7795,3.8413,3.8821,0.0,0.0,0.0,0.0,3.9698,0.0,4.1028,4.1484,4.1654,4.1569,4.1777,4.173,4.149,4.1995,4.2356,4.2525,4.3192,4.3418,4.3272,4.3286,4.3106,4.2791,4.2466,4.2307,4.2307,4.2307,4.2307,4.2307,4.2307,4.2307,4.2275,4.2029,4.1678,4.1385,4.185,4.2538,4.3219,4.3219,4.3219,4.3219,4.3219,4.3219,4.3219,4.3219,4.3219,4.2988,4.2194,4.2018,4.1806,4.1096,4.0918,4.0918,4.0918,4.0918,4.0918,4.0918,4.1664,4.2285,4.2285,4.3014,4.35,4.3233,4.2715,4.2293,4.2043,4.1502,4.1211,4.1211,4.1211,4.1211,4.1211,4.1211,4.1211,4.1211,4.1211,4.1211,4.1211,4.1211,4.0782,3.9902,3.9902,3.9469,3.86,3.86,3.86,3.86,3.86,3.86,4.293,4.2761,0.0,4.2064,4.1597,0.0,4.0741,0.0,0.0,0.0,0.0,0.0,0.0,0.0,0.0,0.0,0.0,0.0,0.0,3.6529,0.0,3.6645,3.7329,3.7852,3.8157,0.0,0.0,0.0,0.0,0.0,0.0,4.0649,4.1019,4.1135,4.1169,4.118,4.1201,4.1562,4.1803,4.2019,4.2712,4.2973,4.2827,4.3028,4.2949,4.2601,4.2402,4.2307,4.2307,4.2307,4.2307,4.2307,4.2307,4.2307,4.2275,4.1934,4.1711,4.1626,4.1682,4.2354,4.3219,4.3219,4.3219,4.3219,4.3219,4.3219,4.3219,4.3219,4.3093,4.2848,4.2159,4.1912,4.1664,4.1061,4.0918,4.0918,4.0918,4.0918,4.0918,4.0918,4.1664,4.2285,4.2285,4.3014,4.3462,4.3042,4.2659,4.2254,4.185,4.1444,4.1211,4.1211,4.1211,4.1211,4.1211,4.1211,4.1211,4.1211,4.1211,4.1211,4.1211,4.1211,4.0782,3.9902,3.9902,3.9469,3.86,3.86,3.86,3.86,3.86,3.86]}]]